GFSSGP_sfc_wetblb_057.txt.gz
Wetbulb
60.07 59.13 56.85 52.79 45.58 44.54 40.90 42.26 44.14 44.04 48.56 53.69 56.32 54.44 53.26 55.59 53.54 50.40 63.52 66.12 67.14 68.78 68.18 70.18 70.91 71.04 71.55 71.83 71.93 71.99 72.18 72.09 71.80 71.79 71.61 71.15 70.60 70.48 69.99 69.64 69.42 69.58 69.55 68.37 68.07 67.76 67.57 67.45 66.85
56.93 55.57 53.22 47.83 43.03 40.23 41.25 42.32 42.60 45.61 51.74 54.82 55.93 56.51 54.61 52.86 58.50 61.83 62.00 64.54 65.97 68.73 69.27 70.47 70.51 70.72 71.32 71.38 71.52 71.60 71.99 71.80 71.74 71.59 71.02 70.42 70.47 70.23 69.96 69.35 68.98 69.17 69.12 67.71 67.62 67.34 67.07 66.97 66.89
54.83 52.09 50.13 44.50 40.24 40.35 40.68 42.78 45.44 46.64 52.97 53.93 53.67 57.96 56.68 54.42 58.19 60.68 63.52 64.93 65.91 69.49 69.97 70.11 70.16 70.26 70.84 70.98 71.00 70.99 71.07 71.09 70.89 70.62 70.66 70.40 70.42 70.43 70.06 69.40 69.23 69.09 69.49 68.82 67.65 67.11 66.63 66.44 66.67
54.22 52.36 47.82 44.44 40.43 42.38 43.24 46.05 45.54 48.64 52.53 54.58 56.15 53.23 57.22 60.36 60.87 64.16 65.97 65.59 64.85 67.94 69.53 69.61 69.27 69.80 70.67 70.85 71.18 70.58 70.51 69.93 69.85 70.04 69.98 70.25 70.50 70.20 69.79 69.00 69.25 69.69 69.60 68.28 67.32 66.37 66.31 66.44 65.80
51.28 48.93 43.80 41.09 40.61 43.02 44.41 45.73 46.28 49.78 52.20 52.85 53.19 50.99 53.78 59.00 63.00 64.22 65.14 64.82 65.40 65.15 68.70 69.89 68.14 69.10 70.11 70.65 70.94 70.25 69.84 69.46 69.40 69.21 69.29 69.63 69.95 69.66 69.12 68.73 68.64 68.72 68.96 68.76 67.02 65.71 65.76 65.74 65.14
48.52 47.32 41.94 39.96 40.28 43.29 45.46 47.01 50.43 51.80 53.65 53.46 52.44 51.82 52.79 61.26 61.76 63.18 64.35 65.21 65.43 64.18 65.01 67.88 68.83 69.05 68.84 69.07 70.16 69.29 69.15 69.04 68.98 68.61 68.63 69.28 68.94 68.62 68.51 68.32 67.60 67.60 67.94 67.80 66.84 65.97 65.59 65.06 64.35
47.23 44.91 40.71 39.37 40.68 41.93 44.73 52.56 49.65 50.87 52.65 52.53 54.73 51.52 54.84 58.96 61.93 63.92 64.63 65.46 66.40 65.18 64.41 65.71 66.27 67.81 66.93 66.63 67.59 68.01 68.30 68.38 68.16 67.65 67.76 67.90 67.74 67.76 67.91 67.23 67.18 67.60 67.31 67.13 66.20 65.41 65.08 64.59 63.88
47.41 46.19 39.72 40.47 40.66 41.56 46.03 51.46 53.05 52.44 52.27 56.91 57.02 52.20 53.57 59.08 62.92 64.69 65.10 64.93 65.00 65.84 65.40 65.85 65.08 63.97 63.15 65.76 65.42 66.11 66.94 67.41 67.41 67.27 66.90 66.67 67.07 67.19 66.69 66.06 67.02 67.96 67.48 66.79 65.64 65.04 64.74 64.24 63.43
46.96 43.41 40.13 41.41 40.81 44.07 49.87 50.22 52.99 54.78 53.88 55.89 58.01 57.11 59.26 61.40 62.97 62.65 62.87 63.16 63.42 63.84 64.31 63.30 63.61 61.71 62.55 63.74 62.94 65.05 66.85 66.67 67.06 67.16 66.56 65.74 67.02 66.08 64.43 64.26 65.89 66.70 65.73 65.33 65.04 64.66 63.97 63.32 62.82
46.52 42.43 42.38 44.85 45.00 45.51 47.07 50.57 50.74 51.34 50.83 52.50 54.95 58.15 60.15 60.37 60.51 60.73 60.78 59.93 60.30 60.42 61.78 61.97 61.89 62.17 61.78 62.98 62.21 62.74 63.54 64.85 65.91 67.03 67.19 65.86 65.47 64.63 63.18 63.88 64.03 64.53 65.01 64.78 64.62 63.91 63.28 62.12 61.56
44.29 42.91 44.58 45.75 46.69 46.73 45.44 47.99 52.39 50.59 49.15 52.31 53.18 55.43 58.09 58.52 58.39 59.66 59.80 60.23 59.81 58.93 60.15 61.06 60.43 60.54 61.23 60.94 61.39 60.96 60.48 62.90 64.43 66.85 65.76 64.94 63.87 64.45 63.31 62.65 62.40 63.61 64.18 64.48 63.78 62.69 62.05 61.98 61.22
42.94 45.02 45.51 46.48 46.16 46.98 46.52 51.10 50.22 51.29 52.63 56.50 55.93 56.71 57.06 56.38 57.02 58.33 58.49 59.85 59.45 58.83 60.27 60.37 59.70 59.82 60.90 60.24 59.22 59.00 60.21 62.15 62.50 65.84 64.77 63.31 62.45 61.97 61.98 60.72 60.95 60.59 60.79 61.75 62.71 61.11 60.54 61.00 60.62
42.99 44.70 44.98 46.50 46.56 47.08 50.98 50.55 51.38 52.12 54.87 56.81 56.86 57.11 56.91 55.79 55.76 57.07 57.44 58.16 59.71 59.33 59.44 59.16 59.56 59.46 59.46 58.80 59.34 58.89 60.05 61.16 61.63 64.63 63.82 61.65 60.47 60.69 60.96 60.19 59.59 58.81 59.18 59.74 58.99 59.93 60.11 59.96 60.15
46.01 45.05 46.84 47.68 47.49 48.44 49.04 49.88 52.57 53.08 56.42 55.67 56.27 56.32 56.43 55.41 55.31 55.50 56.43 57.02 58.42 59.56 59.41 59.03 59.33 59.07 58.62 57.84 59.34 59.24 59.56 59.85 61.90 63.00 62.58 61.47 60.57 60.90 59.96 59.46 58.89 58.83 57.88 57.66 58.52 58.51 59.36 59.42 59.35
47.31 44.59 45.37 46.07 46.53 47.91 51.22 47.53 49.12 53.57 55.87 54.69 54.92 55.93 55.92 55.72 54.58 54.17 55.84 56.96 57.58 59.60 59.52 59.20 59.42 58.91 57.13 57.45 57.66 59.62 58.75 59.30 60.31 62.37 62.70 61.69 61.48 60.95 60.74 59.08 58.43 58.84 58.46 57.57 55.86 56.60 57.33 57.12 57.52
44.50 43.13 40.25 44.39 47.20 47.43 49.85 43.15 47.16 52.41 54.60 53.80 54.21 54.27 53.40 54.51 54.35 54.73 56.42 56.52 57.96 57.21 59.12 59.39 59.36 58.18 57.83 57.06 57.57 58.97 58.12 58.27 59.06 60.95 61.99 60.91 61.02 61.29 60.64 58.82 58.68 59.26 58.28 57.22 55.58 54.23 53.47 53.91 54.67
40.72 38.30 38.57 41.04 46.19 47.26 47.45 44.69 48.19 52.96 53.41 52.93 53.51 53.74 53.83 53.08 54.20 54.43 55.72 56.07 56.70 57.66 57.20 59.06 58.44 57.85 58.88 58.90 57.97 60.03 59.81 58.53 58.19 60.03 59.98 60.41 59.69 59.91 60.22 59.62 59.61 59.23 58.67 57.47 56.40 54.77 54.11 52.28 52.36
37.31 37.31 38.28 39.85 44.92 46.44 44.91 45.23 48.17 51.03 52.87 52.65 53.46 53.27 53.23 52.40 53.05 54.45 55.36 56.58 56.48 57.05 57.79 57.44 58.84 57.81 58.30 58.09 58.65 59.74 59.88 59.53 59.21 59.08 60.12 60.92 60.15 60.35 60.63 59.84 59.63 59.07 58.85 57.62 56.83 55.71 55.23 53.52 52.36
41.02 38.91 38.51 40.65 43.24 42.66 42.63 43.11 46.05 47.27 50.99 51.81 53.03 53.26 52.94 52.51 54.33 54.55 55.15 56.16 55.92 56.64 57.10 56.35 57.14 57.40 57.90 56.88 56.94 57.40 57.08 57.81 59.47 60.17 60.75 60.54 60.49 59.95 59.90 60.20 59.47 59.06 58.34 58.28 58.00 56.56 54.94 53.09 52.55
40.91 38.93 39.31 41.81 42.50 42.32 43.35 43.25 46.81 47.54 49.13 50.89 52.13 53.24 53.61 52.66 52.85 53.42 54.35 55.04 55.05 55.40 55.45 56.72 57.06 57.82 57.57 57.50 57.89 58.64 57.38 55.89 59.31 60.69 60.55 60.71 60.87 60.21 60.64 60.19 60.11 59.31 59.03 58.72 58.20 57.13 55.27 55.10 52.73
40.52 39.21 38.87 39.45 41.12 43.21 42.23 42.05 44.29 47.16 48.21 49.49 51.14 53.30 54.17 53.18 51.91 51.76 52.25 53.68 54.88 54.71 56.00 56.06 56.59 56.89 57.96 58.55 58.27 58.08 57.40 55.47 55.29 56.29 58.19 59.70 60.74 61.06 61.00 61.10 60.93 60.14 59.69 59.25 58.88 57.96 56.38 54.30 52.76
37.22 41.53 41.32 39.39 38.51 35.73 42.92 34.70 42.02 45.72 45.98 47.81 49.92 50.82 52.22 52.77 53.32 52.45 51.37 51.92 53.23 55.12 56.52 56.95 56.98 56.52 57.23 57.77 57.43 55.84 55.61 53.60 56.53 55.74 55.49 56.71 58.23 58.70 60.38 59.93 59.82 59.25 59.14 59.06 58.86 58.27 57.24 56.33 54.68
40.29 43.18 41.55 40.89 38.74 38.02 38.65 36.81 40.60 43.03 44.29 47.21 50.04 51.02 51.81 52.98 53.58 52.85 51.92 52.64 54.13 55.20 54.94 56.41 56.25 55.87 56.63 57.21 58.22 56.63 54.87 55.76 56.30 55.34 53.96 55.95 57.12 58.04 58.00 58.15 58.78 60.09 59.92 60.30 59.22 58.06 56.77 56.82 56.18
44.15 42.22 41.35 40.30 38.95 32.94 37.91 37.75 38.64 41.42 44.29 47.18 49.19 50.90 51.77 52.38 53.70 54.18 54.14 53.74 53.68 54.72 54.58 55.18 56.24 54.86 55.49 56.04 56.37 56.34 55.25 54.68 53.66 54.03 53.54 53.34 54.36 56.01 56.60 56.31 56.68 59.01 60.48 60.59 60.59 60.18 58.63 57.52 57.02
42.52 39.71 33.33 32.00 32.03 32.00 38.23 36.04 40.17 44.99 46.51 47.33 49.12 50.72 51.99 52.63 53.60 53.90 52.85 52.20 51.82 51.42 52.61 53.88 55.09 55.25 55.32 55.59 56.41 56.67 55.96 55.94 54.57 54.23 54.30 54.30 53.22 54.66 56.02 57.77 57.65 59.38 59.96 59.78 60.28 59.85 59.37 58.94 58.18
39.81 39.66 34.24 28.35 29.51 33.58 38.53 34.96 40.80 47.93 48.88 49.03 49.62 50.35 51.54 52.30 53.65 54.47 54.08 53.50 52.54 52.09 52.71 53.25 53.98 54.72 55.41 54.87 54.78 55.95 57.31 57.00 57.23 57.10 56.96 56.86 55.72 56.31 58.62 57.68 58.36 58.57 59.15 59.54 59.89 60.22 59.87 59.56 58.96
38.89 36.23 41.84 35.17 35.45 33.28 36.44 40.20 44.54 47.68 47.24 48.75 48.47 48.61 50.58 52.83 53.15 54.45 54.60 54.21 53.70 53.31 53.23 53.56 54.03 54.80 55.28 55.37 55.51 55.16 55.66 55.99 56.07 57.11 57.37 57.42 57.63 57.24 57.29 57.63 58.51 59.14 59.17 59.49 59.75 59.90 59.53 59.00 58.41
42.82 43.56 36.17 35.82 29.22 27.85 33.20 35.87 38.84 43.80 45.75 47.04 48.23 47.57 50.01 52.64 52.79 54.23 55.17 54.33 54.64 54.50 54.14 54.19 54.74 54.50 55.12 55.46 55.84 55.35 55.39 55.45 55.95 56.47 56.39 56.79 57.40 57.59 57.55 57.52 58.48 58.85 59.02 59.26 59.30 59.94 59.57 57.79 57.43
39.56 38.94 39.50 39.33 35.94 31.36 29.96 35.31 44.81 45.67 47.10 47.40 49.20 48.82 49.17 50.28 52.82 53.39 55.39 55.76 55.09 55.03 54.18 53.71 53.87 54.15 54.63 54.97 55.49 55.80 55.55 55.95 56.06 56.00 56.31 56.85 57.80 57.62 57.00 57.12 57.45 57.68 58.57 59.54 59.64 59.62 58.19 56.58 56.20
42.35 40.10 40.60 34.77 32.78 34.40 33.62 36.28 46.07 47.13 48.20 48.37 49.20 49.90 50.51 49.58 52.45 53.27 54.44 55.94 55.25 54.39 54.17 53.77 53.79 53.83 54.60 55.34 55.51 55.55 55.94 55.76 55.72 55.70 56.39 57.00 56.90 58.05 57.83 58.23 57.80 58.11 58.71 58.33 58.55 57.44 56.97 55.85 54.65

GFSSGP_sfc_wetblb_060.txt.gz
Wetbulb
61.46 62.68 62.58 58.09 49.29 49.02 46.49 46.04 49.39 48.64 50.84 56.60 58.75 57.06 56.55 58.39 54.86 52.38 67.31 68.78 69.84 70.48 72.39 71.34 71.08 72.14 72.62 72.42 72.43 72.34 72.37 72.38 72.04 72.14 72.14 72.19 72.06 71.77 71.31 70.69 70.25 70.34 70.65 69.53 68.60 68.07 68.50 68.35 67.72
61.71 59.65 59.13 55.53 46.81 43.71 45.74 48.09 47.20 50.09 52.11 57.30 58.20 58.15 57.59 55.67 61.25 63.75 65.94 68.75 68.60 71.03 72.03 71.11 70.89 71.50 72.44 72.26 72.07 72.10 72.42 72.16 71.92 72.03 71.91 71.69 71.40 71.16 70.60 69.89 69.42 69.61 69.75 68.55 68.23 67.81 67.50 67.33 67.48
59.07 58.23 53.83 51.11 47.38 44.09 45.87 48.11 49.74 50.81 53.45 56.17 55.68 59.61 58.81 57.57 60.98 63.85 66.78 67.77 67.47 70.70 70.95 70.79 70.15 70.55 71.70 71.96 71.87 71.63 71.62 71.32 71.37 71.29 71.30 71.08 70.82 70.55 70.03 69.13 68.62 69.07 69.01 67.48 67.50 67.74 67.23 66.76 66.81
56.78 56.11 54.47 47.98 45.34 47.32 47.59 49.98 50.98 50.95 54.92 56.95 57.43 55.35 60.50 63.25 62.76 65.72 67.53 67.93 69.34 67.90 70.07 69.81 69.57 70.02 71.14 71.71 71.65 71.41 70.95 70.58 70.58 70.31 70.76 70.94 70.64 70.35 69.64 68.67 68.93 69.46 69.22 67.27 67.03 66.99 66.73 66.38 65.95
58.59 55.09 47.92 46.37 46.02 47.98 50.17 50.87 51.41 50.72 54.12 55.62 56.85 53.85 56.17 62.26 64.80 65.64 66.79 67.70 68.47 67.53 71.56 70.60 68.39 68.88 70.18 71.39 71.42 70.99 70.43 70.06 69.87 69.89 69.92 70.22 70.20 70.10 69.20 68.79 68.76 69.03 68.32 67.64 66.63 66.25 65.99 65.96 65.49
52.59 53.75 45.62 43.98 45.89 48.23 50.44 51.97 51.72 52.72 54.61 56.56 56.03 55.81 56.94 63.30 63.53 65.54 66.66 67.46 69.14 68.51 68.14 69.89 68.77 68.56 69.43 70.24 70.29 69.85 69.61 69.41 69.30 69.44 69.57 69.75 69.58 69.11 69.21 69.07 68.82 68.76 67.81 67.12 66.74 66.31 65.69 65.17 64.78
51.22 48.68 45.19 45.64 45.65 47.13 49.56 55.06 53.06 53.03 54.19 54.79 57.94 54.06 58.72 61.33 64.16 66.21 66.95 67.75 68.44 68.68 67.21 67.69 67.19 66.91 67.18 67.34 68.36 67.63 68.80 68.67 68.63 68.71 68.92 68.80 68.42 68.39 68.54 68.44 68.72 68.47 67.18 66.69 66.29 65.83 65.29 64.53 63.89
52.68 49.99 45.47 46.47 45.46 46.24 50.24 53.17 54.33 53.72 52.92 59.77 59.52 54.05 55.53 62.17 64.88 66.38 66.66 66.02 67.23 67.31 65.90 66.92 66.32 66.46 65.59 65.37 66.17 67.14 67.41 67.75 67.82 68.27 68.08 67.38 67.49 67.71 67.28 67.28 67.94 68.00 66.91 66.34 65.75 65.32 64.86 63.87 63.57
53.66 46.78 44.80 45.50 46.40 47.72 50.87 51.33 55.27 57.42 55.25 58.22 60.02 59.76 61.53 62.83 64.11 64.53 64.80 64.08 64.63 66.60 66.60 67.42 65.62 65.81 64.96 64.87 65.47 67.58 67.71 67.23 67.16 67.79 67.14 66.41 67.89 67.13 66.16 66.23 66.90 67.09 65.57 65.12 65.17 64.70 64.07 63.44 63.16
49.75 46.50 46.36 48.45 49.88 48.60 50.62 51.11 52.00 53.00 53.13 55.61 57.63 61.25 62.24 62.51 62.43 62.48 62.56 62.68 62.09 62.96 63.42 65.43 64.28 64.51 63.93 63.92 63.44 65.05 65.90 66.59 66.93 67.03 68.06 67.60 67.99 66.59 64.65 66.39 66.42 65.93 64.86 64.68 64.69 64.01 63.12 62.57 62.16
49.30 46.48 49.03 48.77 50.47 50.95 50.81 51.11 52.90 52.41 51.27 53.84 55.08 58.18 61.03 61.49 61.53 60.98 62.18 62.33 61.91 63.51 62.57 63.73 64.23 63.51 64.14 63.36 63.55 62.94 64.10 63.57 64.18 64.81 66.51 67.26 66.57 65.16 65.38 67.02 66.83 66.57 64.21 64.00 63.71 62.83 63.17 62.79 61.89
46.67 49.33 49.46 49.70 50.51 50.26 50.53 52.73 52.24 53.67 54.28 58.08 58.11 59.57 60.95 60.31 59.73 60.20 60.75 61.48 61.55 61.72 63.66 62.33 64.78 63.29 63.59 63.64 62.43 62.43 62.01 62.75 62.67 62.57 64.68 65.13 63.61 63.85 64.98 65.53 65.75 65.12 64.67 63.99 63.72 63.61 64.31 63.38 61.68
47.48 48.57 49.92 51.00 50.73 50.36 52.17 51.72 52.41 53.50 57.14 58.89 59.08 59.45 59.95 59.32 59.19 59.71 60.82 61.18 60.90 60.74 60.68 61.42 61.91 62.21 61.87 60.72 60.29 60.66 60.88 62.15 62.18 62.00 63.96 64.34 63.85 62.64 63.06 64.12 64.77 64.92 65.22 64.92 63.98 63.98 63.55 62.55 61.77
48.88 49.40 49.36 50.20 50.76 51.46 50.12 51.00 53.31 53.61 57.34 58.34 58.52 58.84 59.45 59.00 59.02 59.33 59.32 59.11 59.81 61.09 61.31 60.63 60.32 61.37 61.72 60.65 60.33 59.78 60.96 61.70 61.64 61.88 63.66 63.80 62.76 62.53 62.10 62.36 62.14 63.00 64.22 64.64 63.72 62.96 62.31 61.89 61.57
49.21 46.60 48.76 49.72 50.40 49.80 51.87 48.83 51.44 55.19 57.83 57.42 58.30 58.94 59.20 59.02 59.00 57.82 58.95 59.12 59.16 61.33 61.94 60.30 60.21 61.01 61.49 60.43 59.85 60.36 60.47 61.29 60.82 60.86 63.75 63.01 62.44 62.88 62.83 61.24 61.42 61.95 62.83 62.84 62.62 62.37 62.21 61.43 60.93
46.48 47.13 43.53 48.57 49.41 50.26 51.74 44.91 50.89 54.68 56.70 56.43 57.79 58.35 58.74 58.99 58.55 58.34 58.00 58.48 60.54 60.67 60.27 61.36 60.02 59.95 61.52 61.00 59.82 60.23 60.08 60.44 61.20 61.55 62.66 61.93 61.34 61.49 61.50 60.46 61.08 61.31 61.36 61.24 61.11 60.96 60.50 59.93 59.65
46.05 41.78 43.45 45.74 49.78 49.97 51.01 47.14 51.67 55.24 55.28 54.72 57.02 58.08 58.16 58.49 58.85 58.83 59.16 59.43 59.26 59.65 60.64 60.11 60.04 58.66 58.08 57.96 59.19 59.69 59.33 59.60 60.40 61.96 62.32 62.36 61.13 61.32 60.97 60.35 61.65 61.98 60.78 60.27 60.07 59.55 59.21 57.77 57.70
41.90 42.46 44.12 43.94 47.33 48.55 48.51 48.33 51.17 53.83 54.84 55.09 56.14 57.75 58.40 58.01 58.26 58.60 58.93 59.60 60.33 61.37 58.93 60.17 59.40 58.81 58.97 58.06 59.04 59.79 59.15 58.86 59.87 60.09 62.00 61.70 61.45 62.19 61.51 60.72 61.73 62.14 61.04 60.71 60.37 59.44 58.71 57.92 57.09
45.19 43.65 42.94 45.35 47.12 46.08 46.45 47.17 49.46 51.87 52.85 54.66 56.39 57.19 58.08 58.51 59.55 59.04 59.07 60.26 60.50 59.97 59.76 57.92 58.26 58.19 58.46 56.99 57.09 57.83 57.75 57.81 58.67 59.17 60.71 61.87 61.94 62.45 62.28 61.81 62.05 62.42 61.68 61.49 61.18 59.91 58.86 57.52 57.59
44.07 42.51 42.84 45.34 46.79 45.47 45.26 45.58 49.34 51.48 51.86 53.69 55.78 57.09 57.91 58.84 58.48 58.03 58.58 59.42 59.18 59.72 59.68 57.96 57.55 58.00 57.77 58.81 57.51 58.38 59.49 59.48 58.92 58.82 59.24 61.37 62.65 62.16 61.68 61.42 61.49 61.59 61.67 61.77 61.14 60.22 59.20 58.65 57.40
43.43 42.09 42.80 42.66 44.87 46.13 44.95 44.01 47.28 50.54 52.41 53.42 55.14 57.26 58.41 58.95 58.25 57.98 57.88 58.49 59.11 58.13 57.22 59.78 59.45 57.89 57.81 58.18 59.04 58.42 58.57 57.13 57.94 58.23 57.75 59.41 62.64 63.04 61.75 61.15 62.38 62.06 61.70 61.13 61.39 60.96 59.85 58.02 58.53
40.58 45.32 44.29 43.65 42.69 38.57 45.28 38.06 45.80 48.53 49.61 51.16 52.62 55.84 57.23 58.88 59.36 58.90 58.40 58.34 58.53 59.25 59.34 59.78 59.58 59.52 58.97 59.20 57.88 58.09 55.45 55.73 56.30 58.63 59.16 60.55 61.83 62.14 61.96 60.99 62.50 62.59 62.39 61.39 62.10 61.92 60.81 60.84 58.65
42.59 46.03 44.51 44.42 42.95 42.16 41.40 39.96 43.91 47.74 46.91 49.39 51.57 53.57 56.97 58.52 59.27 58.73 58.72 58.84 59.05 59.61 58.91 58.39 59.36 59.18 58.30 58.60 58.61 57.23 56.24 55.96 56.68 57.64 59.24 60.60 60.37 61.39 61.43 61.27 62.67 62.70 62.67 62.42 62.42 61.51 60.23 60.74 59.87
46.67 44.29 44.17 44.29 42.87 36.31 40.88 41.23 42.07 45.20 47.43 48.37 50.52 52.56 55.39 57.52 58.89 59.46 59.61 59.41 58.83 59.58 59.62 58.08 57.56 58.12 57.98 58.01 58.45 57.82 57.13 55.96 55.65 56.52 56.47 56.96 58.83 60.25 61.06 61.49 62.56 62.62 61.53 60.27 58.27 60.59 61.67 61.60 60.92
45.12 42.28 36.47 34.31 35.30 34.53 43.02 41.23 43.34 48.13 50.31 50.80 50.94 52.68 55.60 57.71 58.45 58.96 58.72 58.30 58.80 58.32 58.76 58.37 56.52 56.59 58.26 57.89 58.19 58.78 59.39 58.21 55.46 55.65 56.53 57.41 58.86 59.10 59.23 60.44 61.43 60.57 60.19 59.56 59.04 60.74 62.36 62.44 61.26
42.50 42.56 37.87 30.56 32.94 37.64 43.08 38.40 43.96 49.60 51.74 52.89 53.50 54.38 55.35 57.08 58.42 59.11 59.21 59.05 59.13 58.42 58.53 58.19 57.96 56.70 57.09 58.03 57.91 59.13 60.30 59.43 56.02 56.81 57.01 56.76 57.06 58.63 58.22 57.60 60.52 60.53 59.14 59.62 62.08 61.30 61.00 61.53 61.51
42.44 39.51 44.74 38.83 40.19 38.06 41.31 43.91 48.13 49.87 50.17 51.53 52.01 53.12 54.26 55.65 58.12 59.03 59.81 59.76 59.62 58.84 58.29 58.00 58.25 59.06 58.75 58.06 58.47 58.55 60.16 60.03 59.74 59.14 58.04 57.92 59.50 57.45 56.97 57.33 58.36 60.20 60.70 60.57 60.99 61.29 60.73 61.63 61.75
45.48 47.07 38.29 39.97 31.81 31.00 38.03 39.61 41.86 45.83 48.18 49.65 51.28 52.53 53.45 55.87 57.71 59.04 60.03 59.91 60.20 59.91 59.07 58.68 58.89 58.86 59.96 60.01 60.27 60.25 60.70 60.53 60.82 61.26 60.43 60.12 61.19 60.90 59.68 58.90 59.09 59.71 60.11 60.38 60.38 60.93 61.36 61.34 61.92
42.68 41.62 42.96 43.06 40.34 34.51 33.57 38.97 47.69 47.81 49.89 50.56 52.11 53.57 54.60 54.58 57.76 59.18 59.93 60.36 60.69 60.80 59.92 58.93 58.55 58.68 59.40 59.93 60.10 60.07 60.01 60.47 60.86 60.43 61.21 61.20 61.82 61.36 60.75 60.52 60.08 59.62 59.91 60.74 60.91 60.83 60.69 60.47 61.34
45.65 43.17 43.26 37.59 36.65 39.70 39.29 39.98 49.07 49.80 50.74 51.87 52.93 53.72 55.49 55.53 56.01 58.70 60.03 60.52 59.86 60.18 60.08 59.39 58.99 58.75 59.09 59.86 60.03 59.80 60.20 60.08 59.76 60.01 60.18 61.99 61.26 61.82 61.49 61.05 60.89 60.49 60.71 61.57 61.04 60.93 60.06 60.38 60.61

GFSSGP_sfc_wetblb_063.txt.gz
Wetbulb
61.34 62.24 62.99 58.94 50.23 49.53 47.43 48.22 50.82 49.57 50.68 56.34 58.10 56.25 56.46 56.80 54.14 52.45 68.69 70.02 71.10 72.03 72.84 71.73 71.40 72.61 73.06 72.62 72.30 72.32 72.53 72.50 72.14 72.15 72.02 72.46 71.92 71.88 71.75 71.09 70.90 71.14 71.13 70.24 70.24 69.79 69.54 68.89 68.34
61.78 60.88 59.97 56.01 46.93 45.70 47.83 50.36 48.37 50.67 52.71 57.12 57.62 57.04 55.90 54.93 61.04 62.32 66.77 69.84 70.45 71.86 71.90 71.97 70.86 71.92 72.08 72.28 71.91 72.25 72.60 72.38 72.09 72.24 72.34 72.22 72.20 71.60 70.97 70.50 70.43 70.60 70.47 69.17 69.42 69.29 68.38 67.53 67.82
62.38 59.63 54.65 51.02 48.51 45.73 47.04 49.86 50.22 51.64 53.69 54.61 54.26 57.78 56.97 56.53 62.25 64.19 68.47 69.33 70.16 71.58 71.84 71.03 70.38 70.93 71.67 71.59 71.89 71.80 71.90 71.49 71.56 71.81 72.34 72.22 71.75 71.34 70.58 70.01 69.92 70.06 69.87 68.26 68.43 68.57 67.60 66.88 66.92
57.64 56.01 54.75 48.16 46.94 49.79 49.05 50.66 51.67 51.44 53.64 55.30 55.55 53.47 60.27 64.81 63.61 67.08 68.55 68.92 69.27 71.10 72.03 69.26 69.61 70.20 71.12 71.31 71.55 70.95 71.22 70.68 71.00 71.23 71.68 71.70 71.31 70.77 70.06 69.33 69.53 69.64 69.25 68.32 67.32 67.43 66.58 66.61 66.13
57.30 55.14 49.45 48.05 48.15 50.22 51.52 51.82 52.17 51.24 52.47 54.84 55.63 53.40 55.63 64.43 65.83 66.66 67.42 68.64 68.57 70.63 72.31 69.93 68.52 69.52 70.72 71.14 70.51 70.61 70.47 70.38 70.49 70.61 70.62 70.59 70.50 69.84 69.01 68.55 68.41 68.67 68.40 68.23 67.26 66.48 66.09 66.06 65.61
52.53 53.23 47.31 45.80 47.86 50.38 51.46 52.75 52.34 51.72 52.92 55.06 55.34 55.31 56.81 65.41 64.27 66.51 67.48 67.61 69.24 69.48 70.38 71.31 69.45 68.59 68.76 69.06 69.27 68.84 69.53 69.84 69.85 69.77 69.78 69.87 69.34 68.76 68.64 68.69 68.14 67.72 67.35 67.21 66.94 66.44 66.00 65.66 65.30
51.57 50.68 47.37 47.50 47.76 48.47 50.56 54.55 52.19 52.50 53.01 53.17 57.32 53.89 58.39 63.29 65.37 66.69 67.72 68.80 68.62 69.12 69.09 70.16 70.63 67.20 65.85 65.19 66.02 67.26 68.69 69.08 69.15 69.16 68.93 68.94 68.28 68.18 68.53 68.47 68.02 67.37 67.06 66.85 66.41 65.90 65.55 65.09 64.44
53.28 51.17 47.71 48.26 46.93 47.50 52.27 53.29 54.00 52.96 52.40 59.27 58.10 53.13 54.84 64.49 66.42 67.25 67.51 67.56 67.55 68.09 67.42 68.26 68.43 66.45 66.51 65.47 65.24 65.54 66.90 67.88 68.35 68.62 68.33 67.84 67.96 68.49 68.36 67.64 67.41 67.21 66.81 66.46 65.95 65.29 65.09 64.20 63.73
54.90 47.78 46.00 47.34 47.94 49.15 52.37 50.73 54.30 56.09 54.38 55.45 58.57 59.37 62.45 64.92 65.20 65.59 65.88 65.51 66.71 67.14 67.50 68.30 66.62 65.95 65.11 65.58 64.77 65.24 66.23 67.57 67.56 68.10 67.36 66.93 68.16 68.25 68.08 66.81 66.64 66.15 65.57 65.45 65.12 64.73 64.21 63.64 63.22
50.54 47.26 47.32 51.22 50.99 50.00 51.51 51.93 52.23 52.82 52.87 54.06 56.50 60.41 63.05 63.78 63.54 63.02 63.09 63.44 64.30 63.72 66.83 66.85 66.52 66.26 66.05 65.59 65.34 65.09 64.97 66.61 67.69 69.05 68.61 67.59 68.29 68.50 66.86 66.62 65.49 65.11 64.67 64.69 64.52 63.82 63.09 62.57 61.31
50.74 46.85 50.46 51.26 50.84 51.91 51.52 51.47 53.39 51.88 50.82 53.89 54.96 56.45 60.22 62.80 62.89 62.36 62.50 63.13 63.61 64.47 64.48 66.26 66.12 67.02 65.98 64.34 64.58 65.42 63.65 66.07 68.07 67.50 67.76 67.31 68.19 67.72 66.50 67.38 65.60 64.50 64.04 63.00 62.79 62.07 61.34 61.26 60.66
47.88 50.43 50.66 51.23 51.61 50.57 50.47 52.59 51.84 53.12 53.81 56.37 58.41 59.70 59.87 61.55 61.66 61.56 61.70 61.99 63.19 63.07 62.17 65.44 65.53 65.32 64.79 65.05 62.63 63.29 62.99 63.43 65.06 65.52 64.93 64.62 65.56 65.35 66.16 65.70 65.01 63.67 63.24 62.79 61.88 61.85 63.87 62.19 61.67
48.84 49.75 50.93 51.52 51.03 51.26 51.99 50.89 51.77 52.47 55.24 57.53 59.25 60.13 60.30 61.45 61.18 61.75 61.85 62.60 62.90 62.03 62.23 62.93 64.85 64.16 64.60 64.38 64.06 63.62 62.83 62.07 62.37 63.10 63.44 63.50 63.85 65.45 65.45 65.59 65.28 63.76 64.60 63.74 62.72 63.46 62.29 61.85 62.02
50.62 50.19 50.44 50.93 50.94 51.54 49.84 50.74 51.72 53.66 56.27 56.40 58.97 59.49 60.71 61.15 60.84 61.58 61.03 61.41 61.62 62.36 62.39 63.33 62.60 63.86 63.78 62.91 63.27 63.42 62.65 62.48 62.19 61.22 62.21 62.42 63.72 63.81 64.63 64.77 65.00 64.32 65.04 64.52 63.52 63.18 62.38 61.56 61.66
50.55 47.46 49.21 49.89 50.52 49.70 51.76 48.52 49.65 53.38 55.63 56.21 58.55 59.76 60.74 61.04 61.33 61.01 60.75 61.67 61.76 62.84 62.66 61.45 62.11 61.91 61.85 60.96 60.37 60.90 61.44 61.71 60.95 61.28 61.93 61.52 62.82 63.91 64.49 64.57 65.16 64.94 65.31 65.37 64.23 63.21 62.62 60.98 61.06
47.54 47.83 44.22 49.31 50.19 50.84 50.52 45.28 51.06 54.23 56.02 55.66 57.57 59.19 60.09 61.24 61.47 61.60 61.02 61.99 62.21 62.83 61.39 61.44 61.52 60.86 61.98 61.49 60.83 60.44 60.75 61.35 60.90 61.08 61.35 60.15 62.49 62.89 63.40 63.06 63.32 63.88 64.46 63.73 62.44 61.75 60.96 60.56 60.19
47.34 42.74 44.50 46.65 51.15 50.27 49.39 47.24 51.50 55.44 55.07 55.05 56.57 58.56 59.51 60.33 61.44 61.78 61.08 61.93 62.95 62.70 63.52 61.52 60.82 60.74 61.05 61.45 61.09 60.90 60.15 59.70 59.71 60.26 60.80 61.36 62.64 62.38 62.67 62.24 63.08 63.81 62.85 62.82 62.26 62.06 61.63 60.06 59.53
42.47 43.78 45.69 45.70 49.10 49.26 48.36 48.90 51.39 54.50 54.84 54.83 55.80 57.19 58.94 59.67 60.39 61.54 60.77 61.87 62.94 62.85 62.53 61.59 60.89 60.41 59.60 60.31 59.79 60.60 59.64 59.44 59.61 60.07 61.03 61.96 61.07 61.48 61.48 61.85 62.69 61.70 60.44 59.91 61.19 61.54 60.96 60.07 59.09
45.97 46.09 45.38 47.83 49.79 48.02 47.48 47.89 50.86 52.65 53.35 53.90 55.59 56.45 58.25 59.84 61.60 61.85 60.89 61.57 62.38 62.68 61.79 60.49 59.91 58.94 57.36 58.22 58.55 58.07 57.75 58.19 58.98 59.84 60.29 61.93 59.76 61.35 61.77 61.44 61.84 62.11 59.94 59.93 62.17 60.53 59.73 57.98 59.03
45.61 44.61 44.53 47.32 48.48 46.91 46.76 46.34 49.71 51.34 51.85 53.57 54.34 55.97 57.56 59.41 60.70 60.60 60.29 61.16 61.98 61.94 60.44 59.58 59.07 58.20 57.38 57.37 58.51 59.07 58.24 58.04 58.14 59.48 59.86 61.61 61.26 62.15 62.61 62.30 61.50 61.43 61.61 62.33 61.71 61.34 59.00 58.64 58.66
45.40 44.28 44.57 44.52 47.48 47.76 46.48 44.29 46.66 50.06 52.07 53.25 54.25 55.48 57.02 58.66 59.93 60.12 59.63 60.34 61.41 61.54 60.32 60.10 59.08 58.39 58.02 57.13 58.19 58.92 58.63 58.02 56.76 58.04 58.25 59.30 60.37 61.99 62.37 62.95 62.61 62.23 63.12 61.73 62.13 62.66 61.61 58.55 58.94
42.35 47.20 46.13 45.14 44.21 40.91 47.85 39.19 45.87 48.43 49.74 51.70 53.28 54.50 55.78 57.33 60.23 61.18 60.28 60.01 60.69 61.12 61.71 61.94 60.62 58.93 58.53 58.60 57.60 57.30 57.45 56.36 57.49 56.94 58.69 58.55 58.64 61.82 61.80 60.35 60.81 62.65 62.22 62.32 62.61 62.62 62.10 61.61 58.77
44.30 47.65 46.11 45.33 44.10 44.09 44.04 41.01 44.26 48.58 48.16 50.32 52.28 53.93 55.66 57.72 59.79 60.70 60.88 60.83 61.07 61.62 61.21 60.90 60.43 60.00 59.30 59.60 58.00 57.51 56.77 58.14 58.47 57.86 57.72 57.56 57.74 59.81 59.68 60.87 59.91 60.66 62.89 62.60 62.96 62.82 62.31 62.23 60.16
47.72 45.98 45.77 45.61 44.37 38.43 43.04 42.05 42.90 46.61 48.33 50.58 50.99 53.16 54.44 57.43 58.89 60.98 61.99 61.99 60.95 61.53 61.58 61.35 59.26 59.07 59.86 59.04 58.36 57.69 56.35 57.77 56.65 57.81 57.27 57.10 58.09 59.18 61.23 61.21 60.38 59.84 60.74 61.24 62.02 62.16 62.70 61.76 61.46
45.18 43.20 36.99 36.02 36.88 35.58 44.64 42.93 44.16 48.77 50.32 51.39 51.82 52.34 54.94 56.85 58.61 60.18 60.88 60.92 60.50 60.27 60.98 60.55 59.85 58.44 59.09 58.80 58.74 58.50 58.28 57.90 57.32 57.52 56.90 56.34 56.62 58.79 61.05 61.56 61.51 61.24 60.81 60.01 61.59 62.23 62.34 62.33 61.42
43.35 42.79 37.86 31.58 34.30 38.53 44.73 39.90 45.21 51.17 52.14 52.40 52.80 53.64 54.97 57.27 58.77 60.00 60.99 61.30 60.87 60.23 60.72 60.73 59.50 59.48 58.67 58.60 58.31 58.78 59.03 59.40 58.50 57.30 57.33 57.18 58.02 59.72 61.08 61.97 61.91 61.52 60.79 59.47 61.02 61.04 60.87 61.38 61.50
43.02 40.64 44.93 39.62 41.98 39.12 42.26 45.12 49.39 51.03 50.79 51.82 52.58 53.32 53.98 55.41 57.93 59.56 60.94 61.71 61.41 60.75 60.48 60.70 59.76 59.83 59.74 58.92 58.43 58.46 59.11 58.96 58.72 59.61 58.98 57.03 59.64 60.61 61.08 61.19 61.23 61.38 61.40 61.62 61.03 59.49 58.38 60.19 59.16
44.06 47.12 39.23 41.02 32.30 31.62 39.26 41.60 43.52 46.65 48.45 50.70 51.34 53.04 54.40 55.95 56.54 59.53 60.69 61.65 62.03 61.88 61.26 61.18 60.75 60.37 60.48 60.38 59.77 59.07 59.48 60.81 59.73 60.02 59.55 59.21 59.43 61.59 61.29 61.54 60.87 60.53 59.56 59.31 60.77 59.68 59.57 59.58 60.58
41.78 41.52 43.39 42.92 40.64 34.53 33.93 39.76 49.36 47.70 50.32 50.95 52.85 53.82 55.00 55.80 57.56 59.24 60.73 61.82 62.55 62.76 61.76 60.98 60.45 60.31 60.79 60.86 60.11 59.61 59.37 61.18 60.62 60.59 61.66 61.22 61.45 61.40 61.21 60.07 60.00 60.11 59.90 59.87 59.08 60.61 60.91 60.08 60.45
45.61 43.13 43.99 38.40 36.28 40.72 39.91 39.91 49.93 49.77 50.08 52.00 52.25 53.85 55.62 56.14 56.76 59.78 61.02 61.80 62.02 62.19 62.10 61.22 60.75 60.07 60.63 61.71 61.31 61.15 61.52 61.64 61.07 61.83 62.24 63.27 62.07 62.10 62.19 62.07 60.65 60.22 60.32 60.53 59.87 59.67 60.22 60.17 59.75

GFSSGP_sfc_wetblb_069.txt.gz
Wetbulb
58.92 55.94 52.95 52.24 41.82 38.38 35.55 40.94 45.59 44.41 48.79 51.88 53.51 53.02 50.65 51.55 52.92 50.57 64.96 68.27 70.68 69.25 71.07 72.26 72.35 72.14 72.54 72.70 72.61 72.49 72.02 72.58 72.77 72.64 72.20 71.80 71.68 71.68 71.17 71.27 71.93 72.06 72.24 71.64 69.93 69.98 70.20 70.54 70.57
55.36 55.21 51.68 47.83 37.69 32.78 36.99 44.46 44.86 48.28 51.73 53.72 53.31 51.88 50.97 54.51 61.64 64.03 64.11 67.98 69.36 69.75 69.98 71.29 72.48 72.20 72.23 72.31 72.21 72.37 72.38 72.41 72.52 72.37 72.06 71.77 71.89 72.04 71.78 71.44 71.28 71.66 71.40 71.12 70.40 70.18 69.80 70.15 69.69
57.02 56.21 46.70 41.41 36.93 35.29 37.53 43.58 44.62 48.63 50.99 50.79 50.74 52.95 53.43 56.46 60.54 63.88 66.25 67.86 68.47 68.54 69.76 70.25 71.46 71.85 72.15 72.06 71.94 72.02 72.02 71.80 72.02 71.90 71.99 71.97 72.09 72.18 71.82 70.92 70.54 71.05 71.20 70.59 70.17 69.74 69.41 69.05 68.75
52.53 50.45 46.96 37.59 36.50 42.07 44.15 47.54 47.58 48.21 49.16 51.25 50.69 50.04 59.18 61.78 62.17 64.98 66.64 67.04 67.25 67.18 70.26 69.32 70.12 71.41 72.00 71.98 71.89 71.78 71.54 70.85 71.15 71.32 71.52 72.07 71.99 71.85 71.03 70.31 70.41 70.81 70.86 69.91 69.43 69.04 68.58 67.60 67.09
49.55 45.52 37.45 35.12 38.36 44.17 47.35 48.47 47.68 47.87 50.39 52.34 52.04 50.40 56.23 61.84 64.62 64.68 65.39 66.43 65.35 66.67 68.47 68.54 68.86 70.86 71.57 71.38 71.73 70.97 70.99 70.65 70.84 70.97 71.04 71.14 71.45 71.12 70.38 69.86 69.99 70.21 69.95 69.41 68.58 68.12 67.13 66.53 66.52
43.45 43.11 33.93 33.52 39.81 45.60 48.42 49.76 49.43 49.14 49.46 49.43 48.39 51.92 56.60 62.14 62.32 64.08 64.78 64.39 65.81 68.04 68.14 68.14 68.60 69.67 70.03 70.44 70.18 69.24 68.99 69.74 69.66 69.83 70.19 69.73 70.54 69.93 69.72 69.39 69.22 69.17 68.40 68.03 67.70 66.98 66.60 66.59 65.81
41.61 38.99 34.98 37.26 40.95 44.05 47.41 48.96 48.67 48.16 47.61 49.43 55.54 51.25 56.69 59.67 63.23 63.88 64.24 65.17 66.12 66.98 66.80 67.32 67.23 67.01 66.68 66.68 66.32 65.69 66.34 65.49 66.61 68.39 68.62 69.00 68.95 68.73 69.01 68.82 68.50 68.34 67.62 67.29 66.82 66.37 66.13 65.59 64.74
45.95 41.60 38.28 40.83 40.92 42.51 48.75 50.98 50.75 49.38 47.39 56.70 53.66 49.32 53.33 59.92 63.33 63.21 64.57 63.96 63.98 66.05 65.63 65.65 65.86 64.74 63.77 64.00 64.73 65.02 65.85 66.10 63.89 64.45 67.30 67.69 68.04 68.06 68.11 67.95 67.80 67.36 67.02 66.32 66.32 65.72 65.13 64.68 63.15
48.48 41.00 38.06 39.60 41.72 44.46 49.25 46.72 50.08 51.50 50.04 52.03 53.19 52.76 60.99 63.81 64.12 62.07 62.13 62.12 62.33 64.80 64.61 64.50 64.93 64.39 63.71 63.44 63.57 64.72 65.54 65.58 64.32 64.48 62.39 66.27 66.71 66.51 66.44 66.44 66.72 66.59 65.71 65.79 65.67 65.08 64.03 63.33 62.43
45.32 38.73 40.68 45.49 46.46 46.17 48.03 46.96 49.33 47.46 49.17 51.11 50.78 60.39 63.25 62.14 60.64 59.99 60.07 60.72 61.42 61.93 63.15 64.00 64.29 63.06 62.91 63.93 62.37 61.60 62.54 63.03 62.18 62.00 62.58 66.21 65.62 65.05 65.47 65.78 65.85 65.49 65.25 65.16 64.80 64.03 63.21 61.10 57.69
44.69 41.47 45.05 46.49 48.87 48.58 46.85 46.15 48.13 48.05 46.65 49.03 50.35 57.52 59.66 59.25 58.89 58.32 58.71 59.62 61.37 61.85 63.00 63.66 63.28 62.94 61.45 61.78 61.85 61.07 61.07 60.17 59.70 59.50 60.19 65.92 64.94 64.76 64.83 64.27 64.04 63.41 64.08 62.04 61.67 61.11 58.76 57.21 56.55
43.04 46.46 47.08 47.35 48.87 47.81 46.31 46.70 46.26 46.74 49.52 52.02 52.20 56.64 59.11 58.67 58.10 58.23 57.49 60.65 60.84 60.60 61.90 62.51 62.98 63.12 62.46 63.12 62.19 61.22 60.40 61.06 59.52 59.48 59.83 65.29 64.37 63.76 63.25 62.20 62.13 61.84 60.71 59.27 58.11 57.03 56.71 55.79 56.88
45.46 46.40 47.89 48.65 48.58 48.19 48.58 45.89 46.31 46.91 48.94 51.15 53.04 56.45 55.38 57.23 57.28 57.59 58.23 59.19 59.92 59.80 60.47 61.34 62.95 63.45 62.27 60.88 60.48 61.10 61.34 61.60 61.47 63.91 64.38 64.75 63.72 62.60 60.80 60.38 60.08 59.56 59.08 57.31 55.64 55.88 56.68 54.96 55.69
47.48 47.40 47.71 48.56 47.81 47.50 46.66 45.91 44.85 48.28 49.35 49.42 50.90 54.91 55.58 56.62 57.26 55.87 56.47 57.21 58.48 59.75 60.06 60.94 62.39 62.50 61.52 60.45 60.51 61.53 61.06 61.32 63.18 63.84 63.68 63.72 63.59 61.88 59.21 58.85 57.96 58.36 58.23 56.47 55.31 55.59 54.47 55.05 55.99
47.90 44.17 46.21 46.92 46.58 45.90 47.34 43.46 44.67 47.49 48.92 48.52 49.40 54.61 55.63 57.21 58.10 55.90 56.50 57.25 58.82 59.65 60.50 59.84 61.44 62.01 61.58 61.62 60.11 59.70 61.00 62.35 62.40 62.46 62.76 63.31 63.31 61.34 58.95 58.28 57.83 58.30 57.58 56.11 55.62 56.02 56.32 55.88 57.30
44.41 43.39 38.59 44.99 46.70 47.42 44.49 40.64 45.56 47.33 47.48 47.06 47.35 52.54 55.13 56.91 57.80 56.65 56.80 58.30 58.32 58.78 60.48 60.77 61.66 60.32 59.90 60.29 60.79 59.92 61.00 61.54 61.82 61.90 62.35 62.02 62.92 62.54 60.87 58.49 58.48 58.98 58.15 57.36 56.96 57.24 56.44 55.56 55.49
41.44 34.76 37.83 42.15 46.95 45.97 43.09 41.87 46.53 47.50 47.67 47.00 47.65 50.88 53.66 56.23 56.54 56.56 57.24 58.40 58.16 59.50 60.13 59.75 59.99 60.04 59.93 58.36 60.44 59.73 60.31 60.90 61.19 61.36 61.72 61.38 61.50 62.69 61.76 59.99 59.60 59.75 58.66 58.37 57.93 58.01 56.29 55.32 54.79
35.28 36.97 37.68 39.02 43.87 45.32 43.12 42.89 46.64 48.09 47.35 49.25 49.23 49.88 52.25 55.87 57.04 57.19 57.10 58.85 58.42 59.85 59.43 58.97 60.08 59.99 59.22 59.49 59.84 60.13 60.69 59.67 59.86 60.47 60.95 60.77 60.32 61.20 61.35 61.09 60.43 60.74 59.22 58.43 58.52 57.86 55.60 55.39 55.91
41.75 40.54 38.87 40.88 45.19 43.72 43.68 44.20 43.98 48.05 46.36 47.16 48.17 48.92 49.19 55.10 58.16 57.16 57.04 58.51 57.81 59.39 59.11 59.54 59.58 59.42 59.15 58.60 57.96 57.60 57.16 59.37 59.12 59.90 60.29 59.95 59.84 60.07 60.39 59.95 59.99 58.90 59.74 57.90 57.84 56.88 55.68 54.09 54.91
41.38 39.38 38.50 42.70 45.87 44.76 43.91 43.74 44.05 46.32 45.68 46.75 48.75 48.39 49.45 53.55 56.64 56.03 56.05 56.78 58.11 58.52 58.85 59.29 58.83 58.64 58.56 58.44 58.35 57.90 57.61 58.98 59.27 59.43 59.40 59.46 59.73 59.12 59.00 59.64 59.22 57.38 59.15 57.90 56.53 54.93 53.11 54.20 54.15
39.17 39.30 39.34 40.13 43.92 44.76 43.33 41.16 41.78 46.85 47.43 47.56 49.00 51.19 52.01 53.91 55.22 54.99 55.72 55.81 57.49 57.61 58.46 58.32 58.04 58.14 58.30 58.54 58.39 57.83 57.20 57.06 56.92 57.24 57.79 57.93 59.13 58.76 58.42 59.17 58.93 58.14 58.34 57.34 55.85 54.52 53.28 52.44 52.77
35.93 43.94 43.49 41.94 39.99 33.81 43.59 33.66 40.19 44.53 46.09 47.34 46.63 46.73 51.07 52.21 56.21 55.30 55.40 55.35 57.07 57.73 58.27 58.51 57.64 57.50 57.90 58.58 57.65 56.60 55.35 54.41 55.83 56.14 57.00 57.36 57.68 57.45 57.21 58.22 57.95 57.77 58.20 56.31 55.58 56.60 54.61 54.56 51.63
38.92 44.73 42.15 41.45 38.46 37.80 39.14 34.33 37.97 44.16 43.47 45.42 46.58 46.32 48.35 50.36 55.88 54.93 54.91 56.03 57.06 58.03 57.58 57.50 57.07 57.22 57.41 57.95 57.31 56.28 54.98 55.61 55.62 56.22 55.79 56.75 56.83 56.79 57.06 57.22 57.38 56.72 57.02 56.81 57.18 56.82 56.44 56.32 54.48
44.14 42.13 42.05 41.33 38.37 30.48 37.98 35.77 35.01 40.38 44.35 46.63 47.81 48.40 49.72 49.02 56.16 56.01 56.02 56.96 56.85 58.00 57.29 57.06 56.71 56.68 57.05 57.63 57.45 56.43 55.09 54.72 53.60 54.50 55.69 56.28 56.23 56.55 57.54 56.51 58.31 58.24 57.05 57.47 57.24 57.41 57.18 56.94 56.78
41.70 37.73 32.01 30.28 28.92 28.00 40.33 37.34 38.94 44.62 48.11 48.88 47.99 47.47 48.55 50.22 55.95 55.59 55.03 55.60 56.21 56.67 56.70 56.46 55.90 55.62 56.79 56.73 57.01 56.32 55.56 54.92 53.65 53.83 54.91 55.38 55.53 55.88 56.10 57.62 57.01 57.16 57.57 57.62 57.48 57.43 56.68 56.78 56.63
38.14 37.29 32.14 26.98 27.91 31.85 41.11 33.88 39.46 47.21 49.48 50.86 48.86 48.59 50.02 50.75 56.01 55.95 55.80 55.78 56.19 56.73 56.55 56.94 56.00 55.60 56.87 56.69 56.24 57.11 56.96 55.97 55.41 54.62 55.24 56.12 56.09 56.18 56.52 57.00 58.35 58.04 56.79 57.07 57.68 57.48 56.95 57.19 57.23
37.97 34.26 40.16 33.16 34.91 31.27 35.88 40.80 45.13 47.42 48.07 48.40 48.61 49.03 47.58 49.52 52.01 56.11 56.51 56.45 56.31 56.52 56.33 56.20 56.85 56.37 56.86 56.81 57.07 56.79 56.87 56.55 55.94 55.65 55.18 56.10 56.61 56.63 56.00 56.16 57.86 58.18 57.71 56.64 56.84 56.53 56.65 57.03 57.00
40.91 42.51 33.05 33.56 28.13 26.91 34.29 37.49 37.69 43.72 46.08 47.91 47.58 47.32 48.58 49.84 50.30 54.86 56.88 56.58 56.76 57.56 57.27 56.67 57.19 56.90 57.23 56.96 57.63 57.14 57.03 56.92 56.98 57.11 55.97 55.41 55.75 56.79 56.39 55.85 57.19 57.79 58.13 57.94 57.35 56.77 56.59 56.00 56.13
38.39 36.68 37.48 37.38 35.42 30.13 29.85 35.02 45.48 44.27 46.49 47.91 49.03 49.60 49.52 50.20 51.17 52.00 56.94 57.27 56.86 57.33 57.25 56.62 56.23 56.27 56.83 57.29 57.46 57.28 57.29 56.98 57.06 56.88 57.29 56.98 55.98 56.17 56.44 56.19 56.93 57.72 57.45 58.02 57.79 57.36 56.73 55.87 55.37
41.80 39.08 38.34 33.04 33.05 35.51 31.67 33.83 47.45 45.84 46.87 47.89 48.22 49.69 50.73 51.71 52.58 52.85 56.86 56.98 56.20 56.53 57.14 56.87 56.64 56.26 56.81 57.17 56.94 56.50 57.54 57.79 57.36 57.03 57.07 57.36 57.09 57.19 56.40 56.19 56.00 56.75 57.19 56.94 56.77 56.53 57.16 55.87 54.78

GFSSGP_sfc_wetblb_072.txt.gz
Wetbulb
59.36 53.46 51.56 51.10 41.12 36.09 33.05 38.35 43.35 44.03 46.57 50.19 52.21 51.61 50.04 51.15 50.70 46.45 63.73 68.98 69.67 70.29 71.75 71.56 71.71 72.25 72.39 72.64 72.30 72.00 72.81 72.79 72.78 72.46 72.11 72.12 71.85 71.73 71.40 70.91 71.29 71.90 72.17 71.56 71.07 71.13 71.14 70.67 70.67
53.88 53.74 50.02 44.91 36.24 30.18 33.97 41.20 42.77 45.72 51.13 51.82 51.58 51.16 50.38 54.17 62.54 62.96 63.71 69.30 69.27 70.03 71.27 71.62 71.52 71.95 72.24 72.20 72.33 71.80 72.62 72.78 72.45 72.11 71.82 71.80 71.73 71.39 71.88 71.47 70.94 71.46 71.95 71.08 70.80 71.14 70.62 70.52 69.94
54.60 54.56 45.67 40.27 33.83 31.96 35.37 42.52 45.89 47.57 50.53 49.94 49.74 51.35 55.07 55.82 63.36 63.69 65.19 68.96 69.04 68.77 70.35 71.56 71.16 71.38 72.03 71.94 72.07 71.67 71.96 72.05 71.91 71.64 71.81 71.88 71.56 72.09 72.08 71.49 71.17 71.29 70.92 70.51 70.24 70.61 70.14 69.67 68.92
50.40 48.74 45.66 36.42 34.54 38.84 41.30 43.91 46.69 46.02 48.51 48.88 49.55 53.20 57.49 60.63 63.15 64.95 66.44 67.71 67.67 68.07 69.27 70.09 70.71 71.08 71.90 71.96 71.94 71.51 71.41 71.22 71.28 71.23 71.50 71.95 72.02 72.09 71.61 70.72 70.85 71.16 71.09 70.67 70.37 70.10 69.90 68.89 68.08
47.10 42.67 36.24 32.44 35.47 40.85 44.21 45.53 46.30 46.57 47.92 50.40 50.54 49.39 54.84 61.52 64.71 65.46 64.89 66.88 65.28 66.65 68.38 69.10 69.91 70.88 71.68 71.94 72.00 71.34 71.02 70.85 70.95 71.09 71.01 71.51 71.69 71.56 70.78 70.30 70.26 70.28 70.28 70.28 69.86 69.48 68.50 67.77 66.93
42.19 40.60 31.66 31.34 36.26 42.72 44.32 46.44 47.69 48.16 50.43 50.22 47.97 54.12 55.30 61.92 62.40 63.52 64.47 64.23 66.88 66.51 67.01 68.01 70.07 70.71 70.88 71.03 70.57 70.01 70.12 70.63 70.28 70.46 70.90 70.96 70.59 70.31 70.24 70.04 69.54 69.56 69.15 68.77 68.68 67.73 67.23 66.20 65.60
41.07 35.82 31.85 32.96 36.74 40.58 44.67 47.25 47.76 47.07 46.85 49.88 53.17 50.56 55.77 58.55 62.15 63.31 63.26 65.04 66.51 66.89 66.58 66.54 66.72 67.36 67.36 68.08 67.63 67.56 68.31 68.85 68.30 67.47 68.48 67.73 68.46 68.57 69.46 69.58 69.32 68.91 68.36 68.30 67.58 67.02 66.13 65.68 64.86
43.00 38.96 34.34 35.51 37.85 38.91 45.87 47.92 49.11 46.83 45.63 54.69 52.85 50.99 52.95 57.83 62.55 62.76 64.34 63.91 64.56 64.94 64.73 65.15 64.97 63.69 63.38 64.27 66.22 66.35 67.34 66.29 65.93 66.38 64.52 65.22 67.02 67.74 68.36 68.63 68.42 68.10 67.62 67.39 67.16 66.09 65.49 64.58 64.49
45.53 36.16 32.57 35.94 39.19 42.01 47.09 44.20 48.36 50.80 51.29 51.63 52.23 53.39 57.94 62.00 62.18 62.34 61.21 60.37 62.43 63.88 63.50 63.95 63.49 64.05 63.47 63.67 65.27 66.36 66.69 66.40 66.06 65.75 64.00 64.56 65.57 66.71 67.09 66.92 67.09 66.93 66.16 66.31 66.22 65.30 64.38 63.70 63.86
42.52 37.50 38.25 43.11 43.68 43.88 46.18 43.57 46.15 47.22 47.16 49.27 51.98 60.16 61.26 61.81 60.77 60.95 60.21 59.75 60.02 61.33 61.91 62.84 62.63 62.41 63.72 63.75 64.19 63.52 64.52 63.84 63.18 62.29 63.55 61.61 60.60 66.07 65.52 65.88 65.95 65.73 65.49 65.51 65.19 64.41 63.54 61.05 59.95
41.70 41.11 43.36 44.45 46.58 46.26 44.10 44.92 48.26 46.27 45.23 48.52 50.52 57.85 60.02 60.58 59.75 59.54 60.39 60.53 60.62 61.45 61.83 62.28 61.68 61.66 63.14 61.92 62.22 61.46 60.72 61.77 60.83 61.75 61.97 60.41 61.81 65.19 65.16 64.47 64.12 63.63 64.45 62.84 61.95 61.42 58.34 56.41 56.04
40.66 44.84 45.71 46.40 46.79 45.90 45.08 47.18 45.31 45.02 47.65 50.61 53.01 60.08 59.67 58.47 58.00 58.06 56.72 59.66 60.13 61.19 61.65 61.83 61.65 61.43 59.95 60.82 61.20 59.92 60.49 59.71 59.97 60.54 61.67 60.83 62.93 64.40 63.83 63.06 62.43 62.38 61.71 59.82 59.10 57.13 55.36 55.34 56.28
42.81 45.24 47.49 48.17 47.32 46.97 47.50 45.56 45.79 46.19 48.29 49.39 54.36 58.79 58.12 57.19 56.64 56.57 59.92 60.98 60.46 59.80 60.26 61.13 61.36 62.55 62.28 61.99 60.16 59.44 59.09 59.39 59.32 59.63 60.83 64.22 64.00 63.24 62.89 62.12 61.43 60.77 60.08 58.85 56.69 55.28 54.34 54.76 56.75
44.77 45.87 46.65 47.45 46.55 46.92 45.47 45.14 43.46 47.15 47.86 47.30 53.06 55.85 56.60 56.52 55.62 56.57 58.92 59.23 59.24 59.50 59.30 59.98 61.33 62.34 61.50 59.61 59.53 60.79 60.79 61.38 59.92 59.66 60.18 63.51 63.72 62.37 61.49 60.84 59.53 58.61 57.71 57.58 56.83 54.71 53.25 53.61 55.49
46.00 41.59 44.04 44.74 44.62 44.45 45.52 42.41 42.67 47.74 46.71 46.85 47.02 52.38 53.52 56.69 55.43 57.04 58.00 58.40 58.91 59.47 59.33 59.51 59.91 61.90 60.79 59.06 59.35 60.78 59.78 62.06 61.73 61.41 61.26 63.71 62.80 61.00 60.05 58.46 57.47 57.46 56.17 54.39 53.76 54.15 52.64 53.09 55.64
42.20 41.33 36.91 43.25 44.57 46.01 43.29 38.94 45.17 47.25 45.27 45.39 45.55 48.57 52.88 54.54 55.99 56.27 56.73 58.08 58.68 59.15 59.17 59.47 61.12 59.46 59.51 59.79 59.41 60.92 61.30 62.16 62.41 63.14 62.79 63.37 61.44 59.72 58.25 57.07 56.87 56.90 55.00 54.99 55.04 54.64 53.11 52.99 54.59
39.05 33.68 35.86 39.02 45.00 44.65 41.74 40.13 45.24 47.38 45.59 44.97 44.74 45.35 52.04 53.40 53.97 54.63 57.68 58.44 58.96 59.26 59.37 58.98 60.43 59.71 58.17 60.85 60.51 60.18 60.57 61.63 62.23 62.65 62.45 62.84 60.95 59.08 57.53 57.08 57.20 56.43 55.26 54.47 55.46 54.49 53.63 52.57 53.28
33.46 34.37 34.12 35.45 42.24 43.69 42.24 41.14 46.23 46.98 44.44 46.04 44.95 44.09 51.61 53.82 55.00 55.66 57.73 58.43 59.06 58.79 59.32 59.91 60.00 59.40 56.84 57.78 60.03 60.47 59.85 59.99 60.26 62.12 62.17 62.41 61.91 59.77 58.23 57.93 58.74 57.08 55.76 54.99 55.76 54.52 53.52 54.02 53.40
38.62 37.14 36.00 39.11 44.29 41.56 40.63 41.29 44.35 46.45 46.80 44.31 45.62 45.37 50.87 53.94 56.49 56.38 57.76 57.90 58.54 58.03 57.79 58.24 58.99 58.74 58.08 58.50 58.08 58.43 58.31 58.97 59.35 60.78 60.74 60.05 62.01 61.36 58.47 58.26 59.45 57.66 56.94 56.69 56.73 55.13 54.39 53.53 53.55
38.32 36.10 35.29 40.51 44.39 42.18 39.66 39.97 43.90 45.66 45.43 45.55 46.95 46.89 48.35 53.57 54.10 54.96 56.53 56.92 58.01 57.30 57.49 57.93 58.33 58.83 58.67 58.04 58.30 57.67 58.05 59.22 59.58 59.89 60.49 60.20 60.20 61.30 59.71 58.44 59.37 59.36 57.80 57.11 56.27 54.45 53.85 53.47 54.11
37.08 36.04 36.73 38.07 42.39 41.83 39.31 37.50 40.64 45.63 45.27 45.46 46.59 48.76 48.45 53.75 53.99 53.69 55.52 55.87 57.56 57.44 57.34 58.31 58.12 58.60 58.55 58.58 57.48 56.36 57.40 58.11 58.11 58.51 58.87 59.55 59.94 59.31 60.63 59.61 59.55 58.51 58.88 56.83 55.52 54.11 54.00 51.11 51.80
33.77 40.94 41.48 40.26 38.42 31.41 40.12 29.42 38.97 43.72 43.69 44.92 44.92 45.59 46.92 53.24 55.35 54.29 55.00 55.22 56.68 57.48 57.80 57.78 57.76 58.07 58.23 58.40 57.22 55.72 55.29 55.12 56.96 57.68 58.64 58.58 59.30 58.53 58.62 59.54 58.88 57.66 59.06 57.44 56.58 55.90 53.61 53.23 52.25
36.80 42.51 40.62 40.64 36.17 34.66 36.62 32.37 37.48 42.91 41.80 43.57 45.29 44.67 46.00 53.52 54.96 54.07 54.52 55.87 57.05 58.16 57.75 56.94 56.96 57.12 57.17 57.83 57.13 56.26 55.84 56.16 56.87 57.38 57.40 57.78 58.15 57.53 57.46 58.43 58.27 57.32 58.18 57.45 56.64 56.26 54.90 53.37 51.45
42.40 40.55 40.63 40.17 36.76 28.86 35.69 35.46 35.27 38.89 42.17 44.43 46.55 47.03 46.27 53.21 54.79 54.98 55.34 56.45 56.68 57.30 57.67 56.36 55.66 55.86 56.78 57.63 57.08 56.20 55.46 55.38 55.11 55.54 55.72 56.20 57.09 56.68 56.65 57.45 57.74 57.53 57.70 57.34 56.94 57.25 56.05 55.07 53.85
40.38 37.30 31.01 29.60 28.94 26.76 38.72 36.26 38.02 43.43 45.66 46.17 46.85 47.89 47.01 53.55 54.24 53.39 53.32 54.36 56.22 56.02 56.20 56.25 55.76 55.38 55.96 56.71 56.75 56.29 55.50 55.30 54.81 55.30 55.08 55.41 55.40 56.19 56.08 56.35 57.31 57.23 57.42 58.00 57.66 57.01 56.88 55.97 55.09
37.85 37.30 31.87 24.81 25.95 29.58 39.41 31.98 38.00 46.01 48.30 48.54 48.20 47.60 46.85 53.10 53.88 53.13 53.99 54.55 55.76 56.04 56.29 56.43 55.92 55.31 55.84 56.84 56.74 56.85 56.13 55.60 54.26 54.36 55.28 55.12 55.77 56.27 56.89 57.03 57.16 58.02 57.41 57.28 57.78 57.25 56.40 55.58 55.38
36.87 34.30 39.60 33.48 34.15 30.11 34.37 38.23 44.60 47.01 47.52 48.03 47.33 47.36 46.85 52.39 53.07 53.15 54.28 55.03 55.66 55.98 55.88 55.92 55.36 55.49 55.38 55.98 56.91 56.75 56.28 55.26 54.22 53.93 54.58 55.33 56.03 56.70 56.24 56.74 57.20 57.35 57.62 57.43 57.00 56.02 56.37 56.45 55.98
40.45 41.95 32.53 34.34 26.54 26.33 32.70 35.50 37.71 42.92 45.55 46.81 46.90 47.09 47.52 49.53 53.00 53.95 54.51 54.86 55.74 56.43 56.29 55.94 55.60 55.46 55.77 56.44 56.42 56.81 56.77 56.75 55.98 54.66 53.83 54.84 55.54 55.75 56.45 55.52 57.28 57.52 57.26 57.11 57.15 56.66 56.41 56.26 55.97
38.14 36.83 37.34 36.42 34.53 30.00 28.40 34.58 43.84 43.19 45.18 45.26 46.52 48.28 48.75 49.64 49.48 53.88 54.72 55.12 55.56 56.27 55.83 55.92 55.70 55.52 55.69 56.41 56.14 56.46 56.53 56.78 56.83 55.85 54.75 54.55 55.17 55.55 55.91 55.93 55.68 56.62 57.49 57.46 56.74 56.73 56.40 55.76 56.13
40.83 37.86 37.72 33.86 31.47 33.80 31.86 33.36 44.84 46.20 47.31 47.33 47.82 48.87 49.96 50.91 52.25 53.65 53.91 53.77 55.04 54.98 55.26 55.34 56.09 56.18 56.28 56.34 56.30 56.02 56.72 56.90 56.20 56.46 56.57 56.10 55.13 55.52 55.47 55.82 55.41 55.29 55.79 56.90 56.84 56.49 56.70 55.78 55.16

GFSSGP_sfc_wetblb_075.txt.gz
Wetbulb
59.24 52.91 49.92 49.77 40.04 35.31 31.43 36.40 40.45 42.15 45.14 48.79 50.80 49.87 48.75 49.31 47.90 43.45 61.51 67.93 69.13 69.67 70.69 71.10 71.51 72.26 72.39 72.11 72.11 72.33 72.60 72.89 73.08 72.96 72.72 72.70 72.53 72.39 72.14 72.02 72.05 72.41 72.69 72.08 71.84 72.08 71.94 71.45 71.22
52.32 51.74 48.68 43.00 35.66 28.96 31.99 39.17 40.92 43.69 47.94 50.73 51.45 52.75 50.80 52.69 61.22 61.62 63.90 68.89 69.39 70.20 70.30 70.58 71.44 71.81 72.22 72.18 71.84 72.25 72.74 72.82 72.66 72.66 72.32 72.28 72.09 71.97 71.79 71.57 71.57 71.84 72.31 72.10 72.05 71.89 71.28 70.60 70.24
52.64 52.28 44.42 39.66 32.55 30.23 32.76 40.66 42.56 45.90 47.68 48.04 48.03 50.75 54.10 55.61 62.54 62.84 64.77 69.07 68.57 69.74 70.55 70.36 71.17 71.28 72.04 71.98 71.66 72.01 71.95 71.99 71.92 71.93 72.15 72.01 71.81 71.48 71.42 71.29 71.21 71.62 71.75 71.81 71.65 71.28 70.23 69.84 68.97
49.43 47.52 43.57 35.81 33.24 36.24 38.51 42.20 43.58 45.39 47.36 47.27 47.20 50.45 56.06 60.92 62.68 64.56 66.96 68.94 67.68 68.21 70.51 70.01 70.14 70.92 71.75 71.95 71.60 71.72 71.65 71.17 71.06 71.26 71.78 71.76 71.55 71.77 71.26 70.84 71.01 71.38 70.92 71.48 71.28 70.38 69.66 68.61 67.83
45.36 42.28 35.73 31.53 34.66 38.01 41.51 43.81 44.25 44.74 45.90 47.95 47.99 50.53 53.23 60.37 63.90 64.77 66.76 68.55 66.75 66.28 68.28 69.79 69.16 70.36 71.39 72.01 71.62 71.39 71.31 70.92 70.73 70.88 71.06 70.90 71.61 71.65 71.19 70.37 70.36 70.27 70.54 70.76 70.39 69.39 68.87 68.10 67.28
40.21 39.57 30.76 30.29 34.55 40.22 42.48 43.63 44.76 45.50 46.72 47.62 46.71 51.60 54.17 60.90 62.69 63.22 64.90 64.70 65.80 66.06 66.82 68.28 70.38 70.28 70.79 71.17 70.91 69.47 69.84 70.55 70.48 70.61 70.57 70.79 70.99 70.37 70.45 70.31 69.97 69.62 69.28 69.14 68.77 68.23 67.81 67.07 66.36
38.09 34.82 31.48 32.43 34.30 38.48 42.30 44.85 44.78 45.07 45.59 45.59 52.26 51.46 54.50 58.52 61.41 62.62 63.15 65.35 65.66 65.79 65.94 66.39 68.19 70.22 69.92 69.18 69.31 68.05 68.20 68.53 68.57 68.54 67.57 67.54 67.92 68.60 68.97 69.16 69.05 69.18 68.90 68.42 67.79 67.45 65.93 66.47 65.81
41.50 37.70 32.08 34.02 36.12 37.43 43.54 45.68 45.58 44.15 44.43 52.50 55.25 51.65 51.87 58.19 61.88 62.54 63.75 64.07 64.29 64.43 64.50 64.63 64.73 64.29 65.09 66.03 66.62 66.69 67.00 66.47 66.66 66.17 63.59 63.14 66.53 67.43 67.50 68.00 68.49 68.24 68.45 67.88 67.21 65.94 65.71 65.96 64.96
43.52 34.39 29.96 34.47 37.42 39.68 44.79 41.55 45.37 47.07 46.02 49.27 51.19 55.24 56.95 60.55 62.11 61.81 60.73 60.35 61.64 62.82 63.20 63.29 62.89 62.32 62.62 65.17 66.54 67.05 67.29 65.64 65.75 66.08 65.59 64.24 65.16 65.86 66.22 66.81 67.59 67.13 66.92 66.62 66.16 64.96 64.73 64.41 64.11
41.02 34.22 35.29 40.33 42.79 41.87 43.10 40.49 44.41 44.35 45.29 46.42 47.83 58.58 59.77 60.94 60.92 60.45 59.52 59.50 60.03 60.74 61.00 63.39 63.44 61.54 61.82 64.57 65.43 65.85 65.50 64.52 64.04 64.44 64.24 63.82 64.67 65.08 65.39 65.40 66.28 65.99 65.88 65.61 65.16 63.95 64.11 62.82 61.14
40.73 38.55 40.52 42.90 45.33 43.93 40.76 43.15 44.75 44.49 43.81 45.89 45.95 53.78 58.18 59.34 59.93 59.92 59.99 59.99 60.43 60.32 60.74 62.56 63.51 62.56 62.74 62.42 62.87 63.64 64.84 63.92 63.39 63.41 62.90 62.91 62.25 64.12 65.35 64.76 64.63 63.99 64.91 63.08 62.18 60.78 60.59 59.86 59.16
39.61 42.38 44.95 44.19 45.04 42.70 42.17 43.56 43.95 43.25 46.02 48.76 48.05 55.76 58.34 58.16 58.54 59.44 59.43 59.16 58.99 60.35 60.67 62.33 61.99 62.86 62.47 62.26 62.09 61.24 62.31 62.20 61.26 61.11 62.62 60.31 59.87 61.98 63.73 64.18 62.81 62.41 62.30 60.68 59.67 56.95 57.43 57.63 57.50
40.78 43.12 45.34 45.91 45.87 44.50 45.15 43.37 44.36 45.07 47.85 48.72 48.17 58.48 58.16 58.38 58.17 57.59 58.29 59.32 59.55 60.07 60.10 62.34 62.65 60.48 59.95 60.16 60.30 59.94 60.51 60.98 61.03 61.06 61.15 59.91 60.75 62.39 63.84 63.07 61.98 61.55 60.90 59.15 57.74 55.69 56.16 56.43 56.76
41.56 42.69 43.41 44.77 45.34 45.41 44.48 44.76 42.33 46.42 48.16 45.87 48.04 57.14 57.96 57.76 57.16 55.24 58.00 58.48 59.79 59.81 59.37 62.00 62.64 62.33 60.73 61.28 59.99 59.97 59.71 60.13 60.19 60.07 61.16 60.47 62.23 63.59 63.28 62.16 61.03 60.33 59.82 58.02 56.70 54.98 54.88 56.26 56.58
43.86 40.32 42.38 42.53 42.25 42.12 44.22 40.71 41.03 46.15 46.82 45.01 46.14 54.53 57.01 57.13 55.33 56.33 58.48 59.23 60.01 59.84 59.02 59.87 62.12 61.44 59.92 60.56 59.71 60.95 60.24 60.92 59.19 59.84 60.05 61.53 62.27 63.63 62.61 61.46 59.76 58.53 57.41 56.65 54.46 53.70 53.50 54.80 56.35
40.38 39.66 35.05 41.38 42.84 43.31 42.31 37.60 43.34 45.43 44.32 43.78 44.50 48.05 54.57 54.53 55.79 56.60 58.93 59.76 58.69 58.48 58.72 59.33 61.52 59.63 58.44 57.42 58.88 59.96 60.74 61.10 61.47 60.30 59.94 60.56 62.62 63.08 61.90 60.46 58.49 57.32 55.23 54.60 54.78 53.26 52.77 54.24 55.92
35.84 32.70 34.35 37.59 43.23 42.09 39.98 38.77 42.75 44.95 44.43 43.08 43.69 43.36 50.65 52.34 53.80 54.84 58.08 58.58 58.49 58.67 58.46 58.13 58.65 58.03 58.17 57.68 59.05 60.29 60.72 61.31 62.02 62.20 60.90 60.93 61.89 61.35 60.15 58.83 57.72 55.49 54.63 54.75 54.23 52.58 53.10 53.36 54.60
31.11 32.23 31.78 33.93 38.14 40.64 38.58 37.80 42.36 45.91 44.39 44.17 43.33 43.32 47.62 51.01 54.19 54.30 56.79 58.27 58.27 58.68 58.78 58.20 58.38 58.21 59.57 60.06 59.49 59.71 59.73 60.38 61.70 62.16 61.34 60.64 60.15 59.52 58.08 57.25 55.95 55.60 53.83 52.78 53.50 53.05 52.42 53.21 54.70
36.55 34.98 33.25 35.29 40.81 39.55 38.84 39.05 41.02 43.01 42.62 42.23 44.61 46.11 43.60 50.57 54.83 54.43 56.97 57.83 57.72 58.18 57.98 57.84 57.36 57.10 58.38 58.97 58.73 57.48 57.99 58.71 60.00 61.40 61.83 60.86 59.48 58.59 57.07 57.12 55.84 55.70 53.01 53.46 54.06 53.19 52.35 51.28 52.72
36.49 34.18 33.66 37.96 41.53 41.65 37.30 37.43 41.51 43.52 42.86 44.69 45.41 46.05 44.54 48.97 51.81 55.09 56.16 57.26 57.40 57.78 57.90 57.78 56.96 57.30 58.57 58.36 58.32 58.52 58.33 58.93 59.63 60.35 60.49 61.78 60.22 58.75 57.29 57.48 55.91 55.63 53.91 54.16 54.36 53.76 52.63 52.99 53.38
35.72 33.83 34.56 35.21 40.46 41.82 37.65 36.82 39.38 43.21 44.15 45.31 45.26 46.33 47.25 50.83 51.41 54.39 55.29 56.18 57.10 56.64 56.48 57.20 56.66 56.94 57.70 57.88 57.72 57.34 57.94 58.35 58.01 58.57 59.37 59.94 61.30 59.76 57.79 58.04 57.12 56.22 55.61 55.49 55.63 54.52 54.36 52.12 52.10
32.66 38.70 38.44 38.46 36.82 31.12 37.67 28.13 36.59 40.19 42.10 43.82 44.41 44.05 45.97 51.34 53.32 54.57 54.93 55.30 56.56 56.60 57.35 57.48 57.93 56.92 57.30 57.81 56.75 56.32 56.01 55.82 57.15 58.46 59.15 59.43 60.26 60.45 59.00 58.51 58.78 58.44 57.35 56.64 56.19 55.19 54.85 53.76 52.50
35.78 40.59 39.24 39.06 36.32 35.10 34.85 30.65 34.91 40.38 40.49 43.50 44.58 44.42 44.93 50.16 53.50 53.11 54.79 55.53 56.88 57.31 57.53 57.95 57.36 57.78 57.38 56.62 56.56 56.26 55.46 55.78 57.02 57.73 57.92 58.35 58.55 59.03 59.70 59.18 57.99 57.86 58.61 57.36 56.91 54.89 53.56 53.36 53.79
41.77 39.89 39.19 38.50 36.68 29.94 33.60 32.45 31.21 36.16 41.37 43.92 45.62 45.79 44.94 46.77 53.07 54.03 55.19 56.02 56.76 57.57 57.20 56.66 56.01 56.13 56.97 56.00 55.66 55.38 55.38 55.44 54.39 56.46 56.76 57.36 57.52 57.08 57.86 58.68 58.56 57.92 57.82 57.06 56.36 56.42 55.44 53.68 53.73
40.50 36.36 29.33 27.99 28.39 27.18 35.85 33.19 35.32 41.11 44.62 46.07 46.78 47.41 46.71 47.08 51.90 52.77 53.13 54.68 56.21 56.30 56.43 55.99 55.78 55.01 56.21 56.04 54.98 54.32 54.69 55.40 55.33 55.84 56.30 56.20 56.76 57.00 56.68 57.70 57.76 57.46 57.89 57.91 57.38 56.32 56.16 55.60 54.91
36.89 35.76 30.10 23.71 25.12 26.90 37.28 30.85 36.53 44.79 47.27 47.49 47.97 46.58 46.73 45.72 52.09 52.68 53.20 54.71 55.66 56.45 56.17 56.04 55.47 55.13 55.93 56.58 55.86 54.78 54.77 55.90 55.68 55.77 56.13 56.33 56.60 57.27 57.56 56.58 57.48 57.48 57.57 57.69 57.58 57.16 56.54 56.32 55.52
37.28 33.37 38.64 33.56 33.81 28.12 31.35 37.65 42.83 46.38 46.03 46.61 46.60 46.48 44.82 45.95 52.10 52.48 53.33 54.82 55.31 56.22 56.10 55.96 55.53 54.93 55.96 55.77 56.39 55.09 54.81 54.54 54.88 54.59 55.58 56.13 56.66 56.97 56.64 55.81 56.49 57.23 57.29 57.33 57.19 56.73 56.18 56.45 56.22
39.16 41.32 32.38 34.46 25.65 24.23 30.36 34.22 35.57 40.37 42.65 44.79 45.67 46.27 47.00 49.54 51.01 51.87 53.17 54.56 55.69 56.02 56.54 56.50 56.33 54.62 55.42 55.54 55.99 55.68 55.15 54.77 53.78 53.03 53.10 54.60 55.11 55.82 55.21 55.74 56.20 56.13 56.88 57.27 56.81 56.67 56.56 56.30 56.43
37.54 36.40 36.68 36.15 33.77 28.65 27.01 33.63 42.64 42.80 45.17 43.97 45.54 48.10 49.18 48.49 51.24 52.32 52.71 53.72 55.25 55.46 56.10 55.72 55.48 54.95 54.87 54.82 55.81 56.12 54.99 55.27 55.70 53.99 53.05 53.73 53.91 54.24 54.50 55.72 56.16 56.59 56.46 56.85 56.36 56.09 56.25 55.85 55.80
39.84 37.38 37.43 32.29 30.30 32.05 32.41 32.71 45.08 45.57 46.65 45.62 46.43 48.98 49.39 51.13 51.95 52.60 53.61 54.14 54.09 54.04 55.43 55.19 55.33 55.16 55.02 54.99 55.82 54.87 55.05 56.21 56.21 55.84 54.42 53.69 53.73 54.40 54.95 54.58 55.29 56.19 56.71 57.02 56.29 55.94 56.36 55.56 55.24

GFSSGP_sfc_wetblb_078.txt.gz
Wetbulb
59.00 52.27 48.83 48.21 38.81 34.72 30.20 34.59 38.31 40.42 42.41 46.64 49.33 48.74 47.51 47.10 47.18 41.90 58.55 67.26 68.34 68.28 70.28 70.78 71.47 72.07 72.19 72.34 72.17 72.67 73.29 73.81 73.74 73.48 73.36 73.26 73.06 72.72 72.60 72.66 72.41 72.77 73.17 73.18 73.04 72.43 71.94 71.71 71.26
53.55 50.11 47.66 42.15 34.04 28.27 30.42 36.72 39.33 42.16 45.86 48.72 51.36 51.69 49.78 48.97 59.49 60.33 62.74 66.83 68.76 69.02 69.65 70.31 71.52 71.82 71.89 71.99 72.17 72.15 73.20 73.64 73.59 73.40 73.23 73.00 72.83 72.52 71.82 71.67 72.13 72.35 72.59 72.99 72.25 72.36 71.76 71.03 70.69
51.12 50.49 43.86 38.74 31.66 29.84 30.91 37.67 42.00 43.81 46.29 47.50 46.39 50.14 50.91 52.05 61.17 61.61 64.74 67.91 68.76 68.85 69.55 69.73 71.19 71.31 71.79 71.58 71.91 71.90 72.16 72.54 72.70 72.69 72.95 72.83 72.71 72.54 72.29 71.59 71.68 72.17 72.40 72.64 72.30 71.98 71.03 70.53 69.48
48.62 45.94 42.30 35.31 31.61 35.40 36.57 40.09 42.04 43.09 45.34 45.51 45.25 47.61 54.77 59.43 61.38 63.71 65.60 68.34 67.84 68.87 69.34 69.08 70.29 70.98 71.55 71.59 71.80 71.78 71.74 71.48 71.58 71.98 72.40 72.51 72.42 72.32 72.09 71.40 71.49 71.90 72.05 72.35 71.93 71.29 70.18 69.11 68.66
44.00 41.41 33.65 30.42 33.17 37.62 39.68 42.13 41.64 42.84 44.22 46.27 47.21 46.48 51.76 58.17 63.12 64.41 67.32 67.42 66.58 67.61 69.38 69.40 69.19 70.38 71.28 71.62 71.76 71.60 71.27 70.92 71.17 71.44 71.54 71.63 71.94 71.79 71.49 70.86 70.92 71.18 71.46 71.43 70.87 70.22 69.04 68.21 67.92
39.48 38.67 30.48 28.61 32.14 39.75 41.14 42.88 42.90 43.39 44.25 45.92 44.63 47.07 52.19 59.14 62.04 63.77 66.87 66.29 66.18 65.86 66.95 68.56 69.97 70.36 70.73 71.03 70.86 70.16 70.34 70.61 70.68 70.78 70.85 70.59 70.12 69.57 69.81 70.47 70.35 70.05 70.43 69.81 69.45 68.81 68.18 67.74 67.20
36.20 34.33 30.25 30.03 33.10 37.68 42.82 43.48 42.72 42.79 43.60 43.90 48.17 47.43 52.86 57.15 61.59 63.13 64.25 64.67 64.89 65.37 65.54 66.66 68.93 69.85 69.82 69.37 69.28 68.59 69.00 68.92 69.24 68.87 68.13 67.39 67.08 68.18 68.47 68.95 69.74 69.60 69.06 68.99 68.64 67.92 67.39 67.18 66.35
39.31 35.61 28.82 31.73 34.17 36.09 42.61 44.21 43.55 42.94 43.07 50.21 52.83 48.80 49.16 56.47 61.32 62.47 63.71 63.35 63.51 63.84 64.30 64.70 68.17 69.05 69.10 69.51 68.38 66.76 67.77 67.14 66.34 66.05 65.83 65.18 64.16 65.28 67.24 67.11 67.96 68.36 68.68 68.41 67.86 67.18 66.76 66.26 65.13
40.76 32.97 28.27 32.02 35.08 38.11 43.07 38.77 43.26 45.19 44.04 45.27 48.74 52.20 55.82 59.86 61.92 61.20 60.50 61.95 62.18 62.84 63.05 63.13 64.37 65.53 65.99 66.76 67.30 67.36 67.34 66.63 66.07 65.87 65.18 64.36 64.02 64.86 65.22 66.43 66.77 67.91 67.02 67.35 66.37 66.18 65.88 65.03 64.32
39.54 32.40 33.69 38.22 40.11 39.83 41.46 38.86 42.95 42.65 42.60 44.88 44.93 52.92 58.58 60.09 60.19 59.97 59.50 60.92 61.82 61.81 62.02 64.24 63.88 61.43 61.89 64.83 65.15 66.34 66.36 65.37 64.41 63.53 62.65 62.37 63.29 63.40 64.32 65.01 66.12 66.19 66.00 65.86 65.32 65.64 64.74 63.15 61.31
39.66 35.94 38.24 40.90 43.15 42.09 39.80 41.48 43.90 42.85 41.83 44.88 45.04 45.79 56.33 58.08 58.88 59.17 59.59 60.01 61.33 60.86 60.12 63.08 63.92 62.03 62.71 63.98 64.60 65.62 64.86 63.82 63.88 63.16 62.30 62.39 63.25 64.13 64.33 64.30 64.79 64.84 65.03 62.80 62.56 63.30 61.26 60.13 59.90
36.72 41.19 42.24 41.73 44.01 42.61 41.62 41.04 43.16 42.96 44.89 48.12 46.75 47.12 55.06 57.13 58.18 58.74 59.02 59.02 58.80 59.47 59.83 62.47 63.33 63.43 62.77 63.09 63.42 63.22 64.02 63.69 63.08 63.64 63.42 62.71 63.36 63.66 63.07 63.43 63.61 63.52 62.61 59.84 59.83 60.63 59.27 59.07 57.73
37.54 39.97 42.85 43.98 44.40 43.43 44.36 42.40 43.55 43.88 45.95 47.81 46.75 47.02 53.28 56.20 57.96 59.17 59.34 58.92 58.17 58.60 59.21 61.71 62.66 62.95 62.46 62.38 61.89 61.95 62.61 62.83 62.67 63.05 62.48 62.13 62.28 62.62 63.46 63.07 62.83 62.90 61.09 59.10 55.99 57.02 57.61 56.00 56.57
39.35 39.67 39.80 41.67 42.48 44.11 43.61 44.22 42.13 44.21 46.29 45.90 45.09 45.09 51.76 55.82 57.38 55.41 57.56 58.48 58.28 59.27 60.00 62.24 62.29 62.33 60.65 61.06 60.84 61.06 61.30 61.85 61.56 61.89 62.46 61.14 61.06 61.39 62.13 62.41 62.23 61.47 60.35 58.29 55.54 56.36 56.57 55.96 56.42
41.88 38.28 40.70 40.66 40.81 41.13 43.73 39.73 40.67 45.18 45.38 44.29 44.77 44.10 50.62 56.62 57.30 56.11 58.04 58.15 59.07 59.76 59.77 62.02 62.33 61.16 58.95 59.60 60.33 59.87 59.63 60.19 59.83 60.91 61.43 60.36 60.67 61.41 63.02 62.38 61.56 60.81 59.98 57.20 54.30 54.12 55.77 55.90 56.51
37.46 36.91 32.52 39.21 40.60 41.83 40.97 36.36 41.98 43.45 43.13 43.02 42.77 42.22 48.38 55.64 57.21 57.74 57.40 57.12 58.22 58.43 58.95 61.51 62.04 60.55 58.11 58.84 60.35 60.71 60.26 59.81 59.08 59.67 60.80 60.82 60.98 63.17 63.25 62.20 60.87 59.56 58.68 57.30 54.81 54.09 54.49 55.07 54.66
32.94 28.70 32.35 36.06 42.23 40.90 38.23 38.01 41.46 43.34 42.37 41.95 42.05 42.01 42.66 50.71 54.52 56.67 56.45 57.77 58.04 58.62 58.45 59.27 60.81 59.41 56.97 57.09 59.14 59.76 60.48 60.90 61.40 60.27 60.21 61.07 61.31 61.83 62.71 61.54 59.57 57.80 57.22 57.14 54.88 53.21 54.81 54.85 54.55
27.93 30.29 30.23 31.14 36.60 37.75 37.17 37.21 40.94 43.23 42.09 42.83 42.34 42.30 41.71 45.44 51.25 56.31 56.37 57.88 57.74 57.67 57.97 59.36 59.87 58.37 57.47 58.01 58.84 59.86 59.98 60.70 61.00 61.48 60.62 60.42 61.00 62.10 61.98 60.26 57.76 57.67 56.36 54.92 54.00 52.47 52.02 54.69 54.47
34.31 32.34 31.18 32.58 39.02 37.52 37.85 37.31 39.01 40.55 40.64 40.72 41.81 42.07 42.07 44.53 50.86 54.17 57.03 57.15 56.83 56.75 57.99 58.28 58.68 58.87 58.15 57.40 57.25 57.93 57.59 58.90 60.16 61.49 62.16 61.05 60.96 61.82 60.48 58.19 56.73 56.68 54.66 54.92 54.08 52.45 52.28 51.97 54.07
32.72 31.01 31.56 35.92 39.29 38.46 36.60 36.88 41.31 41.74 41.18 42.38 43.45 43.38 43.72 43.76 49.72 52.81 55.89 56.59 56.77 58.11 58.31 57.80 58.39 57.86 58.15 58.99 58.52 58.40 58.32 58.77 59.76 60.64 60.03 59.49 58.82 58.70 58.09 56.82 56.39 55.44 54.25 54.26 53.87 53.28 51.53 51.96 54.42
33.33 32.05 32.61 33.17 37.39 39.20 36.56 35.36 37.79 41.31 41.81 42.76 43.70 44.71 44.81 44.52 48.20 52.82 54.73 55.97 56.57 57.69 57.85 57.63 57.60 57.41 57.35 58.59 57.86 57.53 57.79 58.35 58.21 59.24 60.04 59.51 59.11 58.44 57.92 57.16 56.51 54.31 54.25 53.97 54.49 53.48 52.32 52.40 53.19
30.79 37.38 36.75 35.28 34.76 28.41 35.99 27.57 34.63 38.74 41.19 42.19 43.45 43.23 43.89 44.36 49.45 53.14 54.09 55.03 56.30 57.34 58.19 57.62 56.87 56.43 57.70 57.99 57.09 56.49 55.65 55.82 57.12 58.61 59.54 60.14 59.27 58.08 57.62 57.31 55.74 54.42 54.06 54.22 55.04 54.94 54.01 53.91 53.03
34.79 39.13 37.95 37.51 34.11 33.13 33.38 29.55 32.31 37.88 37.22 40.30 43.14 44.34 44.31 45.08 51.24 53.14 54.38 55.31 56.42 57.34 56.62 56.34 56.06 56.44 56.93 57.07 57.01 53.78 54.77 55.53 57.28 58.09 58.47 58.84 59.71 58.63 57.69 58.26 56.72 55.61 55.31 55.65 55.63 54.52 53.95 54.04 53.89
40.34 38.13 37.71 36.33 33.64 27.57 32.02 30.88 30.00 35.27 38.82 41.12 43.80 45.04 45.53 43.76 51.69 53.34 54.36 55.39 56.76 57.26 56.56 56.56 57.33 57.21 56.82 56.38 56.54 53.59 54.68 55.41 55.16 55.76 57.17 57.51 57.91 58.85 57.97 58.44 58.11 58.09 57.27 56.61 56.36 55.23 54.42 53.80 54.09
37.83 35.12 26.65 26.63 27.16 25.62 34.56 31.52 33.85 40.76 42.58 43.32 44.05 44.97 45.78 45.66 47.62 51.54 53.01 54.58 56.14 56.02 56.81 57.04 56.25 55.57 55.68 55.57 55.61 55.27 53.39 54.15 53.29 55.99 56.75 56.99 56.87 56.65 57.99 58.11 57.98 57.94 57.73 56.78 56.64 55.99 55.33 54.34 53.58
35.21 34.32 26.41 22.50 24.61 26.77 35.23 28.40 34.74 44.39 46.09 46.42 46.77 46.84 47.14 45.05 47.24 51.39 53.20 54.70 55.43 56.23 56.30 56.13 55.50 55.20 55.55 55.03 55.07 54.19 53.17 53.62 53.85 55.59 56.44 57.08 57.12 57.30 57.29 58.24 58.09 57.53 57.72 57.96 57.00 56.34 55.88 55.97 55.40
36.40 34.44 37.39 32.41 32.44 29.63 30.57 34.62 41.49 45.28 45.25 45.65 46.20 47.81 48.20 49.15 47.46 50.69 53.01 54.52 55.33 56.06 55.94 55.69 55.37 55.14 55.52 55.52 55.50 54.61 53.18 53.83 55.48 55.43 55.95 56.52 56.64 56.83 56.86 57.24 57.85 57.80 57.35 57.43 57.82 57.48 57.10 56.63 56.09
39.02 40.83 32.73 33.54 24.54 24.29 28.37 31.41 34.82 40.52 42.41 44.47 45.30 46.54 48.21 49.88 50.48 51.73 53.18 54.24 55.97 56.39 56.18 56.15 55.67 54.92 55.49 55.69 55.88 55.50 55.13 54.10 54.18 53.13 54.14 55.61 56.32 56.24 54.91 55.63 56.91 57.22 57.48 57.67 57.57 57.22 57.31 56.70 56.56
36.38 35.51 35.80 36.28 34.28 26.22 24.95 29.77 42.83 42.82 44.58 44.10 45.68 46.07 47.03 49.88 50.86 51.52 53.16 54.41 55.88 56.16 55.77 55.46 55.27 54.98 55.11 55.14 55.69 55.67 55.33 54.76 53.21 53.32 53.21 53.17 55.33 55.86 55.66 55.98 55.79 56.38 56.42 56.69 56.68 56.97 56.58 55.95 55.85
39.78 36.04 35.70 31.94 29.32 32.49 31.24 30.15 45.00 45.36 44.82 46.31 44.50 45.66 46.71 47.74 50.30 52.62 53.32 54.13 54.41 54.73 55.01 55.15 54.76 55.15 54.92 55.04 55.32 55.72 55.87 55.27 53.61 54.07 53.52 53.84 53.45 54.90 55.36 55.41 55.77 56.12 56.24 56.42 56.35 55.96 56.23 55.56 55.11

GFSSGP_sfc_wetblb_081.txt.gz
Wetbulb
62.36 57.95 55.53 54.70 46.58 44.81 40.30 41.67 44.43 45.22 46.66 50.37 52.05 51.56 51.61 52.17 53.89 49.94 64.50 70.48 70.51 71.32 71.77 71.97 70.68 71.31 72.31 72.58 72.88 73.29 73.86 73.81 73.90 73.74 73.65 73.67 73.54 73.20 72.83 72.74 72.75 73.14 73.56 73.43 73.13 73.48 72.78 72.17 71.92
57.04 53.29 54.04 50.23 42.81 38.32 39.73 43.49 44.16 47.29 49.58 50.42 53.61 54.51 53.92 52.78 60.62 62.72 66.04 70.09 70.80 71.28 71.53 72.02 70.77 71.37 72.15 72.03 72.64 73.10 74.00 74.10 73.87 73.77 73.74 73.52 73.22 72.88 72.73 72.60 72.45 72.74 73.46 73.61 72.74 72.77 72.02 71.65 71.36
54.83 53.34 50.97 48.01 41.98 38.23 39.36 43.12 47.49 48.36 49.35 49.27 50.97 54.53 53.83 55.06 63.21 64.19 68.08 70.42 71.02 70.66 70.78 71.38 71.00 70.97 71.58 71.93 71.95 72.53 72.28 73.27 73.16 73.21 73.42 73.40 73.06 72.99 72.71 72.15 72.19 72.74 73.31 73.48 72.75 72.20 72.05 71.05 70.12
53.78 53.21 49.04 42.73 39.52 42.68 42.28 45.39 46.67 47.06 48.48 49.76 51.32 50.05 57.78 61.75 64.33 66.72 68.60 70.47 70.99 70.66 70.80 70.64 70.23 70.27 70.97 71.73 71.78 72.25 72.01 71.61 72.11 72.62 72.87 73.10 72.94 72.75 71.77 71.35 72.17 72.67 72.99 73.11 72.49 71.67 70.60 69.76 69.22
50.83 48.85 42.36 40.36 39.90 42.94 44.10 46.32 46.97 46.67 47.36 48.53 49.86 48.71 54.47 61.15 65.53 67.37 69.24 69.98 70.35 70.62 71.40 71.69 69.54 70.41 70.85 71.17 71.67 71.61 71.52 71.18 71.00 72.05 72.28 71.63 72.19 71.55 71.15 70.41 71.53 72.04 72.07 71.83 71.17 70.67 69.89 69.08 68.64
46.70 47.06 39.06 36.83 39.07 43.58 46.35 47.42 47.19 46.91 47.22 48.74 48.18 48.84 53.32 62.70 65.61 67.63 69.78 69.98 70.89 69.31 70.16 70.17 70.49 70.52 70.16 70.47 70.99 70.57 70.60 70.32 71.17 71.45 71.81 71.65 70.72 70.09 69.68 69.54 69.77 69.71 70.19 70.18 69.96 69.46 69.15 68.46 68.03
44.49 43.24 39.14 38.21 38.64 41.55 44.84 47.53 46.39 46.83 47.11 48.04 50.84 48.75 55.44 60.72 65.70 68.13 69.59 70.13 70.12 70.85 70.01 68.64 70.22 71.03 69.72 68.92 69.49 69.36 69.31 69.72 69.30 69.59 70.14 68.58 67.09 67.77 67.93 67.73 68.55 69.33 69.57 68.82 69.11 68.64 68.01 67.96 67.07
45.33 44.22 37.42 38.61 38.80 40.12 45.57 46.49 48.45 47.68 47.75 51.72 56.75 51.91 52.13 59.94 64.66 67.68 68.85 68.76 69.23 69.42 70.24 69.81 69.52 70.14 71.94 71.96 68.57 68.44 68.66 68.23 68.05 67.89 67.00 66.22 65.97 65.50 66.08 67.04 67.62 67.95 69.22 68.57 68.50 67.92 67.45 66.83 65.92
45.97 40.85 37.49 38.31 38.96 41.56 46.07 45.25 48.22 49.54 48.30 49.04 51.08 53.68 58.09 62.08 64.49 65.76 65.81 65.68 66.46 67.59 68.81 69.76 68.48 69.62 70.91 70.55 70.23 68.57 68.43 67.34 67.13 67.65 66.02 65.55 66.46 65.91 65.84 66.28 66.69 66.95 67.33 67.37 67.30 67.14 66.24 65.39 64.69
45.43 39.71 39.97 42.65 43.66 43.49 45.44 45.50 46.87 46.91 47.37 48.14 49.43 51.93 60.70 62.29 63.50 64.07 64.21 64.21 64.56 64.37 65.70 67.58 66.71 67.76 68.22 67.46 68.87 69.79 69.42 68.92 66.15 66.15 65.72 66.22 66.09 66.32 64.91 64.70 65.60 66.21 66.35 66.40 66.24 65.93 64.75 64.93 65.60
44.40 40.06 42.40 43.84 45.09 46.03 45.42 45.80 47.70 46.29 45.11 48.18 48.51 50.38 55.28 60.14 62.27 62.95 63.57 64.01 64.65 65.16 64.06 66.48 66.28 66.13 66.44 66.82 67.27 66.90 67.09 67.11 64.98 64.46 64.04 65.47 65.61 65.25 64.39 64.90 65.88 65.79 66.01 66.42 66.52 65.64 65.84 65.99 65.30
40.46 43.76 44.85 44.95 46.62 46.01 44.85 47.08 45.48 46.73 47.75 51.21 51.65 52.30 51.29 53.93 58.93 62.17 62.74 63.40 64.07 64.82 65.40 65.17 65.48 65.44 65.95 66.37 65.29 65.63 65.41 65.78 64.18 63.76 64.04 64.97 64.97 64.88 65.22 65.68 65.59 64.54 64.16 64.68 66.36 65.62 65.20 64.73 64.02
40.99 42.25 44.21 45.79 46.24 46.55 47.33 45.60 46.09 47.19 49.94 51.66 51.25 50.35 51.23 51.75 54.98 59.31 63.03 63.97 64.04 64.11 65.01 64.22 64.73 65.04 65.30 64.97 64.81 65.07 65.13 64.50 64.74 64.03 63.38 65.06 64.39 64.82 65.07 65.08 65.40 63.86 62.86 63.22 65.09 64.39 63.82 63.31 62.88
42.46 42.41 42.96 43.97 44.90 45.61 43.94 44.50 46.21 47.62 50.29 49.95 49.59 50.43 51.63 51.57 53.86 57.90 61.35 62.44 62.83 63.92 64.24 63.78 63.89 64.61 65.23 64.77 64.26 64.09 64.51 64.64 63.99 63.94 64.13 63.55 63.80 65.02 65.17 64.88 64.93 64.01 61.51 62.43 64.50 63.64 62.83 62.53 62.45
42.74 39.26 42.20 44.08 44.35 44.10 45.84 42.12 42.80 48.53 49.96 48.87 49.99 50.51 51.01 51.03 53.97 57.88 60.66 62.08 63.29 63.33 64.09 62.73 63.58 65.28 63.89 63.11 64.11 63.49 62.76 62.83 62.80 63.40 64.08 63.22 63.54 63.60 63.94 64.22 64.01 64.11 61.12 60.12 62.93 62.76 62.56 61.67 61.71
39.23 39.74 35.41 42.62 43.56 45.07 43.94 38.03 45.03 48.39 47.63 47.44 48.53 49.41 49.12 50.30 52.74 58.19 61.10 62.16 63.38 63.54 63.37 63.19 63.94 64.03 63.61 62.94 62.79 62.08 61.69 60.98 61.14 62.04 62.63 62.61 62.88 63.94 64.27 63.72 63.30 63.28 60.77 59.26 60.80 61.25 60.69 60.95 60.43
35.94 32.45 35.25 38.46 44.98 44.46 42.75 40.10 45.30 47.72 46.69 46.15 47.78 48.41 48.94 50.20 51.69 57.47 61.08 61.63 62.32 63.42 62.91 62.58 63.23 63.25 61.92 61.96 62.00 62.29 61.98 61.90 60.84 61.23 61.62 61.51 61.90 63.04 63.14 63.22 63.17 62.67 59.60 59.01 59.90 60.03 60.13 59.12 59.48
31.21 32.70 35.29 35.68 41.27 42.30 40.75 40.99 44.62 47.09 46.72 46.67 47.61 48.79 49.17 50.08 51.05 53.95 59.43 61.30 62.11 62.77 63.11 62.12 62.35 63.05 61.50 60.95 61.21 61.09 61.52 61.88 62.37 61.31 61.34 62.16 62.26 62.16 62.96 62.30 60.71 60.85 59.23 58.73 58.73 59.12 59.94 59.69 59.58
35.81 34.48 33.51 36.67 40.90 39.15 38.82 39.78 42.78 45.78 46.59 47.08 47.82 48.75 49.59 50.50 52.70 52.98 57.48 60.39 61.27 61.97 61.55 60.40 60.96 60.38 59.50 58.85 59.15 59.28 59.18 60.70 61.40 61.99 62.72 61.93 61.65 62.03 61.25 61.20 59.33 59.79 58.99 58.39 58.62 58.71 58.57 58.62 60.02
35.23 33.14 33.14 37.40 40.49 39.90 39.37 38.94 42.83 44.87 45.73 47.25 47.95 49.00 49.96 50.98 51.36 52.06 56.75 59.44 60.40 60.58 60.85 59.49 60.15 60.15 59.38 59.64 59.58 59.27 59.78 60.45 61.17 62.55 62.20 62.32 60.86 61.61 61.64 58.71 59.22 58.98 58.36 59.22 58.07 58.35 57.97 58.13 58.86
35.03 33.73 34.50 34.42 38.87 40.86 39.10 37.14 40.11 43.86 46.19 47.52 48.12 49.01 49.76 50.05 50.53 51.67 55.40 58.22 60.05 60.32 59.97 59.15 59.47 60.00 59.51 60.26 60.94 59.54 59.74 59.97 59.67 59.90 59.55 58.74 60.51 60.97 59.77 58.78 58.35 57.88 58.73 57.53 57.74 58.47 58.51 56.32 57.97
33.38 39.34 38.02 36.71 35.61 31.50 40.48 29.90 38.28 41.85 43.27 45.60 47.66 49.18 50.03 50.44 50.56 50.83 54.74 57.29 59.09 60.74 61.08 59.44 59.26 59.24 59.12 61.55 60.23 58.20 57.40 57.23 58.84 59.86 60.20 58.96 59.02 58.47 58.27 57.80 57.33 56.59 58.24 57.47 57.29 57.30 58.33 58.77 56.34
36.65 40.53 38.67 38.20 36.14 35.21 35.12 32.23 36.65 41.61 41.00 44.10 47.13 48.52 50.19 51.26 50.77 50.86 54.58 57.04 59.18 60.86 60.04 58.65 58.22 58.81 59.21 60.87 60.43 58.72 57.62 58.34 59.17 59.20 59.26 59.41 58.52 58.80 57.87 56.93 55.46 56.08 56.75 57.30 56.94 56.59 57.04 58.67 58.55
41.79 38.97 38.64 38.26 35.76 28.48 34.22 33.43 34.60 39.00 42.00 44.37 46.76 48.59 49.96 50.73 50.67 53.17 56.52 57.96 58.62 60.27 58.53 57.47 57.02 57.46 58.24 59.51 59.16 58.35 59.03 57.88 57.49 58.40 58.22 58.18 58.86 58.38 58.34 57.34 56.59 55.84 56.26 56.74 57.44 57.25 57.20 57.30 58.05
39.97 35.51 28.88 26.81 27.61 27.51 36.36 33.05 36.51 42.65 46.11 46.40 47.30 49.66 51.13 52.28 50.20 54.32 55.73 56.62 57.61 58.06 56.65 56.58 56.95 56.31 57.24 57.85 57.60 57.63 59.18 58.33 57.53 57.92 58.18 57.95 58.00 57.90 57.33 57.48 56.49 56.43 56.56 57.28 58.44 58.12 57.74 57.89 58.02
37.23 36.17 29.93 22.68 26.10 29.66 36.44 31.71 37.84 46.14 47.74 49.10 49.89 50.15 51.08 52.19 53.41 52.73 55.81 56.66 57.61 57.60 56.51 57.99 59.11 57.50 56.55 56.86 56.87 56.78 59.03 58.92 58.28 59.09 58.80 58.68 58.78 59.20 58.65 58.52 57.48 57.06 56.98 57.15 57.38 56.88 57.61 58.65 58.08
36.52 33.24 38.44 31.62 33.20 29.52 33.81 37.72 43.77 46.61 46.25 47.68 47.97 48.32 48.63 51.01 52.72 53.47 54.78 57.02 57.80 57.17 57.34 58.65 57.49 56.61 56.07 56.30 56.65 56.18 58.17 58.56 57.95 58.44 59.06 58.53 58.94 58.55 58.24 58.35 57.95 57.16 56.66 56.82 56.06 56.42 56.31 56.37 56.25
39.69 41.12 33.34 33.97 24.75 24.47 31.48 33.63 35.65 41.07 43.22 45.01 45.35 45.66 46.78 49.19 52.41 52.91 54.66 56.35 57.17 57.23 57.29 56.75 57.06 55.91 56.15 56.37 56.44 56.30 57.13 58.03 58.24 57.58 57.47 57.76 58.07 59.26 58.10 57.86 57.55 57.33 57.01 56.53 55.61 54.93 56.61 56.53 56.61
37.00 36.12 36.19 35.50 34.12 27.61 26.11 32.63 43.30 42.35 43.30 44.09 43.40 44.56 45.47 46.34 50.99 54.17 55.12 56.42 56.98 56.94 56.20 56.09 56.20 55.91 55.89 56.13 56.40 56.17 56.15 56.64 57.12 56.87 58.02 57.99 57.89 57.62 57.96 57.89 58.26 57.42 56.95 56.56 56.62 56.77 56.68 56.00 56.71
40.23 36.92 36.70 31.36 29.24 33.24 30.86 32.50 45.88 45.11 44.45 44.83 42.43 42.56 44.31 45.41 46.11 50.50 54.48 54.85 55.09 55.23 55.58 55.59 55.72 55.65 56.11 56.48 56.63 56.38 56.35 56.15 55.58 56.72 56.86 57.11 57.34 58.47 57.32 57.00 57.59 58.07 57.40 57.65 56.83 56.11 56.78 55.77 55.82

GFSSGP_sfc_wetblb_084.txt.gz
Wetbulb
61.30 62.35 59.89 58.62 49.00 47.55 44.96 45.47 48.76 49.96 50.86 54.37 55.47 53.10 53.88 55.75 55.29 52.94 67.88 72.51 73.18 73.71 74.70 72.92 70.86 72.18 72.91 72.99 73.25 73.86 74.04 74.03 73.91 73.86 73.78 73.88 74.00 73.92 73.60 73.31 73.45 73.49 73.87 73.96 73.21 73.11 73.21 72.95 72.40
62.29 58.83 57.34 55.54 45.04 43.03 44.46 48.06 47.04 49.67 52.31 53.76 54.10 55.51 55.19 54.11 59.53 63.28 68.28 71.99 73.51 73.52 74.58 74.22 70.65 71.52 72.65 73.00 73.30 73.60 74.22 74.31 73.91 73.92 73.93 73.91 73.83 73.62 73.09 72.99 72.72 73.09 73.72 74.06 73.48 73.38 73.00 72.42 71.52
59.56 57.27 52.62 48.70 46.30 42.86 44.31 47.38 48.89 51.79 52.31 52.67 54.22 58.13 56.80 56.31 63.35 64.91 68.74 72.22 73.39 73.18 74.08 74.07 70.59 71.17 72.23 72.59 72.87 73.21 73.49 73.59 73.30 73.57 73.93 73.93 73.68 73.34 73.00 72.51 72.58 73.14 73.74 73.84 73.23 72.74 72.52 71.47 70.63
56.60 54.54 52.84 45.66 43.92 46.59 46.88 48.51 51.20 51.42 51.44 52.78 53.74 52.66 56.92 62.76 64.39 67.21 69.91 72.37 72.57 72.88 73.37 71.24 70.03 70.86 71.79 72.11 72.55 72.64 72.18 72.55 72.70 73.15 73.47 73.68 72.41 72.07 72.82 72.12 72.63 73.19 73.07 73.04 72.79 72.01 71.52 70.22 69.57
56.70 53.07 45.88 44.12 44.52 47.23 49.44 49.78 50.49 51.36 51.39 51.05 51.25 51.26 54.04 61.67 66.74 69.21 70.25 71.89 71.80 72.75 73.63 73.41 69.28 70.16 71.10 72.02 72.29 72.16 71.77 71.66 72.16 72.73 71.49 71.75 71.35 72.39 71.43 71.05 71.07 72.27 71.86 71.81 71.34 70.98 70.22 69.69 69.05
50.65 51.25 43.76 42.36 44.53 47.17 49.19 50.46 50.50 49.69 50.64 51.12 50.33 51.42 54.15 63.86 66.00 69.26 71.23 71.68 72.82 72.90 73.65 73.66 70.78 70.23 70.25 71.07 71.24 71.06 71.14 70.76 70.95 71.07 71.10 71.77 71.66 70.53 70.01 69.79 69.93 70.49 70.65 69.81 69.87 69.95 69.59 69.12 68.76
48.70 46.80 43.73 44.62 44.56 44.74 47.36 50.62 49.04 48.77 48.98 49.39 52.29 50.62 55.40 60.56 66.03 70.29 71.60 72.42 73.23 73.47 73.44 72.49 72.74 71.97 69.42 68.82 69.76 69.51 69.97 70.36 70.21 70.71 70.01 69.43 69.00 68.91 69.05 68.86 68.96 68.46 69.12 69.02 69.61 69.39 68.79 68.58 67.73
50.79 48.43 44.77 45.69 43.62 44.10 48.60 49.19 50.30 49.50 49.06 53.65 55.06 51.90 54.07 60.10 64.99 70.05 71.92 72.19 72.77 73.14 72.89 71.18 71.35 72.18 71.59 71.43 68.58 69.14 69.29 69.29 68.38 69.74 67.41 67.25 68.19 68.18 68.16 67.81 67.82 67.24 68.29 68.64 68.79 68.03 68.03 67.09 66.65
52.26 45.43 43.57 44.73 44.14 46.06 49.41 47.81 50.66 52.05 50.32 51.53 53.28 53.91 56.44 61.33 65.49 68.32 69.99 70.49 70.85 71.68 72.86 73.20 70.80 71.29 72.12 72.45 71.74 69.74 69.50 68.57 68.19 68.31 67.14 67.05 70.02 69.57 67.22 67.05 66.86 67.52 67.51 68.19 68.28 67.34 66.85 65.51 65.14
48.19 44.92 45.32 48.95 48.19 46.72 48.57 48.83 49.51 49.30 49.67 50.29 51.79 54.66 55.81 59.94 61.87 64.21 67.09 67.35 68.54 69.33 71.35 72.37 70.76 71.29 71.24 70.84 71.93 71.91 72.33 72.10 71.49 70.88 69.18 70.04 70.02 68.81 67.68 66.40 66.25 66.70 67.00 67.38 67.01 66.27 65.42 65.67 67.95
48.61 44.77 48.53 48.04 48.30 49.14 48.17 48.25 49.99 48.20 47.19 49.97 50.23 51.99 54.09 56.72 57.26 61.72 64.36 67.14 67.47 68.64 69.59 70.67 69.88 70.45 72.21 70.29 70.32 70.91 70.35 70.34 70.87 70.55 68.99 68.96 68.98 67.88 66.44 66.63 66.19 68.81 66.56 66.14 66.18 66.23 68.45 67.65 67.31
45.17 47.84 48.02 48.60 49.01 48.29 47.34 49.66 48.34 49.36 50.21 52.56 52.98 53.47 53.84 54.43 55.65 56.65 60.56 64.25 67.32 68.02 68.94 69.04 69.07 69.41 70.81 69.11 69.19 69.19 67.68 67.88 68.60 69.46 69.82 67.23 67.24 67.92 67.25 64.92 66.14 66.75 65.51 64.98 65.31 68.20 67.92 67.38 67.06
44.44 45.93 47.20 48.16 48.06 48.13 48.77 47.60 47.87 48.87 51.80 53.27 53.54 53.71 54.16 54.56 54.95 56.98 58.72 61.51 65.49 67.45 68.79 68.50 69.32 69.11 68.07 67.18 67.48 67.03 66.63 67.01 67.43 68.19 68.59 67.37 66.18 66.76 66.17 65.70 66.90 66.99 65.77 65.22 65.00 67.39 66.65 66.22 66.23
47.14 46.55 47.03 47.79 47.65 48.38 46.93 47.74 48.49 49.67 52.05 51.80 52.05 52.57 53.90 54.19 54.87 56.70 57.79 59.84 62.21 66.47 68.36 69.07 68.46 69.13 69.61 69.74 67.18 65.89 66.89 66.68 66.70 67.30 67.41 66.37 65.04 66.10 65.47 65.89 66.53 65.79 64.52 64.60 64.67 66.23 65.78 65.88 65.93
46.39 42.72 44.79 45.78 46.50 46.19 48.50 45.29 46.16 50.25 50.88 50.61 51.76 53.24 53.98 55.02 55.40 56.22 58.05 59.67 62.75 65.77 68.10 68.58 68.26 68.40 68.64 68.80 68.64 67.38 66.21 67.27 66.40 65.92 66.32 65.40 65.88 66.27 66.23 66.42 66.38 64.94 65.17 63.87 64.05 65.81 66.13 65.21 65.17
40.47 42.55 38.91 44.10 46.91 47.86 47.39 41.20 46.98 50.18 50.38 50.36 51.77 52.80 53.38 54.35 54.64 56.51 58.04 60.54 63.34 65.98 67.33 68.42 66.98 67.67 67.43 67.94 67.39 66.96 65.68 66.07 65.95 65.72 65.99 64.97 64.19 64.56 64.54 64.47 65.40 65.18 64.01 64.34 63.10 65.49 64.27 64.19 63.94
39.22 34.64 37.43 41.26 47.09 46.51 45.99 43.03 47.87 50.60 50.42 50.02 51.11 52.24 53.10 53.93 54.51 56.72 58.43 60.99 63.66 66.48 67.30 67.45 66.93 67.05 67.63 66.53 65.67 65.91 64.79 64.27 64.07 64.47 64.89 64.45 64.43 63.92 63.92 65.75 66.01 64.60 63.05 64.26 61.82 63.58 64.16 63.13 63.12
35.09 35.44 38.83 38.33 43.12 44.13 42.87 43.34 46.64 49.29 50.31 50.42 51.30 52.35 53.05 53.57 54.31 56.49 57.98 61.70 64.40 66.49 67.70 67.49 66.72 67.46 66.08 63.31 63.68 64.25 64.30 63.59 62.80 62.22 62.61 62.90 63.23 63.70 64.52 64.05 64.11 63.21 62.53 61.17 61.30 62.11 63.56 63.48 62.50
39.26 37.08 35.15 39.11 42.36 41.16 41.38 42.85 45.41 48.42 48.98 49.67 50.72 51.94 52.74 53.57 55.65 56.59 58.20 60.93 64.38 65.95 66.81 66.68 65.19 66.59 64.22 62.70 62.64 61.95 62.49 62.52 62.53 63.19 63.07 63.48 63.08 62.43 62.78 62.90 62.71 61.27 60.26 59.99 60.32 62.54 62.20 61.55 62.80
38.45 36.86 37.30 40.34 42.60 42.24 42.26 42.63 46.58 47.92 48.23 49.59 50.42 51.78 52.81 53.76 54.65 55.68 57.26 60.45 63.68 64.83 66.25 65.98 64.73 64.79 64.64 64.36 63.64 62.75 61.85 62.69 63.26 63.84 65.00 65.03 64.26 64.25 62.57 61.91 61.34 60.90 59.88 58.69 59.30 61.35 60.75 61.26 62.13
37.75 36.44 37.28 37.95 42.33 44.04 42.94 42.03 44.75 47.27 48.96 49.32 50.37 51.66 52.83 53.40 53.98 54.87 55.81 58.72 63.16 63.90 65.45 64.17 63.92 65.00 63.76 64.79 62.96 63.29 62.81 61.84 61.52 62.74 63.73 63.26 62.64 62.19 61.87 61.56 60.55 60.55 59.40 57.67 58.50 61.76 61.39 59.71 61.75
35.19 41.63 40.48 39.62 38.50 35.59 43.27 34.49 42.88 45.82 46.86 48.41 49.98 51.42 52.14 53.16 54.49 55.10 55.82 57.26 61.89 63.46 65.70 64.11 64.09 65.01 63.25 63.95 62.57 61.94 60.67 58.55 61.47 61.56 61.71 62.76 61.52 61.53 60.95 61.19 60.48 59.98 59.49 58.35 58.50 61.26 61.92 61.69 59.72
38.33 42.57 40.90 40.53 38.33 38.31 39.10 36.88 41.80 45.64 44.34 47.65 49.78 51.56 52.66 53.88 54.89 55.30 56.15 56.99 61.63 63.71 64.96 63.91 62.74 63.46 63.14 62.35 63.85 61.74 61.17 60.65 62.48 61.48 60.83 59.78 59.16 59.47 59.43 59.60 59.38 58.88 59.26 58.60 58.80 60.61 62.09 62.16 61.18
43.39 40.49 40.22 40.91 38.68 31.51 38.04 38.12 41.29 44.19 45.65 48.50 51.17 52.94 54.01 55.31 56.72 57.07 57.46 58.07 60.63 63.66 64.63 61.94 60.78 60.92 62.11 62.58 63.73 62.15 61.30 60.97 60.64 60.28 59.10 58.93 58.65 58.82 57.85 57.16 57.72 58.12 58.08 58.09 58.86 61.90 61.77 61.16 61.54
42.13 37.20 31.47 30.60 29.75 31.36 39.30 37.82 41.36 46.28 48.75 50.06 51.00 52.57 54.68 56.53 57.54 57.71 57.53 58.69 60.35 62.32 61.47 59.20 59.62 59.36 60.91 63.67 62.92 61.23 61.43 61.33 59.85 59.71 58.54 58.31 57.88 57.67 57.62 57.16 56.42 56.84 57.58 57.94 58.20 59.08 60.10 60.55 60.80
39.26 37.69 32.13 25.30 29.14 34.19 39.53 35.20 41.96 48.18 50.92 52.17 52.32 52.73 53.57 54.47 57.07 57.95 57.59 59.46 60.26 61.93 58.31 58.05 58.47 59.22 60.01 62.77 61.50 59.86 61.25 60.58 59.66 59.94 60.16 59.40 59.00 58.17 58.27 57.40 57.64 56.93 57.14 57.95 58.65 58.38 58.80 60.04 60.80
38.41 35.62 41.08 34.14 35.89 32.10 36.81 41.07 46.06 47.90 48.83 48.97 49.42 50.03 50.48 51.45 53.71 57.72 57.41 59.79 60.35 61.04 57.25 58.16 58.72 59.04 59.23 61.18 58.98 58.74 60.60 60.00 59.16 59.94 60.98 61.33 61.80 60.93 59.07 58.85 57.23 56.79 56.79 57.09 57.44 57.26 57.18 58.28 59.17
41.44 43.20 33.65 36.14 27.14 26.93 35.30 37.03 38.76 43.40 44.69 46.26 47.29 47.77 47.67 48.08 48.84 53.78 57.28 58.80 60.76 59.86 58.17 59.77 61.57 58.62 59.21 59.08 58.64 58.10 59.84 60.75 60.32 60.50 60.23 60.61 60.74 59.96 59.93 58.99 58.19 56.82 56.92 56.62 56.88 56.10 57.19 57.12 57.52
38.35 36.43 37.65 37.35 35.20 30.28 30.26 36.65 45.62 43.15 43.70 44.72 47.29 45.99 45.32 44.83 45.57 48.47 56.96 58.23 59.12 58.58 59.06 58.89 59.31 57.55 57.91 59.15 58.93 58.30 58.91 59.65 59.63 59.38 59.65 60.10 60.53 59.83 59.79 58.65 57.88 56.82 56.00 55.91 55.51 54.52 55.13 55.86 56.60
41.83 38.97 39.07 33.74 31.54 34.80 33.63 36.16 48.05 46.87 46.25 47.27 44.46 44.94 43.67 42.85 43.24 45.33 48.93 56.47 56.61 56.88 56.78 57.27 57.94 57.33 58.44 58.92 58.41 58.62 60.08 59.14 58.23 58.25 59.90 61.40 60.27 60.21 60.05 59.62 57.55 57.23 56.55 55.91 54.70 53.53 53.67 54.42 54.44

GFSSGP_sfc_wetblb_087.txt.gz
Wetbulb
62.28 61.95 61.06 57.09 49.29 49.11 45.66 48.21 51.18 49.49 51.13 55.07 56.22 53.89 53.68 56.15 54.81 54.56 68.08 72.58 73.11 73.31 74.00 72.80 71.64 72.66 73.15 73.26 73.37 73.78 74.16 74.20 74.11 74.07 74.17 73.81 74.05 73.15 73.92 73.72 73.93 74.15 74.66 73.99 73.35 73.05 72.81 72.85 72.68
60.37 59.80 58.51 53.54 47.21 44.26 46.38 50.73 49.21 50.92 52.80 55.64 56.07 55.71 54.74 54.71 59.49 63.73 67.06 71.58 72.85 72.84 74.35 73.74 71.24 72.14 72.88 73.29 73.47 73.94 74.48 74.35 74.05 73.95 74.09 74.00 74.09 73.84 73.06 73.07 73.30 73.85 74.24 74.09 73.28 73.09 73.32 72.66 71.78
62.43 59.86 52.62 49.26 47.01 44.67 45.74 50.69 50.34 51.75 53.77 53.45 53.59 57.86 57.51 56.21 61.24 63.03 70.46 71.96 71.63 71.16 73.41 74.16 70.86 71.68 72.66 72.90 73.30 73.54 73.73 73.71 73.59 73.72 74.15 74.02 74.07 74.00 73.18 72.06 72.83 73.56 73.99 74.24 73.62 72.99 72.40 71.66 70.76
58.78 55.66 53.02 46.86 46.02 48.88 49.54 51.54 51.26 51.55 53.44 54.30 54.80 53.31 58.72 62.03 63.43 65.91 70.80 71.52 71.18 71.53 72.79 70.20 70.02 71.22 72.27 72.80 72.98 73.41 73.03 72.88 72.97 73.26 73.67 73.93 72.82 72.70 71.91 71.43 71.93 73.42 73.12 73.57 73.19 72.69 71.66 70.50 70.03
57.30 53.61 46.93 45.64 46.09 48.95 51.23 51.89 51.40 51.16 52.88 52.97 53.18 51.71 54.89 61.82 64.44 67.19 69.73 70.98 71.19 72.16 73.16 73.41 69.43 70.72 71.84 72.59 72.86 72.63 72.29 72.41 72.47 72.92 72.99 72.36 72.40 71.86 71.94 71.36 71.84 72.20 71.98 71.56 71.17 70.87 70.53 69.83 69.37
52.57 52.64 45.95 44.51 46.83 49.70 51.50 52.47 51.91 50.55 52.05 53.76 53.09 52.68 54.20 61.67 63.84 67.00 69.49 70.97 72.15 72.32 73.40 74.12 70.59 70.40 70.81 71.34 71.66 71.46 71.46 71.67 72.00 71.68 71.71 71.87 71.40 71.34 70.80 70.48 70.21 69.80 68.80 69.41 69.59 69.74 69.85 69.31 69.01
51.18 49.50 45.65 46.38 46.83 48.39 50.24 52.72 50.93 50.52 50.79 50.80 53.09 51.01 55.39 59.52 65.63 68.90 69.45 71.73 72.75 73.47 73.75 74.01 73.05 71.63 69.67 69.64 69.92 70.11 70.68 70.84 70.95 70.11 70.69 70.07 69.69 69.61 69.87 69.65 69.63 69.32 68.89 68.73 69.07 69.30 69.11 69.02 67.46
53.24 50.74 46.94 47.42 45.78 46.62 51.27 50.86 52.08 50.70 50.11 54.36 53.95 50.08 52.45 60.67 63.62 68.39 70.66 71.27 72.63 73.27 73.82 73.73 73.74 73.24 72.90 72.23 68.92 69.50 70.33 70.23 70.22 70.42 68.76 68.54 68.62 69.13 68.61 68.65 68.74 68.39 67.92 68.51 68.68 68.25 68.38 67.24 66.72
54.94 47.27 44.93 46.60 47.16 48.42 51.22 49.88 52.72 53.56 51.61 52.38 53.57 53.91 56.66 60.27 62.08 66.81 68.96 70.86 71.76 72.15 72.68 73.27 72.32 73.11 73.06 71.82 71.55 69.84 69.81 69.49 68.65 69.28 67.73 67.32 70.57 70.32 68.66 67.76 67.58 67.48 67.01 67.66 68.36 67.68 67.03 65.89 65.38
50.30 46.56 46.44 50.36 50.87 49.74 50.13 50.52 50.91 50.52 50.60 51.26 51.85 54.35 56.46 58.10 59.30 61.27 66.01 68.06 69.68 70.00 72.00 72.89 71.68 71.40 72.04 71.60 72.51 72.02 71.20 71.54 71.45 71.00 70.96 70.44 70.79 70.22 68.94 67.40 66.50 66.59 66.52 67.18 67.41 66.90 65.89 65.83 68.41
50.16 46.08 49.62 50.18 51.80 51.38 50.43 50.37 51.95 50.05 48.73 51.36 51.50 53.27 54.82 55.86 58.04 58.37 62.66 66.93 68.40 69.64 70.83 72.19 72.28 71.78 72.13 71.23 72.31 71.78 71.45 72.08 71.73 71.80 71.33 71.16 70.78 70.09 68.93 66.88 67.04 67.16 66.85 66.54 67.03 66.47 67.21 68.05 68.29
47.54 49.92 50.56 50.48 51.54 50.86 49.25 50.96 49.57 50.38 51.12 53.64 53.92 54.51 54.94 54.50 56.17 56.86 58.93 62.67 67.02 68.52 69.87 71.52 72.39 70.70 72.21 71.57 70.87 70.94 71.29 71.69 71.06 70.68 71.06 70.85 69.91 69.15 68.11 67.36 66.81 67.09 68.49 67.24 65.85 65.91 67.16 68.05 67.54
46.87 47.67 49.11 50.21 49.42 49.21 50.11 48.64 48.79 49.36 52.11 53.46 53.79 54.34 54.51 54.80 54.91 56.71 58.00 59.80 63.61 67.20 69.14 71.03 71.24 71.05 71.55 70.70 69.69 70.12 70.30 70.02 69.61 70.70 70.26 70.90 69.41 68.52 68.03 66.93 67.12 67.54 68.35 65.50 63.48 64.19 66.22 67.38 67.18
47.89 48.31 47.85 49.21 49.05 49.42 48.01 48.31 49.30 50.27 52.47 52.05 52.69 53.34 54.59 55.13 55.75 56.26 56.83 58.66 61.19 65.00 68.44 71.14 70.62 70.91 71.07 70.26 69.20 68.08 69.13 68.71 68.44 68.63 69.45 69.65 69.60 68.52 67.87 67.12 66.95 67.65 67.68 66.44 63.40 63.90 64.52 67.00 66.89
48.07 44.89 46.24 47.00 47.37 46.88 48.58 45.22 46.55 50.54 51.89 51.16 51.93 53.08 53.83 55.06 55.71 56.14 56.79 58.74 60.46 62.31 66.31 70.30 70.55 70.84 70.51 69.99 70.09 68.07 68.72 67.07 66.83 67.25 69.40 68.92 68.32 67.77 67.77 67.14 67.35 65.99 66.38 66.77 63.47 63.42 64.06 65.30 65.11
42.53 43.29 39.50 45.18 46.78 47.80 47.40 41.68 48.27 51.32 50.84 50.85 51.58 52.19 53.23 54.52 55.65 56.86 56.82 58.37 60.06 61.53 63.66 69.43 70.13 70.08 70.18 70.20 69.86 68.95 66.84 66.66 67.31 68.11 68.44 68.13 67.29 67.36 67.34 66.69 66.57 66.83 65.60 65.43 62.67 62.96 62.10 62.63 62.91
41.88 37.13 39.31 41.46 46.06 46.28 46.75 44.18 48.71 51.31 50.85 50.73 51.73 52.58 53.00 54.08 55.61 57.15 57.30 58.19 59.58 61.34 64.35 68.01 70.11 69.15 69.50 69.92 69.46 68.82 67.39 66.33 66.96 67.95 67.14 66.66 66.49 66.42 66.38 66.07 65.76 65.65 64.94 64.52 63.54 62.43 62.01 62.15 61.83
36.88 38.42 40.43 40.23 43.99 44.98 44.45 44.39 46.45 48.72 49.39 49.66 50.62 52.35 53.02 53.78 54.97 57.02 57.10 58.21 59.55 62.15 65.59 68.05 69.65 68.88 69.21 69.23 67.57 67.06 65.19 65.50 65.50 65.49 65.70 66.32 65.56 65.11 64.85 64.32 64.20 63.85 64.21 64.17 63.31 61.65 61.84 62.42 61.99
40.78 39.60 38.98 41.33 43.70 41.97 41.99 43.03 44.67 46.74 47.89 48.66 49.72 50.79 52.70 54.02 56.14 57.39 57.79 58.46 60.48 63.76 66.31 67.84 68.58 68.37 68.94 66.46 64.33 64.36 62.61 64.22 63.98 64.43 64.84 64.81 65.09 64.58 64.28 63.96 63.77 63.05 63.31 62.66 62.64 61.57 60.31 60.03 61.21
39.51 38.64 38.47 41.44 43.74 43.31 43.06 43.56 46.61 47.43 47.89 49.51 50.11 51.07 51.98 53.92 55.21 56.17 57.49 58.28 61.34 64.20 66.47 67.71 67.99 68.15 67.53 66.06 66.12 65.46 64.78 64.16 65.25 65.19 64.26 64.13 63.39 63.47 62.93 62.96 62.76 62.25 61.95 61.43 61.16 60.85 59.70 60.02 61.50
39.25 37.68 38.78 39.14 42.06 44.64 43.74 42.41 44.06 48.19 50.26 50.75 51.62 52.30 52.58 53.56 54.65 55.89 56.76 57.55 61.17 63.62 65.88 67.09 67.77 68.00 67.29 66.84 66.50 65.47 64.71 63.77 63.17 62.49 63.31 65.70 65.39 65.39 64.65 64.06 62.82 61.32 62.12 60.41 60.26 60.75 59.81 57.77 60.36
37.32 42.29 40.85 39.41 38.97 35.66 45.15 35.71 43.26 46.37 47.26 49.61 50.77 52.13 52.73 52.93 54.39 55.89 56.73 56.85 59.75 63.44 65.98 67.07 67.71 67.52 67.11 67.14 65.55 64.04 62.21 61.04 62.51 62.83 64.03 64.58 64.79 64.38 64.49 63.90 62.62 61.75 60.85 59.80 60.13 61.03 60.42 59.81 59.31
38.94 43.59 42.09 41.70 40.15 39.53 39.34 37.84 41.27 46.59 45.52 48.78 51.47 52.98 54.54 54.66 54.99 55.27 56.23 57.24 57.68 63.28 65.02 66.91 66.94 66.55 66.59 66.31 65.65 63.97 62.95 62.82 63.15 63.25 62.64 62.78 62.82 62.09 62.54 61.51 61.31 60.39 60.30 59.76 59.96 59.29 60.15 60.42 60.87
44.10 42.02 41.74 40.97 39.99 33.09 37.67 38.02 39.00 44.12 46.92 48.23 51.48 53.19 55.37 56.94 57.65 57.33 58.20 58.66 57.62 61.49 65.38 66.76 65.48 65.91 65.06 65.85 65.27 64.55 63.26 62.37 61.61 61.94 61.70 60.85 61.26 60.08 59.13 59.07 60.34 60.27 59.43 58.82 59.28 59.26 59.48 60.42 60.96
41.78 38.36 31.39 30.77 30.82 30.07 40.44 38.60 41.12 47.57 49.15 49.85 50.28 52.21 53.98 54.92 56.50 59.28 59.41 58.69 58.50 61.41 64.57 65.40 64.26 64.22 63.99 64.96 65.08 64.34 63.37 62.51 61.58 61.73 61.24 59.49 58.99 58.53 57.43 57.27 57.29 58.60 59.05 58.86 59.32 59.45 60.11 61.04 60.44
39.86 38.95 31.90 25.24 28.06 32.31 40.20 34.82 41.33 49.90 50.11 50.85 52.35 52.89 54.32 54.49 55.09 56.43 59.85 60.21 60.21 61.25 64.13 62.98 61.77 61.42 62.16 64.36 64.81 63.97 62.98 62.17 61.28 62.49 60.61 60.27 59.29 59.18 58.18 57.20 56.85 57.57 58.17 58.49 58.77 59.35 59.88 60.78 61.11
39.39 35.83 41.71 34.99 36.55 32.79 36.81 40.55 48.03 49.46 48.63 49.85 50.66 51.54 52.00 52.97 53.08 53.37 56.18 60.07 61.19 62.54 61.39 60.40 60.10 60.56 61.56 64.77 64.38 62.94 62.64 61.58 61.05 62.10 62.30 61.09 61.26 59.77 59.21 58.30 57.10 56.79 57.51 57.87 57.73 57.75 57.71 58.90 60.84
42.01 43.07 34.44 36.32 27.10 26.95 34.57 37.43 39.96 43.49 45.14 47.98 48.85 49.64 50.67 51.72 50.85 49.05 53.02 56.23 61.40 61.45 59.83 59.35 60.10 60.37 61.70 64.33 63.25 61.60 61.47 61.27 61.68 62.13 61.70 61.75 61.93 60.96 60.35 58.01 58.48 56.90 56.79 57.45 57.58 57.21 57.59 57.56 58.14
39.12 37.58 38.71 38.42 36.43 30.44 29.87 36.04 46.71 45.10 46.76 47.11 48.10 49.50 49.34 49.22 48.02 44.56 46.17 49.27 59.11 59.61 58.91 58.43 59.73 59.73 60.57 62.63 61.10 60.89 60.46 60.71 61.10 60.36 61.17 61.26 61.84 61.39 60.96 59.64 57.89 56.87 56.63 56.60 56.60 56.10 55.65 55.29 55.82
42.03 39.34 39.79 33.45 32.94 36.54 35.38 37.14 48.28 48.29 48.34 48.97 48.39 48.94 48.34 47.61 45.67 42.51 42.85 44.87 55.28 58.00 58.41 59.07 58.71 58.98 59.76 60.79 59.61 59.80 60.19 60.45 59.83 59.55 60.22 61.15 60.68 60.74 59.80 60.51 58.90 57.15 56.34 56.14 55.54 55.36 55.07 54.64 55.22

GFSSGP_sfc_wetblb_090.txt.gz
Wetbulb
61.77 61.34 59.98 57.09 46.69 47.09 43.49 45.35 50.39 49.99 50.16 53.89 55.44 54.30 52.72 54.13 56.38 54.04 68.95 71.43 73.50 71.65 72.22 72.32 72.14 73.24 73.51 73.77 73.89 74.08 73.98 74.10 74.23 74.34 74.18 74.31 74.27 74.18 74.01 73.99 74.13 74.43 74.12 74.35 73.85 73.49 73.29 72.93 72.69
59.39 59.43 57.58 52.70 44.07 41.25 43.26 48.93 48.71 51.03 52.71 56.35 55.66 55.00 53.57 52.45 59.77 63.97 67.07 71.16 72.80 71.91 71.65 71.93 71.86 72.65 73.19 73.19 73.42 73.74 74.24 74.27 74.05 74.14 74.23 74.02 74.01 73.81 73.46 73.15 73.51 74.05 73.67 74.20 73.64 73.28 73.18 72.75 71.89
58.99 58.80 52.28 47.82 44.04 41.82 44.00 49.46 50.67 52.21 53.72 53.09 51.82 54.93 54.95 55.15 59.58 64.35 69.63 71.46 72.33 71.88 72.07 71.93 71.29 72.02 72.89 72.99 73.08 73.48 73.83 73.92 73.78 73.67 74.11 73.89 73.69 73.53 73.09 72.06 72.95 73.68 73.70 73.45 73.41 73.22 72.78 71.72 70.85
56.84 57.17 52.96 44.51 43.04 46.70 46.96 49.88 51.75 51.50 53.23 53.74 53.04 50.86 57.52 62.71 63.47 66.15 70.33 70.67 70.36 71.60 72.95 69.69 70.56 71.53 72.40 72.84 72.97 73.22 73.42 73.12 73.11 73.17 73.68 73.81 73.56 73.34 72.65 71.84 72.73 72.46 72.78 72.96 73.33 72.59 71.65 70.54 70.06
55.66 53.63 45.47 43.65 43.93 47.02 49.99 51.41 52.09 50.51 51.11 52.96 53.07 51.55 54.33 61.21 64.35 68.44 69.57 69.92 70.33 72.32 72.54 70.61 69.89 71.06 72.09 72.54 72.79 72.85 72.86 72.39 72.64 72.86 72.97 73.45 72.96 72.47 71.97 71.63 71.92 71.44 70.83 70.86 70.93 70.50 70.13 69.98 69.70
50.95 51.54 43.83 42.15 44.49 47.99 50.22 51.99 51.66 50.99 50.92 52.80 52.58 51.96 53.85 62.28 63.04 67.19 69.57 70.56 72.96 72.58 73.47 71.37 70.70 71.06 71.19 71.74 71.85 71.77 71.79 71.42 72.22 72.41 72.68 72.91 72.21 71.23 71.14 71.02 70.80 70.11 69.28 68.33 68.82 68.33 69.52 69.46 69.36
51.13 48.49 44.38 44.78 45.53 47.19 49.47 53.44 51.28 50.60 50.60 50.57 53.14 50.70 55.24 58.96 65.38 68.49 69.47 71.99 73.38 73.54 73.95 72.04 71.12 71.00 70.37 69.74 70.34 70.43 70.93 70.94 71.63 71.87 71.88 71.59 70.70 70.39 70.38 70.05 69.81 69.55 68.48 67.53 67.76 68.71 68.18 68.56 67.27
53.86 50.49 45.47 46.35 45.80 46.02 51.12 51.81 52.42 50.75 49.96 54.63 53.88 49.81 51.41 61.17 64.91 68.98 71.96 71.06 72.92 73.87 74.24 72.85 72.26 71.40 70.75 70.52 69.11 70.06 70.48 70.64 70.52 70.98 69.79 68.90 69.43 69.54 69.40 69.04 69.15 68.86 68.51 67.97 68.33 68.68 68.62 67.88 66.83
54.91 46.40 44.03 45.25 46.02 47.82 52.05 50.39 52.99 53.48 51.24 51.77 52.92 52.95 56.08 61.65 63.50 66.26 66.85 69.35 70.84 72.31 72.73 73.51 72.61 71.99 72.08 71.64 70.26 69.63 70.45 70.03 69.44 69.33 68.46 67.36 69.97 69.48 68.17 68.05 68.00 68.43 67.69 67.91 68.41 68.15 67.61 66.76 66.45
48.48 46.35 45.44 49.29 50.02 49.18 51.04 50.80 51.15 50.45 50.35 50.69 51.55 54.81 56.42 58.43 59.64 61.20 64.04 66.11 68.55 69.96 71.52 72.14 71.89 72.21 71.82 70.65 70.63 70.18 70.34 70.12 70.37 70.40 69.33 69.96 69.77 69.34 68.58 67.28 66.75 66.29 66.68 66.94 66.86 67.12 66.62 66.25 66.00
48.10 44.80 48.36 49.18 50.77 50.88 49.87 50.25 52.13 50.08 48.55 50.98 51.72 53.12 54.60 55.11 56.41 58.07 61.19 63.67 67.79 69.72 70.23 71.41 70.83 71.13 71.05 70.11 71.01 70.14 70.37 69.92 70.00 69.96 69.85 68.74 69.01 68.72 67.95 66.94 66.25 65.48 66.29 65.93 66.45 65.90 66.13 66.37 66.36
45.70 48.33 48.97 49.46 50.71 50.32 48.54 50.94 49.66 50.49 51.25 53.47 53.51 54.41 54.33 54.98 55.75 55.59 56.61 59.81 63.68 68.40 69.34 71.24 71.03 70.10 70.69 70.74 70.28 70.63 70.08 70.21 70.26 70.12 69.77 68.95 68.16 67.56 67.23 66.70 65.92 64.85 65.27 65.11 65.22 65.49 65.75 65.69 66.31
46.59 47.80 49.28 50.14 50.03 49.97 49.77 47.75 48.24 49.22 51.89 53.02 53.12 53.79 54.10 54.48 54.65 55.28 56.60 57.28 60.94 65.70 68.68 70.06 71.18 70.12 70.74 70.72 69.80 69.70 70.14 70.29 69.98 69.79 69.49 68.95 67.53 66.80 66.91 66.62 66.03 65.32 65.71 64.98 64.91 64.65 63.99 64.17 65.57
47.13 46.40 46.56 47.61 48.05 47.76 46.83 47.13 47.69 49.48 51.43 51.22 51.70 52.03 53.25 53.98 54.27 54.82 55.59 55.99 57.90 61.77 67.18 70.10 70.59 70.39 70.47 70.23 69.62 69.21 69.49 69.48 69.39 69.20 68.83 68.47 67.52 66.76 66.52 65.84 65.14 65.31 65.58 64.62 64.19 63.36 62.75 63.27 64.45
47.76 43.96 45.99 46.88 47.43 46.60 48.38 44.73 45.53 49.46 50.27 49.43 50.17 51.43 52.58 54.18 55.18 55.09 56.27 56.58 58.14 59.48 64.37 69.75 69.48 70.40 69.67 69.72 68.72 67.79 68.17 68.05 67.72 67.95 68.57 67.59 67.19 66.53 65.84 65.27 64.93 64.89 65.47 64.49 63.09 62.80 62.72 62.45 64.01
43.51 43.36 38.32 43.82 44.97 45.80 45.07 39.52 45.09 48.81 49.27 49.55 50.77 51.68 51.74 53.26 53.92 54.99 56.32 56.83 57.46 58.60 61.21 69.72 69.71 69.43 69.52 68.70 68.58 67.29 66.99 67.68 67.45 66.94 67.34 67.32 66.99 66.18 65.74 64.71 64.58 65.27 64.93 64.11 62.36 62.16 61.92 62.66 63.02
41.30 36.05 38.18 40.23 45.15 45.06 44.03 41.58 47.15 50.14 49.77 49.41 50.70 51.53 52.18 52.78 53.54 55.17 56.49 57.16 57.08 57.46 61.01 68.88 69.04 68.96 69.07 68.97 69.38 67.84 66.93 66.64 66.39 66.73 66.69 66.43 66.47 66.08 65.29 64.54 64.82 64.65 64.34 63.52 62.45 61.66 61.36 61.02 61.18
36.78 37.63 39.18 38.90 42.91 43.75 42.47 42.68 46.17 48.35 48.35 47.61 47.87 50.46 51.52 52.08 53.27 55.37 56.93 57.22 57.18 57.05 60.43 68.99 68.81 68.79 68.94 68.70 68.45 67.63 66.08 65.48 65.84 65.22 65.78 65.92 65.94 65.53 65.02 64.42 64.23 64.17 63.17 62.86 62.41 61.66 61.61 61.00 60.94
40.58 39.25 38.65 41.02 43.89 41.64 41.45 41.63 43.22 45.60 46.57 45.88 46.64 47.27 48.69 50.83 54.21 55.87 57.45 58.49 57.79 57.70 59.80 68.58 68.12 67.97 67.97 67.44 65.72 64.86 63.46 63.58 63.63 64.25 64.98 65.13 65.53 64.76 64.51 63.58 63.77 63.60 62.71 62.31 62.30 61.37 59.80 60.01 61.24
40.42 38.31 37.27 40.19 42.70 41.86 40.76 40.59 44.24 46.38 47.50 48.32 47.91 48.41 49.63 50.92 52.66 54.92 56.09 58.09 58.11 58.48 61.89 67.86 68.18 67.50 67.32 67.65 65.66 64.99 64.05 63.52 63.16 62.93 63.08 64.43 65.09 64.20 63.37 63.00 62.54 62.47 62.10 62.17 61.67 60.61 59.04 59.26 60.38
39.56 37.73 37.34 37.02 40.23 42.00 40.95 38.69 41.81 45.76 47.94 49.11 49.76 50.37 50.71 50.78 52.36 53.98 55.63 56.58 58.24 60.60 64.93 67.17 67.80 67.01 67.23 67.15 65.35 64.72 63.91 63.31 62.51 62.43 62.73 62.95 63.28 63.76 63.35 62.90 62.69 62.25 62.17 61.64 61.51 60.75 58.83 57.48 59.34
36.81 42.27 40.91 39.47 37.57 32.31 41.37 32.55 40.75 44.15 45.25 48.51 50.08 52.25 52.86 52.93 53.29 53.56 55.25 56.55 57.55 61.17 64.93 66.63 67.78 66.47 67.14 66.19 64.96 63.13 61.53 60.10 61.36 61.52 62.30 63.03 64.01 63.27 63.13 62.91 62.79 62.24 61.89 61.25 61.17 61.47 60.00 58.67 57.33
39.10 42.98 40.61 40.39 38.38 37.51 37.55 35.23 38.82 43.30 43.10 46.39 51.22 52.91 54.78 55.74 54.69 53.61 53.92 56.67 57.13 61.46 64.08 65.28 67.19 66.65 66.31 64.97 65.48 63.58 61.87 61.54 61.60 61.99 61.88 62.58 62.47 63.05 62.71 62.90 62.49 61.80 61.16 60.80 61.13 60.62 59.98 59.33 58.25
43.87 40.71 40.30 40.17 38.07 30.37 35.65 35.58 36.34 39.81 45.64 48.95 51.24 52.20 53.39 54.81 56.09 57.39 58.81 57.69 56.41 60.58 63.79 64.84 65.99 65.66 66.18 65.29 65.39 63.40 62.31 61.25 60.56 60.51 60.89 60.88 60.43 59.74 59.22 60.31 61.18 61.20 61.16 60.12 60.47 60.86 60.36 59.35 58.94
42.39 37.79 29.50 27.96 29.11 28.49 37.92 36.03 38.63 45.72 49.33 49.48 49.64 51.03 52.81 54.44 54.73 55.12 56.55 58.26 57.91 59.03 62.97 64.69 65.06 64.48 65.35 64.86 64.39 63.53 63.05 62.00 60.89 60.84 60.55 59.63 58.40 58.14 57.58 57.93 59.02 59.98 60.47 60.16 60.18 60.13 60.22 59.35 58.47
39.32 38.09 30.32 23.59 26.14 30.16 37.85 32.61 39.08 48.99 50.14 51.00 51.51 51.78 52.59 52.90 53.56 53.76 55.42 56.72 55.03 60.30 63.70 64.39 63.99 63.66 63.96 64.27 63.77 63.84 62.97 61.40 60.97 61.28 60.41 59.69 58.97 58.37 58.07 57.53 57.63 58.28 59.18 59.03 59.61 59.51 59.39 58.93 58.27
38.32 34.65 40.24 33.92 34.82 30.35 33.61 37.86 43.03 48.32 48.07 49.19 49.32 50.19 50.07 51.13 51.63 51.12 52.67 53.26 53.79 60.22 63.27 63.89 62.82 63.35 62.53 63.22 63.58 63.06 62.27 61.11 60.73 61.36 60.80 60.53 59.61 58.84 58.30 57.79 57.03 57.51 58.14 58.60 58.84 58.74 57.93 58.22 58.80
40.97 43.09 33.85 35.04 25.62 24.14 31.49 34.45 36.91 39.93 44.52 47.03 46.95 47.65 48.28 49.20 48.99 47.78 48.87 49.60 55.66 61.19 61.62 61.73 61.86 61.59 61.28 63.42 63.13 61.93 61.38 60.95 61.11 61.36 60.14 60.65 60.47 59.59 58.26 57.65 57.14 56.97 57.37 57.61 57.81 57.67 58.61 58.16 59.11
38.51 37.31 37.91 37.09 34.46 27.54 27.51 33.51 43.46 42.28 44.70 45.40 46.66 47.44 46.87 46.53 46.23 44.35 44.84 45.29 47.33 54.94 59.83 60.20 60.08 60.48 60.60 61.94 61.63 60.76 60.94 60.20 60.32 60.33 61.08 60.93 60.98 60.33 59.23 58.17 57.00 56.67 56.53 57.11 56.77 56.83 56.79 56.53 56.61
39.04 39.14 38.82 30.96 30.52 34.25 33.00 33.35 44.44 44.85 47.17 48.15 47.69 47.38 46.13 45.35 44.69 42.05 41.44 41.50 42.67 43.90 48.72 59.01 59.18 59.15 59.91 60.24 60.29 60.11 59.38 59.62 59.89 59.77 60.46 60.26 59.89 60.47 59.57 58.81 57.69 56.56 56.27 56.37 55.77 55.29 55.33 54.88 54.65

GFSSGP_sfc_wetblb_093.txt.gz
Wetbulb
58.53 57.52 55.08 50.85 40.24 36.81 33.14 38.96 45.39 44.94 44.59 51.02 52.16 51.87 49.48 49.77 54.59 52.01 67.37 69.81 70.31 70.30 71.83 72.15 72.24 73.18 73.66 73.67 73.23 73.30 73.87 74.18 74.26 74.22 74.28 74.29 74.27 74.18 73.91 73.76 73.92 74.57 75.09 74.62 73.82 73.54 72.76 72.72 72.79
55.70 56.56 52.43 46.14 35.82 30.10 34.40 43.61 43.94 46.80 50.88 53.03 53.15 51.61 50.51 51.15 61.33 64.05 66.41 69.79 70.15 70.51 71.01 71.55 71.97 72.54 72.92 73.32 73.45 73.07 73.86 74.11 74.17 74.25 74.22 74.21 74.21 74.08 73.88 73.46 73.46 74.06 74.49 74.22 73.82 73.47 73.15 72.50 71.83
55.11 55.86 44.72 40.20 35.18 33.44 34.66 43.39 45.83 48.39 50.56 49.76 49.17 51.46 52.01 54.95 62.06 64.63 68.93 69.88 69.75 69.18 70.59 71.27 71.28 71.91 72.57 72.65 72.86 73.21 73.30 73.35 73.65 73.73 74.20 74.09 74.17 74.02 73.80 72.92 73.23 74.09 73.90 73.21 72.95 72.78 72.75 71.70 70.89
52.03 49.67 47.59 36.58 34.71 38.79 41.96 44.67 47.05 47.31 49.18 49.55 48.07 48.13 54.96 61.79 62.44 66.48 69.43 70.35 69.13 69.04 70.70 69.90 70.41 71.26 72.24 72.46 72.49 72.89 72.97 72.48 72.63 72.94 73.91 73.97 73.94 73.81 73.11 72.47 73.31 73.13 72.56 71.95 72.14 72.49 71.58 70.40 70.24
47.22 45.17 38.29 34.29 37.02 40.86 45.10 46.85 47.93 47.47 48.06 50.72 49.99 49.06 51.70 59.81 67.01 67.64 67.19 69.08 68.56 69.30 69.36 69.78 69.61 70.86 71.77 72.41 72.43 72.51 72.53 72.20 72.41 72.70 72.96 73.32 73.25 72.99 72.42 71.79 71.81 71.52 71.18 71.65 71.70 71.28 70.53 69.44 69.25
41.99 43.96 34.39 35.64 38.84 43.79 46.26 47.59 47.93 48.33 48.67 49.49 48.93 49.22 50.16 58.44 63.94 65.38 66.23 69.39 70.54 69.21 69.08 69.60 70.80 70.97 71.08 71.41 71.57 71.59 71.82 71.88 71.25 72.17 72.55 72.91 72.24 71.59 71.52 71.51 71.02 70.34 69.89 70.28 69.89 69.77 69.62 69.27 68.65
42.03 39.06 35.81 36.52 39.72 43.05 46.50 49.07 47.17 47.25 47.31 46.68 51.41 48.74 50.75 59.83 62.84 65.53 66.09 69.39 70.56 70.55 68.67 68.60 69.21 70.50 70.21 69.78 70.07 70.26 70.85 70.57 70.54 71.71 71.73 71.74 70.73 70.42 70.75 70.70 70.24 69.77 68.98 68.80 68.53 68.61 68.53 68.84 68.60
46.19 43.37 39.65 40.22 40.44 41.50 47.88 49.66 49.15 46.83 45.70 53.09 48.99 46.28 45.54 57.47 62.84 64.52 66.17 67.55 69.14 70.31 68.85 68.12 68.24 68.40 67.88 67.83 69.09 69.70 69.93 69.46 70.17 71.38 70.62 69.77 69.67 69.89 69.91 69.54 69.51 69.18 68.66 68.60 68.62 68.24 67.66 68.26 67.72
48.37 42.24 39.81 41.24 42.17 44.27 49.53 47.15 48.97 49.96 47.15 48.77 49.75 48.62 57.48 61.00 62.72 61.87 62.93 66.15 67.94 69.89 69.38 68.72 68.37 68.13 67.31 67.36 68.75 69.74 70.28 69.69 69.37 69.44 68.78 67.36 68.53 68.46 68.51 67.88 68.57 68.39 67.46 67.82 67.98 67.74 67.74 67.49 67.00
41.59 39.33 41.62 45.64 46.68 46.15 48.11 44.99 47.00 47.40 46.93 48.55 48.32 51.64 54.53 58.13 60.06 60.11 60.04 64.32 66.65 67.43 69.33 69.48 68.89 68.57 68.46 69.35 67.77 67.04 69.12 68.96 67.97 68.28 67.32 67.54 67.43 67.05 67.22 67.30 67.49 67.31 66.82 66.91 67.53 67.54 66.53 66.73 66.47
41.32 39.11 43.48 46.14 49.12 48.16 46.55 46.40 47.49 46.92 45.73 47.81 48.68 49.03 50.57 53.19 54.39 58.59 60.25 62.32 66.83 68.53 69.63 69.23 69.11 68.84 68.50 67.55 67.38 67.72 67.56 67.74 67.61 67.47 66.69 66.76 67.25 66.78 65.75 65.68 66.13 65.68 66.71 65.91 65.80 66.00 66.08 65.91 65.13
40.10 44.43 45.12 45.97 47.57 47.03 45.91 46.21 46.71 46.22 47.59 50.49 49.72 50.11 50.40 50.84 50.83 51.63 55.03 56.41 62.97 67.51 68.97 69.39 68.87 68.21 67.70 66.98 67.83 67.34 67.72 67.11 66.97 66.71 66.96 65.63 66.23 65.83 65.51 64.78 63.95 63.27 64.36 64.04 64.61 64.92 64.82 65.38 65.82
42.95 44.84 46.57 47.04 47.38 47.23 47.42 45.99 45.65 45.70 47.30 48.56 49.60 50.27 49.28 50.21 50.07 50.51 52.29 55.32 56.69 66.14 68.20 69.12 68.49 68.04 68.35 67.14 67.67 67.25 67.65 67.38 67.45 67.25 66.91 65.90 65.88 65.50 65.62 64.47 64.36 63.93 63.63 63.35 63.46 63.89 64.09 63.87 65.19
43.33 43.41 43.72 44.28 44.22 44.51 44.50 43.37 44.00 46.26 47.23 47.47 48.50 48.55 49.54 49.42 49.59 49.40 49.54 51.34 52.76 56.29 67.45 69.23 68.34 67.88 68.55 67.92 66.13 65.90 67.83 67.29 66.55 66.62 66.33 65.75 65.54 65.25 64.84 64.45 64.64 64.01 63.96 63.75 63.31 63.55 63.35 62.59 64.01
45.06 40.65 42.31 42.54 42.74 43.25 44.91 41.79 42.91 46.65 47.21 47.05 47.54 48.01 48.78 50.03 50.93 49.86 50.31 50.14 51.82 53.89 63.35 68.42 68.48 68.35 68.43 68.05 66.11 65.49 65.72 66.51 65.62 65.83 65.88 65.64 65.25 64.51 64.01 63.59 63.57 64.12 64.09 63.08 62.76 62.39 62.29 62.11 63.51
40.03 39.47 34.34 40.58 42.43 43.63 41.44 36.45 43.45 46.13 45.24 44.84 46.40 47.19 48.18 48.76 50.02 50.65 51.00 51.38 51.43 52.70 54.66 68.02 69.14 68.12 67.79 67.22 66.11 65.34 64.82 64.81 64.73 64.58 64.81 64.92 65.06 64.68 63.43 62.90 62.53 64.23 63.32 62.42 61.81 61.43 61.06 61.06 61.35
36.10 31.40 33.74 37.37 42.49 41.99 39.89 37.49 42.24 44.10 44.79 44.46 44.45 44.37 45.38 47.30 48.33 49.59 50.72 51.46 52.62 52.02 52.36 66.96 68.28 67.11 67.04 66.55 65.59 64.84 64.39 64.53 64.54 63.88 63.66 64.16 64.48 64.46 63.27 62.69 62.72 63.60 63.00 61.76 61.25 60.95 61.31 60.59 60.85
30.62 32.01 32.54 33.31 37.24 39.13 37.51 37.06 41.53 43.84 44.55 43.40 42.96 44.12 45.51 47.04 47.95 50.27 50.54 51.93 52.90 53.68 52.52 66.61 67.19 66.95 67.17 66.57 65.40 64.86 64.22 63.20 63.39 63.64 63.27 63.97 64.56 63.55 62.96 62.57 62.41 62.97 62.66 62.24 61.27 60.28 60.93 60.79 60.84
36.20 34.83 33.52 36.26 39.91 37.92 37.38 37.62 39.74 41.55 42.12 42.61 43.36 44.23 45.89 45.82 48.15 49.55 50.94 52.07 53.40 54.46 53.21 66.06 66.27 66.34 66.43 65.74 64.89 63.79 62.92 63.02 62.28 62.94 64.11 63.99 63.77 62.59 62.13 62.19 61.69 62.83 61.98 61.26 60.93 60.78 60.36 60.06 60.92
36.95 34.56 33.60 36.98 40.02 37.84 36.51 36.54 39.79 41.35 42.18 44.29 45.04 45.63 45.84 46.28 48.38 50.00 50.90 51.89 52.63 53.85 55.16 65.75 66.17 66.63 66.46 66.14 65.44 64.01 62.68 60.75 61.20 62.79 63.65 63.58 62.64 62.10 62.05 62.16 62.57 62.07 61.00 60.76 61.55 61.12 59.77 59.78 60.99
36.96 34.95 34.23 34.86 37.11 37.77 36.12 34.47 37.28 42.27 44.17 45.97 47.04 47.06 48.24 46.65 47.55 49.52 51.01 51.94 52.51 52.41 57.63 65.39 66.06 66.24 65.95 65.05 63.31 62.05 61.02 60.30 58.77 59.44 60.76 62.85 64.19 62.58 62.06 62.61 62.60 62.39 62.26 61.57 61.33 60.80 59.62 58.04 59.77
33.93 39.66 39.21 38.08 34.83 28.47 35.00 27.13 35.78 40.82 42.75 45.32 46.65 47.51 45.61 50.93 52.99 50.83 49.84 51.22 51.44 53.20 63.89 65.71 65.97 65.69 65.22 64.44 63.46 61.12 60.43 59.00 58.90 59.39 60.49 62.01 63.11 63.24 62.49 62.51 62.10 62.09 61.57 61.28 61.54 60.98 59.51 58.73 57.40
37.30 41.63 39.27 37.24 33.24 32.49 33.78 30.13 34.77 41.10 40.63 42.58 48.32 50.05 49.60 50.94 52.60 52.84 54.54 55.47 53.49 56.46 65.11 65.62 65.14 65.28 64.86 63.51 62.60 60.93 59.24 58.36 59.47 58.99 59.53 60.63 60.85 62.19 62.36 62.10 60.61 61.61 61.69 61.51 61.72 60.59 59.55 59.13 57.98
42.10 38.87 38.38 35.34 32.50 26.19 32.66 31.59 31.77 35.75 39.77 46.10 49.35 49.97 50.73 51.04 52.07 53.34 54.70 55.32 55.78 55.84 62.56 65.22 64.35 64.46 64.27 63.05 62.36 61.25 59.63 58.44 58.82 58.06 58.20 59.51 61.24 61.57 61.12 62.02 61.83 61.04 61.25 61.16 61.26 61.30 60.06 59.15 59.06
37.87 33.31 23.93 22.40 22.75 23.89 35.95 33.00 34.61 42.31 46.46 47.70 47.99 48.95 49.50 50.56 50.53 50.57 50.75 51.25 52.78 53.44 54.69 62.94 63.66 63.22 63.47 62.84 62.31 62.14 61.07 58.91 57.95 57.51 58.60 57.65 57.68 57.43 57.70 58.23 58.65 59.74 61.13 60.91 61.11 60.97 60.44 59.42 58.72
35.28 33.67 26.57 20.22 21.08 25.97 36.48 29.92 35.31 44.58 44.40 46.67 49.87 48.91 49.28 48.92 48.09 47.30 48.31 48.97 49.33 54.87 56.32 60.30 62.46 62.75 62.06 62.17 61.51 61.94 61.55 58.59 58.74 58.84 58.42 56.54 56.36 57.55 57.47 57.02 57.61 58.61 58.49 59.99 60.56 60.43 60.34 59.77 59.02
35.08 32.19 38.18 31.33 31.67 26.90 30.62 35.58 41.39 43.14 42.59 42.96 46.30 45.94 45.59 46.05 45.21 44.68 45.33 46.35 46.57 49.36 58.56 59.42 60.61 61.68 61.65 61.21 61.34 61.82 61.01 58.88 58.87 58.37 58.59 57.93 57.92 57.00 56.68 56.94 57.19 57.65 58.31 59.25 59.55 59.64 59.64 59.86 59.06
37.68 39.49 28.66 31.35 25.34 22.23 29.30 31.49 34.29 39.91 40.37 43.74 43.55 43.23 43.64 44.05 42.97 42.13 42.54 43.17 44.16 46.74 52.14 59.24 60.16 59.62 61.24 61.55 61.42 61.30 59.89 59.42 58.87 58.71 57.68 57.98 58.78 58.29 57.49 56.64 56.62 57.05 57.45 57.95 58.43 58.01 58.85 58.87 58.78
36.76 34.16 35.94 35.24 31.52 24.04 24.84 31.45 40.81 39.30 41.00 43.38 42.74 42.73 41.51 41.28 40.01 39.80 39.98 40.78 41.32 43.53 46.41 50.06 58.42 59.50 59.38 60.33 60.77 59.89 58.94 59.85 58.98 58.37 58.37 57.78 58.77 57.06 57.11 56.89 56.32 56.38 56.70 57.07 56.89 57.47 57.63 57.11 57.58
39.00 36.32 35.05 28.39 28.03 32.10 29.58 30.91 41.12 41.65 42.94 45.18 42.33 41.54 40.33 39.15 38.25 37.91 37.72 38.49 38.70 39.73 41.95 44.11 47.40 57.31 57.50 59.93 59.23 59.20 58.83 58.64 58.95 59.66 59.96 59.95 58.97 58.65 57.88 56.98 56.20 55.77 56.50 56.56 56.06 56.14 56.44 57.14 57.23

GFSSGP_sfc_wetblb_096.txt.gz
Wetbulb
57.37 55.00 53.30 49.30 39.34 34.56 30.99 36.57 40.91 42.63 43.98 48.00 50.55 49.94 48.48 48.75 52.90 49.37 66.43 69.55 69.66 69.98 71.43 72.34 72.26 72.86 73.20 73.22 73.11 73.21 73.58 73.89 74.02 73.90 73.82 73.90 74.04 73.87 73.81 74.08 74.34 74.65 74.78 73.98 73.72 73.48 73.16 72.71 72.68
53.46 55.02 50.20 43.61 34.46 28.59 31.68 38.93 41.50 43.44 46.87 50.15 51.49 49.89 48.42 52.52 62.14 65.30 65.40 69.56 69.79 70.46 70.98 71.73 72.20 72.68 72.89 72.84 72.98 73.15 73.86 74.04 74.10 73.98 73.86 73.91 73.91 73.72 73.62 73.67 73.79 74.24 74.65 74.08 73.26 72.97 72.68 72.44 71.80
53.37 53.88 43.85 39.12 32.30 30.62 31.86 39.97 43.94 45.62 47.51 47.61 47.55 49.76 50.92 55.16 64.98 65.53 68.03 69.54 70.13 70.11 70.97 71.30 71.69 72.14 72.65 72.49 72.45 72.82 73.20 73.50 73.52 73.53 73.91 73.96 74.04 73.82 73.55 73.07 73.47 74.26 73.97 73.96 73.11 72.81 72.18 71.59 70.79
50.27 48.57 44.64 36.30 33.24 36.18 38.62 42.47 43.35 45.38 47.34 48.36 47.25 46.28 54.94 60.07 64.69 67.24 68.92 68.90 68.18 69.30 70.27 70.12 70.52 71.28 72.29 72.74 72.66 72.59 72.54 72.34 72.59 72.99 73.59 73.96 73.94 73.75 73.06 72.59 72.01 73.90 73.33 73.38 73.36 72.39 71.76 70.34 70.07
45.26 43.29 36.10 32.61 35.92 38.31 42.35 44.85 44.00 44.65 45.95 48.35 48.33 47.02 51.60 62.82 66.51 68.79 68.12 67.77 66.70 68.26 69.12 69.62 69.56 70.91 71.81 72.29 72.51 72.34 72.12 71.85 72.14 72.70 73.05 73.23 73.51 73.29 72.52 72.08 72.38 72.57 72.39 72.47 72.65 71.90 70.70 70.07 69.71
40.52 41.07 32.75 33.68 36.94 41.65 43.83 44.74 45.57 46.49 47.22 47.58 46.53 47.55 49.38 63.00 66.87 67.67 68.23 66.90 67.71 67.83 68.52 69.27 70.57 70.86 71.04 71.37 71.30 71.09 71.30 71.48 71.66 71.95 72.38 72.84 72.58 72.21 71.88 71.65 71.47 71.24 70.98 71.04 71.13 70.57 70.18 69.85 69.72
38.14 36.34 33.35 33.31 37.08 39.96 44.57 46.66 45.71 46.42 45.51 45.95 49.50 46.41 50.37 59.07 64.20 65.88 67.79 68.35 68.46 67.96 67.87 68.48 69.20 70.35 69.92 69.36 69.65 69.93 70.54 71.03 70.65 71.38 71.36 71.64 71.02 70.49 71.12 71.18 70.84 70.49 70.36 69.93 70.00 69.75 69.43 69.38 69.22
43.32 40.08 35.30 36.82 38.34 39.17 46.67 47.62 47.63 45.75 45.96 50.89 48.51 45.91 44.70 57.33 63.18 64.95 68.09 68.08 67.98 67.40 67.22 67.56 67.94 68.12 67.67 68.35 68.93 69.32 69.84 69.22 69.86 70.64 70.10 69.94 69.93 70.11 70.13 69.87 69.95 69.60 69.21 69.10 69.16 68.77 68.49 68.68 68.20
45.25 36.92 35.05 37.87 40.96 43.46 49.14 45.33 46.76 48.73 46.53 48.22 48.28 47.94 55.40 60.10 62.96 64.12 65.45 66.35 67.24 67.29 66.77 67.20 67.31 67.26 66.52 66.90 69.00 69.56 69.43 68.95 69.01 69.58 69.45 68.48 69.18 68.88 68.89 68.22 68.68 68.37 67.23 67.98 68.01 67.79 67.12 67.32 67.02
39.73 35.03 38.55 44.16 45.20 44.91 47.26 43.71 45.77 45.30 45.37 47.34 47.72 51.20 57.97 58.98 59.40 60.73 63.62 65.11 66.44 66.59 66.38 66.84 66.97 66.75 66.18 68.41 67.47 67.35 69.07 68.68 68.10 68.39 68.51 68.23 67.40 67.13 67.60 67.51 67.58 66.58 66.13 67.02 67.23 67.00 66.60 66.71 66.26
38.88 37.48 40.65 42.72 45.69 45.79 44.64 45.12 46.48 45.16 43.95 46.10 46.73 48.43 50.58 54.79 56.02 56.89 61.46 65.30 65.83 67.54 67.45 67.45 67.25 66.86 66.75 67.31 66.83 67.96 68.41 68.01 67.33 66.90 66.68 65.96 66.43 65.89 65.84 66.18 66.68 65.72 66.15 65.23 66.10 66.01 65.89 65.86 65.67
37.73 41.70 42.67 43.74 45.38 44.63 43.78 46.35 44.92 44.82 46.69 49.08 48.54 48.81 49.08 49.65 52.49 54.63 56.75 63.42 65.47 67.01 67.88 68.16 67.97 67.40 67.56 67.49 66.56 66.93 67.16 66.92 67.17 66.86 65.94 65.73 65.72 64.69 64.53 65.08 64.01 64.63 64.88 63.57 64.45 63.42 63.73 64.73 65.48
40.05 42.63 44.78 45.67 45.84 45.59 46.25 44.19 44.65 45.69 46.87 47.44 46.98 47.82 47.98 48.37 47.56 49.74 51.16 55.63 65.22 66.28 68.06 68.27 68.45 68.18 67.91 67.47 66.75 66.31 66.47 66.49 66.63 66.23 66.03 65.51 65.66 64.60 64.40 64.08 63.38 63.18 63.74 63.48 62.32 62.11 62.56 63.64 64.88
41.35 41.79 41.32 42.31 42.58 42.61 42.46 41.80 42.17 44.63 46.56 46.10 46.91 46.68 46.89 47.33 47.29 47.07 47.82 49.70 52.91 65.40 67.69 68.37 68.27 68.75 68.47 67.01 67.00 66.37 66.97 66.55 66.14 66.27 66.23 65.11 65.74 64.85 64.49 64.43 63.63 63.13 63.38 63.73 63.23 62.53 62.42 62.13 64.16
43.25 39.13 40.48 39.99 40.65 40.14 41.52 40.15 40.58 44.37 45.44 44.88 45.88 46.07 47.28 48.27 48.36 47.17 48.57 48.27 50.67 53.33 66.94 67.82 67.69 67.95 67.96 67.37 66.95 66.42 67.09 66.55 65.96 66.19 65.17 64.89 65.29 64.95 64.54 64.42 64.26 63.40 63.50 62.86 62.30 61.64 61.89 61.34 63.48
38.14 37.52 32.37 38.91 40.91 41.80 39.33 35.87 40.63 43.16 42.41 43.32 44.93 45.83 46.50 46.21 47.88 49.01 49.77 48.96 48.86 49.74 62.62 67.85 68.47 66.89 67.26 67.17 66.78 66.35 66.79 66.71 66.01 65.75 65.26 64.78 64.69 64.51 63.86 63.58 63.54 64.10 63.76 63.09 62.41 61.93 61.49 60.77 61.29
33.75 29.96 32.66 35.66 40.79 39.58 37.68 36.79 39.69 42.12 42.23 41.57 41.93 42.47 43.53 44.43 46.35 46.96 48.07 49.79 50.88 50.25 56.92 66.76 67.69 66.79 66.96 66.52 66.50 66.11 66.01 66.33 65.49 64.60 64.22 63.76 64.19 64.18 63.55 62.73 62.61 64.12 63.76 63.22 62.38 61.67 61.16 60.13 60.36
28.80 30.37 29.74 31.14 35.74 36.53 35.09 34.93 39.75 41.15 40.44 41.12 40.27 41.35 42.23 43.38 44.50 47.10 48.50 48.20 49.56 50.97 51.04 65.66 67.40 66.96 67.23 66.31 65.50 64.97 64.85 64.86 64.57 64.29 63.63 63.19 63.85 63.75 62.93 61.83 62.07 63.32 62.54 61.59 61.35 60.83 60.52 60.63 60.36
34.12 33.09 31.49 34.07 37.18 36.18 35.88 35.83 37.76 38.38 38.68 38.24 40.65 41.27 41.54 43.35 46.19 46.07 47.35 48.45 48.97 49.45 50.07 64.42 66.25 66.59 66.28 65.03 63.89 63.27 63.05 63.01 62.95 63.19 63.01 62.45 63.50 63.19 62.17 61.61 61.69 62.35 61.69 61.46 60.79 60.24 59.58 59.71 60.59
33.81 31.69 31.24 35.45 38.10 36.76 35.17 35.13 38.53 39.61 38.86 41.37 41.97 42.94 43.64 45.14 46.43 47.36 46.48 46.87 48.51 49.76 50.84 61.42 65.62 65.99 65.99 65.93 65.48 63.97 63.74 62.99 63.05 62.80 62.95 62.71 62.51 62.95 63.33 61.77 61.40 62.00 61.85 61.29 60.92 60.34 59.46 59.42 60.46
34.49 32.20 32.81 33.24 35.81 34.87 33.45 33.34 36.37 40.40 41.35 42.29 43.53 44.24 45.91 46.14 46.63 47.98 48.07 46.89 47.55 49.14 51.12 61.16 65.01 65.69 66.10 66.37 64.95 63.12 60.65 59.57 59.41 61.35 62.74 63.22 63.10 62.69 62.41 61.71 61.29 61.18 61.44 60.12 60.48 60.17 59.43 58.09 59.88
32.14 37.91 37.17 36.07 32.34 28.50 34.34 25.98 35.29 38.77 39.77 42.27 43.81 44.71 47.56 48.96 50.55 52.17 52.21 52.74 52.42 51.78 51.19 60.18 64.81 65.50 66.02 65.68 63.73 62.10 61.92 60.54 59.93 61.01 59.43 62.07 63.55 62.78 61.10 60.83 61.10 61.79 61.53 60.74 60.58 61.23 59.64 59.35 58.00
35.04 39.48 37.76 36.23 31.50 29.31 32.78 26.91 33.34 37.44 37.51 40.39 43.06 48.39 48.70 49.36 50.87 50.77 51.66 52.43 53.45 53.95 55.20 63.02 64.85 65.61 65.64 64.11 63.87 62.36 61.31 59.65 59.59 59.03 58.81 58.81 61.83 62.78 62.35 61.42 61.49 61.33 61.12 60.99 61.09 60.54 59.66 59.79 59.04
39.55 37.17 35.00 33.70 30.68 25.09 31.93 28.24 30.17 32.96 37.19 42.13 46.75 48.84 49.64 49.11 48.52 48.39 49.09 50.31 50.64 51.47 54.55 61.64 64.67 65.09 64.50 63.87 62.71 62.07 59.71 58.71 58.92 58.62 58.39 58.71 58.54 60.48 61.00 60.27 61.48 61.01 60.90 59.54 61.10 60.90 59.33 58.71 58.66
35.79 31.35 23.81 21.82 20.52 23.06 32.70 29.35 32.21 38.35 42.90 43.11 43.86 46.98 47.12 46.07 45.60 45.56 44.78 45.39 47.47 48.08 50.88 56.41 63.33 63.34 63.56 63.45 61.96 61.33 59.60 59.30 58.93 58.36 58.13 58.49 59.64 59.93 60.68 60.61 61.13 61.05 60.48 59.80 61.34 61.11 60.31 59.02 58.20
32.79 34.00 26.64 20.52 20.69 23.34 32.69 26.66 32.75 43.51 45.29 46.01 45.09 46.11 45.06 43.65 43.39 42.32 43.71 44.05 44.55 46.53 49.63 55.37 62.30 63.01 62.40 61.94 61.30 60.75 59.88 59.32 59.22 59.05 58.58 59.05 59.55 59.47 58.35 58.47 58.62 59.14 59.56 60.31 60.67 60.83 60.64 59.83 59.11
34.18 29.19 34.83 29.44 30.23 26.68 28.06 32.39 39.51 43.06 42.98 43.82 43.06 44.00 41.81 40.49 39.99 40.02 41.77 42.03 42.36 44.21 46.67 51.96 60.23 61.48 61.82 61.52 60.64 60.12 60.10 58.46 58.10 58.20 58.86 57.54 56.53 55.80 55.18 56.41 56.41 56.95 57.53 58.31 59.02 59.94 59.90 60.10 59.27
37.73 38.14 27.94 28.27 21.79 20.34 26.29 28.51 31.23 37.46 38.88 41.74 42.34 40.14 39.10 38.67 37.85 38.39 39.27 40.08 41.49 43.33 44.60 48.15 54.94 60.10 60.65 60.13 60.46 60.23 59.09 59.11 59.22 58.56 57.29 56.97 56.61 56.41 55.34 55.70 55.78 56.11 57.13 57.70 58.64 58.72 59.36 59.30 59.46
29.79 30.85 34.04 33.94 30.43 23.45 22.37 27.10 38.88 39.03 40.45 40.64 41.37 38.73 37.04 35.90 35.39 36.03 36.92 38.48 39.33 41.23 42.81 44.53 46.28 54.65 57.29 57.52 60.03 59.36 58.71 59.31 59.27 58.21 57.47 57.25 57.39 57.53 56.76 56.37 55.82 55.73 56.21 57.04 57.50 57.80 57.86 57.86 58.64
31.51 30.32 34.72 28.76 27.41 29.47 26.96 28.47 41.08 40.02 41.87 41.29 37.87 37.13 36.51 34.85 34.30 33.79 35.26 36.27 37.01 37.79 38.79 41.30 42.76 47.03 53.82 56.94 59.56 58.77 58.92 58.95 58.68 58.22 57.81 57.05 56.81 57.60 57.21 56.65 56.09 55.78 55.89 56.55 56.27 56.27 56.81 56.71 56.94

GFSSGP_sfc_wetblb_099.txt.gz
Wetbulb
56.51 53.05 51.44 47.70 38.35 33.80 29.66 34.34 37.72 39.30 41.52 44.22 47.38 48.20 47.09 47.32 50.77 46.18 65.19 68.35 69.21 69.71 71.76 71.74 72.21 73.06 73.02 73.02 72.90 72.98 73.42 73.56 73.76 73.94 73.93 73.90 73.98 74.07 74.14 74.06 73.90 74.60 74.80 73.93 73.47 73.27 73.18 72.94 72.02
51.75 53.45 48.03 41.27 33.09 28.07 30.40 36.40 39.28 40.68 45.26 47.27 48.29 48.45 47.24 50.03 61.09 64.17 65.07 68.93 69.43 70.20 71.31 71.65 72.07 72.52 72.87 72.84 72.83 72.99 73.65 73.75 73.68 73.65 73.80 73.96 73.99 73.98 74.00 73.89 73.75 74.29 74.47 73.78 73.34 73.30 72.91 72.55 71.62
51.72 51.37 42.98 38.34 31.00 29.87 30.76 37.22 39.13 43.51 45.56 44.81 45.26 47.67 48.95 52.53 63.46 64.86 67.23 68.82 69.60 69.86 71.13 71.42 71.55 71.87 72.51 72.49 72.67 72.84 73.05 73.09 73.10 73.18 73.81 73.89 73.74 73.99 74.04 73.29 73.35 74.12 74.27 73.78 73.11 72.83 72.50 71.56 70.79
48.86 47.18 42.86 35.08 31.96 34.57 36.47 38.48 40.97 43.37 45.64 45.45 44.63 44.70 50.68 61.54 64.89 66.29 68.81 69.29 68.94 69.58 70.63 70.37 70.75 71.49 72.15 72.37 72.49 72.54 72.38 72.18 72.30 72.63 73.33 73.79 73.72 73.80 73.57 72.38 73.32 74.06 73.97 73.90 73.33 72.62 71.64 70.34 69.94
44.35 42.15 33.98 31.72 33.63 37.05 40.15 42.10 42.69 43.16 44.26 46.65 47.52 45.49 48.13 61.85 66.05 67.72 68.19 68.89 68.01 68.73 69.43 70.17 69.95 70.98 71.98 72.26 72.30 72.27 71.96 71.56 71.87 72.42 72.91 73.05 73.33 73.26 72.65 72.09 72.54 73.04 73.31 72.90 72.83 72.02 70.76 70.10 69.73
39.69 39.75 32.04 30.58 33.71 39.09 42.44 43.36 44.08 44.42 45.54 46.20 44.78 45.14 47.73 61.78 65.85 66.48 67.32 66.93 67.95 67.96 69.02 69.70 70.57 70.80 71.16 71.63 71.56 71.02 71.00 71.34 71.49 71.78 72.13 72.84 72.64 72.28 72.00 71.88 72.04 71.78 71.48 71.67 71.42 70.50 70.17 69.80 69.64
36.59 35.42 32.16 32.18 35.43 38.18 42.71 45.83 43.60 44.00 44.03 45.44 47.92 44.93 48.98 60.52 64.69 66.58 65.32 64.48 66.61 67.29 68.08 68.71 69.61 70.41 69.94 69.45 69.65 69.63 70.22 70.71 70.82 70.96 71.13 71.49 71.06 71.03 71.46 71.45 71.38 70.89 70.64 70.82 70.64 70.05 69.54 69.71 69.37
41.14 37.88 32.11 34.47 36.38 37.51 44.67 46.40 45.80 44.54 44.42 50.08 47.04 43.48 46.60 58.84 63.29 66.55 66.84 65.79 65.29 65.51 65.92 67.06 68.75 69.14 68.89 68.78 68.46 68.98 69.55 69.70 69.95 70.40 70.08 69.90 69.92 70.36 70.44 70.27 70.46 70.26 70.00 70.02 70.19 69.58 69.22 69.22 68.45
43.55 35.32 31.41 35.32 37.81 40.19 46.56 42.96 45.31 46.99 45.09 47.19 47.91 46.59 53.79 60.54 65.49 65.49 65.33 64.78 64.54 65.09 64.65 66.20 67.61 67.78 67.20 67.35 68.78 69.41 69.95 69.36 68.73 69.43 68.96 68.39 69.21 68.91 69.26 68.64 68.91 69.12 68.35 68.69 69.24 68.89 68.07 67.76 67.09
38.37 32.76 35.83 41.93 42.86 43.38 46.22 42.67 46.39 44.10 44.93 45.83 46.46 49.67 51.40 57.82 61.23 63.72 63.67 63.95 63.82 64.10 64.35 65.30 66.22 66.04 65.68 68.10 68.23 68.82 69.14 67.72 67.58 68.96 69.17 68.82 67.76 67.45 68.03 67.74 67.67 67.31 66.91 67.35 67.48 67.22 66.46 66.31 65.05
36.41 35.28 38.99 41.16 43.74 42.36 41.82 43.44 45.42 43.81 43.41 45.60 45.72 46.95 48.57 49.93 54.79 57.48 63.56 64.86 65.33 65.86 65.54 65.62 66.02 65.89 65.73 66.99 67.83 68.36 68.99 68.03 66.68 68.06 68.84 67.19 66.85 66.43 66.47 66.40 66.86 65.75 66.42 64.83 65.14 65.05 64.65 64.36 64.80
35.91 39.70 40.72 40.59 42.93 41.85 41.61 44.49 43.55 43.40 44.92 47.97 47.89 48.23 47.10 48.66 49.19 53.48 56.18 61.35 64.53 65.70 65.79 65.86 65.72 65.73 65.87 66.45 66.93 67.56 67.87 67.40 67.92 66.84 66.13 67.06 66.54 65.09 64.78 65.70 65.55 64.59 64.40 63.05 63.02 62.99 63.90 64.25 64.44
36.87 39.42 41.85 43.51 43.75 43.06 44.37 42.33 42.79 43.84 46.09 46.61 46.85 46.42 45.85 47.08 47.29 48.03 50.71 57.32 63.08 64.62 66.40 66.12 65.90 65.50 65.90 65.66 66.15 66.46 66.42 66.60 66.93 67.54 65.98 66.16 66.24 65.16 64.37 64.21 64.78 64.54 63.81 62.89 62.42 61.97 63.58 64.43 64.86
39.81 39.72 39.70 40.19 40.38 40.93 40.94 41.15 39.62 42.91 45.20 44.48 45.37 45.39 46.19 45.84 45.67 45.88 46.62 47.64 56.66 64.70 66.28 67.14 66.62 66.11 66.19 65.92 65.57 65.61 66.28 66.31 66.19 66.79 66.27 65.51 65.53 64.69 64.01 63.33 63.33 62.81 63.24 62.80 62.63 62.14 62.25 62.44 63.04
41.77 37.73 38.77 39.69 39.99 39.02 41.31 37.52 38.89 42.72 43.43 42.40 42.63 43.34 44.60 46.54 47.05 45.70 46.18 47.32 48.21 58.51 66.15 67.02 67.40 67.20 66.57 66.13 65.40 65.40 65.40 65.69 65.37 65.73 64.98 64.82 64.85 64.20 63.89 63.70 63.34 62.20 62.84 61.92 61.26 61.56 62.12 61.95 63.10
36.45 35.67 31.41 37.86 38.87 40.54 37.53 34.52 39.05 42.46 39.64 40.27 41.04 41.81 43.07 43.79 45.04 45.57 46.02 46.40 47.80 49.10 61.00 67.06 68.21 67.74 67.18 66.44 66.30 65.78 65.46 65.60 65.31 65.40 65.32 64.30 64.79 64.57 63.77 64.60 64.35 62.54 63.36 62.96 62.00 61.62 61.35 61.21 61.98
31.89 28.53 30.54 34.34 39.29 38.45 36.24 35.02 38.16 41.29 40.97 40.31 40.39 40.80 41.34 42.55 43.97 44.88 45.74 45.67 46.42 47.67 50.64 65.06 67.42 67.07 67.29 66.89 66.19 65.76 65.90 65.76 65.71 65.51 65.33 64.55 64.48 64.55 64.05 64.19 63.75 63.89 63.39 62.93 62.63 61.64 61.59 60.87 60.77
27.39 28.38 27.09 29.14 34.61 34.14 33.91 34.67 38.27 39.84 39.63 39.87 39.33 40.29 41.20 42.52 43.33 45.71 46.12 46.20 46.65 46.34 47.92 60.31 66.43 67.05 67.09 67.07 65.76 65.37 65.65 65.78 65.66 65.40 65.08 64.53 64.60 64.35 63.25 62.74 63.06 63.13 63.19 62.65 62.44 61.72 61.39 60.72 60.57
32.28 30.55 29.03 30.64 35.64 32.90 34.16 34.76 37.63 39.95 35.64 36.08 37.33 38.82 40.44 41.36 44.63 45.15 45.37 45.92 45.97 46.02 45.81 58.37 64.23 66.20 66.02 65.55 64.77 64.50 64.10 65.31 65.03 65.47 64.69 64.58 64.42 63.45 62.84 61.62 62.21 63.13 62.10 61.62 62.21 61.48 60.25 59.63 60.68
31.44 29.02 28.85 32.41 35.84 33.64 32.82 33.26 37.72 38.07 37.08 38.01 39.83 40.02 40.95 42.41 43.96 45.59 46.30 44.69 44.42 46.72 46.62 53.61 62.74 65.42 65.93 65.86 65.59 64.82 64.75 65.12 65.19 64.45 63.93 64.26 63.20 63.31 62.68 61.45 62.17 62.12 61.29 60.97 61.09 60.68 59.71 59.80 60.59
31.92 29.59 30.50 30.98 34.82 34.25 32.16 32.82 35.48 38.59 39.72 41.59 42.11 41.47 42.46 46.16 48.38 50.43 51.12 49.77 49.41 46.97 45.79 51.84 61.68 64.93 65.91 65.97 65.40 61.50 61.32 61.40 61.42 62.04 62.52 62.69 63.11 62.98 63.89 62.46 62.09 61.84 61.96 60.41 60.49 60.65 59.88 58.40 59.93
29.95 36.50 35.75 34.21 30.65 26.06 33.51 25.60 34.79 36.92 36.27 39.88 42.09 42.82 46.46 47.53 48.27 48.15 48.02 48.57 49.71 50.77 52.70 50.47 60.52 64.67 65.50 65.88 64.71 62.74 62.12 61.32 62.17 62.94 63.26 61.81 62.14 61.98 62.70 62.32 61.99 61.78 61.71 60.64 60.53 60.82 60.18 59.33 57.33
33.19 37.79 35.75 34.54 29.68 27.86 30.99 25.19 31.58 37.47 35.95 38.35 43.48 47.30 46.75 46.60 46.48 46.14 46.18 47.09 48.26 48.68 50.43 53.86 57.13 63.90 65.01 65.48 64.84 63.02 62.03 61.74 61.50 62.13 59.35 61.55 61.33 61.53 61.74 62.00 61.58 61.50 61.29 60.81 60.48 60.03 59.43 58.95 57.95
38.01 34.56 33.77 31.13 28.72 23.00 30.77 27.13 29.27 32.03 35.51 41.20 44.40 44.20 44.25 44.30 44.58 44.82 46.12 46.70 47.47 47.51 48.42 50.67 57.79 62.87 64.55 65.23 64.53 63.07 61.84 59.79 59.23 59.92 59.10 59.46 60.48 61.25 61.72 61.64 61.62 61.72 61.11 60.50 60.19 60.46 59.89 59.31 58.20
33.79 29.01 21.76 20.45 20.10 22.55 30.96 27.09 28.93 39.03 42.40 42.55 42.64 42.71 42.50 41.82 41.56 42.10 42.31 42.71 43.85 44.65 45.83 48.85 53.92 62.76 64.16 64.67 64.29 62.64 61.44 59.69 59.07 59.13 59.35 58.39 57.86 57.54 60.77 60.84 60.55 60.49 60.31 60.18 59.89 60.23 59.67 59.44 59.02
31.52 29.52 22.56 19.30 20.59 21.54 31.13 24.25 29.70 41.45 43.16 43.62 43.35 43.14 41.48 39.72 39.71 39.97 40.68 41.04 41.21 42.88 45.09 45.25 49.88 61.99 63.45 63.51 62.58 61.50 59.67 59.92 59.71 59.08 59.10 58.99 58.52 58.38 58.48 59.42 58.80 59.80 60.04 59.28 59.19 60.03 60.21 59.96 59.18
31.36 27.72 33.14 27.96 26.99 24.23 26.08 30.16 38.34 41.23 40.79 43.46 42.37 41.12 39.07 37.36 36.92 37.33 38.68 39.23 39.82 40.92 43.07 44.56 48.51 61.34 62.08 62.68 60.37 59.31 59.35 59.55 59.06 58.73 58.82 58.70 58.76 59.31 60.03 59.54 59.36 58.96 58.87 58.95 59.53 59.73 59.77 60.05 59.40
33.08 35.19 25.90 28.81 20.73 19.93 24.03 25.87 27.04 35.84 39.00 41.40 40.28 38.34 37.59 36.46 35.61 35.31 36.32 37.16 38.46 39.91 42.22 44.70 46.79 51.06 60.10 60.72 60.74 60.12 59.71 59.34 58.67 58.79 58.39 57.62 57.40 56.98 56.82 55.80 54.60 55.62 54.96 55.66 57.18 57.20 58.36 59.09 59.47
26.53 25.43 29.70 30.98 29.10 24.38 21.10 24.12 39.16 37.89 40.09 41.44 37.52 36.57 35.47 34.93 34.28 33.78 34.43 36.02 36.92 38.37 40.76 42.83 43.68 46.98 50.82 57.90 59.76 59.26 58.90 58.64 58.57 58.42 57.20 56.98 56.58 55.84 55.18 54.04 53.62 54.86 53.72 56.36 56.34 56.76 57.42 57.72 58.04
29.04 29.39 31.11 17.51 21.32 25.89 25.54 26.31 40.18 38.03 37.54 37.56 35.32 35.20 34.94 34.05 33.46 33.33 33.52 34.25 34.71 35.61 37.38 39.93 41.05 43.85 47.21 51.67 58.08 57.59 58.82 58.66 58.26 57.76 57.77 57.00 56.74 56.42 56.57 55.26 55.08 55.42 55.58 55.72 55.61 56.05 56.76 56.74 56.88

GFSSGP_sfc_wetblb_102.txt.gz
Wetbulb
55.17 51.42 49.92 46.28 36.98 33.01 28.32 33.08 35.15 37.83 38.13 42.58 44.53 44.81 45.04 45.18 50.54 46.57 63.67 67.77 68.22 69.14 70.98 71.52 71.84 73.05 72.93 72.93 72.67 72.99 73.51 73.73 74.00 74.22 74.34 74.40 74.22 74.22 74.00 73.74 73.99 74.71 74.64 73.98 73.48 73.64 73.79 73.24 72.51
50.46 51.88 46.96 40.46 31.51 26.90 29.82 34.41 36.74 39.40 42.60 45.23 45.71 45.75 44.92 46.82 59.03 62.69 64.47 68.17 68.69 69.87 70.43 71.25 71.91 72.66 72.75 72.60 72.63 72.77 73.54 73.87 73.77 73.75 73.91 74.13 74.21 74.03 73.74 73.62 73.87 74.48 74.41 73.99 73.45 73.56 73.39 72.91 71.81
51.30 49.76 41.47 37.85 28.99 28.13 30.51 35.02 38.13 41.48 44.18 43.30 44.06 45.59 45.72 48.55 61.08 63.64 66.13 68.51 68.94 69.65 70.39 70.93 71.75 72.06 72.33 72.37 72.46 72.72 72.92 72.98 73.15 73.20 73.75 73.82 74.06 74.18 73.85 73.29 73.65 74.16 74.33 74.16 73.45 73.48 73.18 71.50 70.75
48.43 46.07 41.35 33.49 30.30 33.76 34.58 36.48 39.31 42.25 44.38 43.95 42.86 44.05 47.95 55.46 62.90 65.38 67.95 68.67 68.71 69.59 70.42 70.29 70.81 71.46 72.12 72.38 72.51 72.61 72.22 71.90 72.23 72.80 73.25 73.69 74.03 74.07 73.59 72.98 73.54 74.28 74.25 74.31 74.01 73.43 72.03 70.40 70.11
44.18 40.96 32.71 30.03 31.66 35.84 38.19 39.82 41.28 42.20 43.35 45.38 44.40 44.17 45.44 54.28 65.32 67.61 67.59 68.56 67.94 68.85 69.50 70.16 69.77 71.08 72.01 72.41 72.43 72.28 71.78 71.35 71.81 72.35 72.79 73.11 73.47 73.62 73.09 72.34 73.07 72.58 73.56 73.58 73.29 72.16 70.71 70.13 70.05
38.74 38.98 30.75 28.36 31.89 37.65 40.20 42.68 43.06 43.01 44.25 44.90 43.91 44.01 45.49 59.50 64.88 66.34 67.67 67.07 68.07 68.24 68.92 69.95 70.82 70.87 71.18 71.47 71.45 71.05 70.87 71.17 71.46 71.64 72.33 72.86 72.68 72.36 72.37 72.14 72.34 72.48 72.63 72.21 71.92 70.57 70.21 69.95 69.86
35.62 34.66 30.62 30.69 33.81 37.64 40.36 43.85 42.83 42.64 42.42 43.81 46.17 42.80 45.93 58.51 64.32 65.65 65.04 65.83 66.38 67.21 68.18 69.28 69.82 70.64 70.20 69.61 69.59 69.50 70.11 70.56 70.67 70.93 71.07 71.53 71.13 71.00 71.63 71.80 71.86 71.41 71.04 70.96 70.76 69.83 69.57 69.72 69.59
37.78 36.40 31.23 33.14 34.71 36.35 42.87 45.63 44.55 42.99 42.87 48.46 46.17 42.57 43.60 50.59 63.09 66.03 65.20 64.41 64.75 65.51 67.32 68.30 69.30 68.81 68.22 69.28 68.63 69.03 69.39 69.59 69.86 70.31 69.91 69.73 70.15 70.46 70.72 70.54 70.93 70.69 70.50 70.73 70.15 69.51 69.41 69.26 68.61
41.84 33.38 29.47 33.23 36.11 38.28 44.18 41.93 45.29 46.54 45.41 45.85 46.82 44.89 48.95 59.15 65.62 64.78 63.18 62.53 63.24 64.34 64.10 67.32 67.55 68.28 68.58 66.64 68.49 69.44 69.98 69.55 69.37 69.82 69.44 68.27 68.87 69.30 69.45 69.20 69.31 69.49 68.72 69.47 69.62 69.02 68.33 68.06 67.61
37.82 32.06 33.56 39.29 40.59 40.57 43.54 40.29 43.81 43.04 43.72 44.96 45.99 48.85 49.46 58.01 61.04 62.56 61.44 61.24 61.30 62.23 62.81 66.14 66.26 66.80 66.58 67.97 68.29 68.94 69.82 69.93 69.10 68.90 68.22 68.31 67.59 67.14 68.02 68.18 68.11 68.25 67.63 68.06 68.33 67.30 66.87 66.81 65.60
35.24 33.55 37.41 40.60 43.63 40.42 40.23 41.18 42.94 42.46 40.84 44.12 44.31 46.47 47.32 47.68 52.20 59.62 61.58 63.29 62.02 62.01 63.14 64.67 65.51 65.85 66.47 67.18 68.00 67.97 67.96 67.68 66.57 66.56 66.51 66.89 66.86 66.41 66.23 65.89 67.00 65.92 67.03 65.83 66.29 65.38 65.58 65.75 65.22
34.42 38.43 40.29 40.24 42.48 40.39 39.08 41.40 40.71 41.76 43.48 46.62 46.35 46.60 46.06 46.49 46.81 51.38 58.70 60.62 62.26 64.04 64.28 63.84 64.05 64.99 65.69 67.00 67.11 67.20 67.34 68.06 66.05 66.40 67.57 67.41 67.86 66.48 64.53 65.69 64.80 63.73 63.79 63.33 62.90 63.25 63.28 63.82 63.77
36.15 38.60 40.50 41.54 41.93 41.28 42.09 40.02 41.44 41.42 44.51 45.43 45.23 45.59 45.08 45.18 44.74 45.62 49.83 55.56 59.99 64.64 65.47 64.83 64.43 64.59 65.06 65.71 66.43 66.51 66.84 67.19 67.54 67.01 67.32 68.20 68.29 67.00 65.64 64.83 65.74 63.25 62.41 62.24 62.03 61.85 62.91 63.43 64.15
39.54 38.54 39.28 39.58 39.57 39.24 39.04 38.86 38.95 42.01 43.02 43.17 43.38 43.66 44.56 44.64 44.85 44.44 44.55 45.79 49.76 59.14 64.05 66.07 65.19 65.07 64.98 65.48 65.60 65.75 66.56 66.31 66.19 66.31 66.53 67.50 67.64 66.74 65.42 65.22 65.42 62.99 62.59 61.64 61.71 61.82 61.57 62.59 64.00
40.62 36.38 37.75 38.82 39.45 39.09 39.29 34.28 37.73 41.70 41.60 40.79 40.32 40.94 41.85 44.07 44.67 44.15 45.14 44.88 45.98 50.76 60.45 65.16 65.96 65.58 64.78 65.12 64.75 65.21 65.49 65.61 65.31 65.80 66.45 66.80 67.16 66.06 65.13 64.81 64.23 64.23 63.09 61.51 60.48 60.71 61.00 61.75 63.00
35.01 34.04 30.29 36.92 37.51 39.56 37.29 31.84 37.82 41.62 38.08 39.77 41.06 41.13 41.55 41.88 42.98 43.89 44.17 44.80 45.27 45.69 50.79 62.09 66.73 66.14 65.09 65.04 64.99 64.64 65.07 65.18 64.96 65.78 65.63 65.56 66.04 64.62 63.63 64.54 64.03 63.42 63.21 63.24 62.32 61.86 61.76 60.64 61.43
30.39 26.34 28.96 33.08 38.43 37.05 35.37 31.66 36.20 40.52 39.72 38.36 39.12 39.66 39.84 40.43 41.76 42.71 43.74 43.64 44.14 44.51 45.90 51.76 64.07 66.27 66.02 65.74 65.38 64.71 64.31 64.65 64.70 65.07 65.33 65.03 65.11 64.46 64.21 64.94 64.20 63.14 63.24 62.94 62.23 62.14 61.91 60.21 60.60
25.65 26.91 25.56 27.91 33.87 34.24 32.39 32.46 35.81 38.01 37.51 38.34 38.06 38.16 38.85 40.45 41.57 43.51 43.84 43.96 43.90 43.60 44.43 47.34 56.17 65.69 66.65 66.83 66.05 65.19 64.92 65.06 65.03 64.94 64.91 64.82 64.51 64.26 64.01 64.56 63.85 63.50 62.91 62.45 62.28 61.63 61.63 60.96 60.46
31.29 29.02 27.46 28.72 33.87 31.10 32.01 32.99 33.97 35.89 35.46 35.34 36.51 36.98 37.97 39.48 42.02 43.79 49.22 50.36 46.88 43.17 43.40 44.96 49.81 62.77 66.20 66.63 65.21 64.57 63.88 64.62 65.05 64.99 64.58 64.15 64.56 64.10 64.22 63.69 63.36 63.04 62.45 62.42 62.63 61.99 61.00 60.30 60.80
30.36 27.86 27.07 30.80 34.09 31.84 30.79 32.19 36.18 36.13 36.48 36.88 37.57 37.71 38.02 42.01 47.96 49.94 49.40 49.26 49.71 50.13 49.23 46.31 49.27 59.12 65.47 65.82 66.09 65.87 65.27 65.53 65.43 65.22 64.49 64.11 64.15 64.04 63.86 63.02 62.88 62.83 62.76 61.95 62.05 61.40 60.39 60.31 60.68
29.67 27.50 28.39 29.35 32.46 31.99 30.36 30.57 32.33 36.86 36.89 38.81 40.26 41.29 46.64 46.31 45.90 47.09 47.48 47.46 47.61 47.94 48.17 50.18 51.49 55.97 64.40 65.40 65.93 62.71 63.85 62.88 63.45 64.33 64.22 64.36 64.40 64.02 63.71 62.94 62.95 62.80 62.57 61.11 61.22 61.17 60.28 58.87 59.98
27.41 33.76 33.65 31.90 28.69 23.32 30.68 23.56 31.52 34.16 35.00 37.35 44.58 44.62 43.50 43.55 44.60 45.16 45.09 45.47 45.92 47.31 47.86 48.86 50.58 53.06 62.42 64.85 64.78 63.59 62.48 61.46 62.57 63.31 63.88 64.59 64.38 63.82 63.76 62.74 62.73 62.68 62.17 61.06 60.78 61.17 60.54 59.77 58.41
31.03 35.83 33.80 32.28 28.13 25.47 26.99 24.79 28.86 35.30 33.23 40.11 41.90 42.35 41.55 41.30 41.35 41.70 42.47 43.46 44.60 45.41 47.24 47.95 48.53 51.67 57.14 64.37 64.43 63.42 62.19 62.39 62.27 63.52 62.94 63.04 63.28 63.36 63.02 62.28 61.51 62.11 61.69 61.34 60.99 60.44 60.24 60.49 59.44
36.75 33.22 32.38 30.49 28.52 22.01 27.98 26.68 27.83 29.08 35.16 39.95 42.46 42.49 41.56 40.21 39.32 40.26 41.51 41.86 42.07 43.24 44.37 46.73 47.82 49.42 54.28 64.04 64.25 63.25 62.18 61.51 61.12 62.05 61.90 62.00 62.03 61.88 61.31 61.02 60.95 61.47 61.70 60.62 60.42 60.67 60.14 59.68 59.40
33.30 28.75 22.91 20.32 20.19 21.43 29.64 25.62 30.18 36.02 40.74 41.76 41.62 40.40 39.11 38.21 37.13 37.20 37.64 38.41 39.74 40.43 42.04 44.51 46.12 47.23 50.58 62.72 64.02 63.81 62.34 61.33 60.92 61.37 61.35 61.15 61.07 60.71 60.43 60.46 60.57 61.35 61.54 61.35 60.55 60.06 59.76 59.42 58.60
29.82 29.16 23.07 18.18 19.48 20.50 28.57 22.49 27.55 40.30 41.28 41.67 41.67 39.99 38.31 36.47 36.34 36.47 36.91 36.85 37.70 39.00 40.51 42.17 44.11 45.97 49.49 61.96 63.90 64.39 63.21 60.54 60.27 61.13 60.92 60.50 60.23 60.43 60.78 60.62 61.11 61.03 60.69 60.03 59.82 59.10 59.21 59.42 59.09
29.11 27.11 31.86 26.77 26.75 23.08 24.50 28.09 36.32 40.58 40.10 42.19 40.66 38.67 36.57 35.05 35.24 35.49 35.98 36.12 36.61 37.41 38.67 40.56 42.87 44.79 50.00 63.53 63.18 62.36 60.88 59.34 58.88 59.69 60.24 59.67 59.44 58.13 59.05 58.85 59.27 59.45 59.53 58.65 59.35 58.78 58.82 58.80 59.01
29.93 31.10 22.25 24.70 18.31 18.59 22.58 24.35 25.53 34.80 37.15 39.98 37.47 35.90 35.09 34.90 34.11 33.98 34.53 34.95 36.09 36.92 37.94 39.88 42.53 44.39 48.36 54.09 61.57 60.62 60.41 60.17 58.86 58.82 58.52 58.78 58.34 58.56 58.22 57.14 57.30 57.59 58.07 59.11 58.87 58.63 58.99 59.23 59.57
25.40 23.53 26.14 28.54 25.29 18.93 20.07 23.93 37.65 36.34 37.65 37.07 35.98 35.29 34.32 32.96 32.89 32.62 32.99 34.10 35.00 36.12 36.77 37.82 40.82 43.82 46.37 48.92 56.44 59.53 59.01 58.85 58.92 58.56 58.15 58.62 58.18 58.28 57.70 57.54 57.14 56.62 56.14 55.88 55.50 55.66 55.22 56.22 57.46
27.85 27.89 28.59 14.71 16.64 22.85 20.92 22.91 38.99 37.92 36.62 36.50 34.88 34.29 32.87 32.60 32.36 32.13 32.20 32.73 33.40 34.10 35.16 35.98 38.42 40.80 42.81 46.22 52.33 58.53 58.23 58.25 58.01 57.81 57.75 57.77 57.14 57.48 56.80 56.30 55.59 55.13 55.27 55.34 55.40 53.86 56.16 56.02 56.00

GFSSGP_sfc_wetblb_105.txt.gz
Wetbulb
57.93 55.78 55.64 52.74 43.96 43.27 38.59 40.05 42.29 43.33 44.30 47.36 48.29 48.13 48.32 49.64 48.95 51.62 67.77 69.70 70.21 71.40 73.20 73.35 72.36 72.75 72.87 73.02 72.95 73.22 74.11 74.68 74.78 74.53 74.12 73.95 73.94 73.84 73.86 73.82 74.28 74.78 74.99 74.57 74.02 73.91 73.83 73.70 73.31
54.98 55.07 53.29 48.47 40.88 38.08 40.09 41.07 42.17 44.39 45.97 48.27 48.76 49.09 48.76 49.11 55.80 63.09 67.91 70.17 70.74 71.97 73.05 73.33 72.15 72.42 72.68 72.58 72.78 73.13 74.08 74.36 74.52 74.58 74.30 74.04 73.92 73.89 73.82 73.71 73.88 74.44 74.74 74.57 73.94 73.88 74.19 73.29 71.92
55.24 52.79 49.46 46.33 38.79 38.25 39.35 40.37 43.04 45.67 47.80 47.56 48.40 49.48 49.55 51.26 59.51 66.52 69.64 70.93 71.02 71.75 72.57 72.99 71.86 71.97 72.38 72.34 72.57 72.83 73.15 73.40 73.71 74.03 74.34 74.21 74.10 74.04 73.90 73.62 73.72 74.35 74.52 74.65 73.86 74.09 73.91 71.86 70.78
54.03 53.02 48.20 41.35 39.46 41.03 40.30 43.22 44.31 45.75 48.18 48.60 48.91 48.18 52.21 56.03 63.19 67.66 70.20 70.97 70.94 71.56 72.61 71.42 71.07 71.56 72.04 72.31 72.51 72.69 72.41 72.09 72.38 73.06 73.80 74.20 74.21 74.16 73.58 73.25 73.68 74.47 74.36 74.45 74.32 73.92 72.50 70.72 70.39
51.06 48.03 41.73 39.36 39.55 41.46 43.23 44.50 45.86 45.60 46.89 48.08 48.87 48.62 49.61 55.60 66.44 69.41 69.80 70.61 70.62 71.55 72.48 72.88 70.11 71.16 71.91 72.23 72.48 72.24 71.70 71.52 72.05 72.58 73.01 73.50 73.89 73.80 73.07 72.90 73.16 73.75 73.83 73.84 73.71 72.93 71.11 70.47 70.24
46.25 46.69 39.13 37.50 39.94 41.84 44.39 46.77 46.80 46.36 47.96 48.55 48.54 49.09 50.30 56.40 62.66 68.48 69.59 69.95 71.40 71.50 72.26 72.80 71.42 71.12 71.11 71.62 71.69 71.06 70.83 71.12 71.41 71.95 72.39 72.97 73.01 72.88 72.46 72.48 72.62 72.45 72.65 72.58 72.08 71.12 70.40 70.11 70.14
43.65 42.91 39.03 38.66 39.00 41.81 44.59 47.89 45.87 46.77 47.52 47.84 49.68 48.70 51.24 54.83 65.05 67.95 68.53 69.53 70.46 71.47 71.86 72.38 72.74 72.17 70.12 69.75 69.84 69.64 69.96 70.32 70.61 71.06 71.29 71.80 71.52 71.50 71.88 72.19 72.10 71.89 71.74 70.84 71.38 70.32 69.90 70.11 69.69
44.99 44.25 38.04 39.85 39.91 40.89 46.58 48.35 48.94 47.88 47.99 51.59 51.61 48.40 49.87 54.31 66.77 67.75 68.24 68.59 68.84 69.51 71.28 70.83 71.22 71.42 72.26 73.00 68.70 68.90 69.23 69.48 69.90 70.17 70.15 70.02 70.33 70.80 70.99 70.32 71.36 71.50 71.25 70.52 70.62 69.67 69.43 69.60 68.87
46.38 40.14 37.22 39.61 40.04 42.72 47.56 46.74 49.71 50.92 49.91 50.15 51.35 50.92 53.31 54.95 66.35 67.32 66.81 67.18 67.88 67.89 67.84 69.20 69.96 70.30 71.15 72.27 71.89 69.84 69.77 69.48 69.14 70.15 69.50 69.31 72.68 72.77 72.54 70.82 70.04 70.15 69.19 69.83 69.75 69.08 68.53 68.17 67.79
45.02 39.29 38.42 43.00 44.42 44.35 46.43 46.32 47.03 47.07 47.51 48.17 49.50 52.07 53.36 53.24 56.16 63.01 65.90 65.68 66.09 66.99 66.90 67.88 68.74 68.99 69.57 69.53 71.86 72.25 71.57 72.06 72.38 72.38 72.33 72.38 72.67 72.53 71.64 70.50 68.51 68.91 68.08 68.62 68.06 68.22 67.64 68.10 70.70
42.04 38.87 41.69 43.92 45.77 47.16 45.75 45.32 46.93 45.97 44.61 47.57 47.92 50.04 51.74 51.83 52.60 54.80 62.51 66.68 66.14 66.71 67.39 67.12 66.90 67.78 67.82 68.25 70.15 70.25 70.24 70.44 69.93 72.01 72.46 72.19 71.87 72.13 71.72 71.54 71.67 72.18 68.85 71.19 69.92 69.48 70.44 70.55 70.51
38.32 41.47 42.98 43.98 46.18 45.69 44.36 46.76 44.37 45.40 46.54 49.88 50.43 50.71 50.11 50.70 51.88 52.19 53.20 61.74 67.11 67.21 67.30 67.76 66.64 66.26 66.69 68.11 68.64 69.04 68.42 68.93 68.95 71.39 72.18 71.69 70.34 70.59 70.90 70.79 71.52 71.61 71.02 70.61 70.88 70.50 70.36 70.19 70.09
39.64 41.57 43.61 44.09 44.53 44.43 44.93 43.53 44.17 44.86 47.96 49.25 49.25 48.58 49.05 49.79 50.33 51.32 52.02 52.95 56.89 65.53 68.56 67.43 67.41 66.11 66.04 66.80 68.16 68.51 68.25 68.55 69.32 70.85 71.32 71.72 69.36 69.26 69.53 70.74 70.64 70.62 70.48 70.09 69.52 69.72 69.11 69.29 69.14
42.31 41.12 42.15 43.30 43.18 43.18 42.22 43.56 43.31 45.21 47.73 46.72 46.85 47.49 48.50 48.71 49.71 50.21 51.40 52.17 53.51 54.83 63.71 69.24 67.88 66.98 67.64 67.06 67.86 67.87 68.19 68.48 69.31 70.32 70.36 70.87 70.73 68.96 68.57 68.20 68.92 69.56 69.63 69.53 69.21 68.74 68.65 68.29 68.24
42.55 39.35 41.91 42.49 43.63 42.88 43.91 40.48 40.52 46.23 46.48 44.43 44.91 46.17 46.85 48.38 49.21 49.51 51.02 51.47 53.16 53.73 54.83 64.20 68.43 68.70 68.12 67.97 68.28 68.39 68.30 68.95 67.47 67.67 68.21 68.10 68.31 68.18 67.74 67.39 67.84 67.81 68.29 68.66 68.26 67.86 67.43 67.33 66.56
38.77 38.64 35.18 40.95 41.87 42.95 42.52 37.60 43.09 43.48 43.21 43.75 45.22 45.94 46.14 47.46 47.54 49.43 50.65 50.71 51.47 51.79 52.53 55.37 64.14 68.65 68.57 68.28 68.38 68.25 68.31 68.12 67.46 66.72 66.68 67.34 67.67 68.17 67.01 66.45 66.60 66.47 66.18 67.07 66.81 65.56 65.43 65.62 65.40
35.18 32.57 34.09 37.01 41.87 40.96 40.28 37.36 42.45 44.18 43.38 42.51 44.36 45.47 46.29 46.54 47.77 49.01 49.44 50.77 52.05 51.53 51.15 52.56 56.22 64.76 67.79 68.37 68.88 68.26 67.75 67.51 67.83 67.02 66.38 66.70 67.05 67.30 66.32 66.36 66.52 65.81 64.70 65.22 65.18 64.82 65.12 64.36 64.14
31.05 32.08 33.89 33.92 39.28 39.72 37.33 36.67 39.82 42.03 41.76 42.49 44.08 45.07 45.56 45.65 46.29 51.56 54.45 54.78 55.16 55.96 54.78 51.64 52.74 57.01 67.13 68.12 68.12 67.67 66.89 67.28 66.65 65.83 65.95 66.20 66.11 66.25 66.58 66.67 66.45 65.74 64.38 64.22 63.91 63.25 63.69 63.70 63.63
35.25 33.62 32.63 35.37 38.25 35.62 36.96 37.33 39.09 41.79 41.11 41.82 43.37 44.07 43.81 45.27 51.90 53.23 52.95 53.42 53.35 54.33 54.96 55.54 55.45 53.35 59.10 65.51 66.35 64.96 63.63 65.15 65.36 65.61 66.67 66.37 66.02 65.51 66.02 66.61 66.07 64.89 64.47 63.78 63.82 63.10 61.83 61.57 62.60
33.47 32.07 32.36 35.53 37.97 36.08 37.04 36.96 40.21 41.27 41.34 42.62 42.88 44.11 48.67 49.64 50.39 50.93 51.37 51.29 51.25 51.57 52.60 53.20 54.79 55.98 56.08 62.76 66.32 66.83 65.70 65.25 66.03 65.99 65.87 66.41 66.18 65.85 66.04 66.11 65.07 64.25 63.87 63.80 63.89 62.80 61.76 61.32 61.85
33.94 32.49 32.87 33.24 37.11 38.22 35.71 36.12 37.36 41.02 41.29 45.46 48.60 48.67 47.57 46.16 46.07 47.47 47.99 48.44 49.30 49.51 49.76 50.70 52.70 53.94 56.31 58.84 65.89 67.46 65.66 65.32 64.73 65.04 64.58 65.18 66.81 66.25 66.18 65.67 65.03 63.89 63.73 63.12 63.86 63.59 62.55 59.72 61.03
31.53 36.03 35.85 34.64 33.09 29.86 36.83 28.51 36.28 39.62 40.44 44.55 46.58 45.91 45.26 44.68 44.84 45.25 45.24 45.90 46.49 47.20 48.10 49.07 50.04 52.02 54.49 57.81 62.33 64.71 62.79 62.11 63.90 65.21 65.28 65.01 65.34 65.58 66.15 65.56 64.87 64.20 63.88 63.92 63.65 64.01 62.95 61.54 59.12
34.10 37.65 35.73 35.44 33.37 31.73 32.71 30.56 34.43 37.69 37.47 41.79 44.72 45.12 44.53 43.42 42.46 42.41 42.90 43.70 45.11 45.57 45.47 46.81 47.27 49.42 52.75 54.98 58.57 64.19 64.13 65.01 66.37 66.28 66.38 65.60 65.07 65.60 65.40 65.29 64.92 65.01 64.37 63.95 63.57 63.32 62.36 61.87 60.33
38.64 36.08 35.13 33.97 33.35 26.71 32.26 31.54 33.31 35.32 37.36 42.10 44.60 43.86 41.91 41.29 41.16 41.50 42.34 42.79 43.48 44.59 44.22 43.58 44.31 46.35 49.47 52.31 56.14 62.00 64.24 64.53 64.10 65.17 65.15 64.67 63.79 64.01 64.80 64.53 64.35 64.80 63.72 63.91 64.39 62.75 62.43 61.41 61.05
36.61 33.68 27.33 25.25 25.07 25.24 32.18 30.33 34.02 38.48 42.86 43.56 42.64 41.38 40.67 40.23 39.81 39.66 39.39 40.01 40.80 40.62 40.48 41.20 42.20 43.27 46.71 49.71 54.33 59.90 63.48 63.80 64.45 64.74 65.22 63.62 62.49 62.79 63.03 63.80 63.91 64.01 63.50 63.88 64.19 62.22 61.87 61.50 60.67
32.56 33.41 27.85 20.46 22.25 25.93 32.04 27.88 33.53 42.20 43.23 43.51 41.91 40.44 40.23 39.72 38.65 38.32 38.32 38.33 38.65 37.70 38.13 39.27 40.09 41.51 45.50 48.15 51.88 60.52 63.43 63.46 64.62 65.24 65.09 64.01 62.24 62.31 63.55 63.44 64.02 64.14 63.34 62.98 64.03 63.79 62.88 61.28 60.38
32.10 30.43 33.79 27.84 29.26 25.35 29.38 32.57 39.22 41.57 41.06 41.63 40.06 38.60 36.75 36.67 36.80 35.75 37.16 37.13 37.37 36.33 37.00 38.00 38.81 40.93 43.98 47.83 50.89 63.09 63.66 62.95 62.57 64.31 65.54 63.92 63.07 62.48 62.47 62.90 63.03 63.00 62.15 62.51 62.82 61.30 61.63 62.57 60.44
32.89 33.39 26.20 29.73 19.80 19.03 26.46 28.52 31.26 35.42 37.61 39.28 37.59 35.16 34.37 35.04 35.82 35.02 35.72 35.15 36.39 35.64 36.47 37.47 38.69 40.08 43.01 46.14 49.52 59.30 63.14 62.76 62.29 62.61 63.51 63.29 63.01 62.55 61.49 61.75 62.25 61.34 61.83 62.05 61.12 60.84 61.76 59.23 59.45
28.43 27.12 29.26 30.39 28.72 21.72 20.36 26.31 37.33 37.04 35.76 35.07 34.83 34.01 32.92 33.90 34.17 34.25 33.95 34.66 34.54 34.84 35.33 35.93 37.16 38.65 41.03 43.12 47.21 52.36 60.60 61.22 60.69 60.58 61.23 61.05 60.97 60.75 60.77 60.91 60.19 60.51 60.89 61.64 60.80 61.30 58.70 58.74 58.62
31.12 29.29 29.54 23.15 20.51 25.59 24.87 25.27 38.89 36.84 36.35 35.22 33.63 33.41 33.59 33.59 33.23 32.86 32.87 33.09 32.82 32.82 33.55 34.35 35.73 37.08 40.06 42.04 45.45 55.50 59.59 59.58 59.26 59.32 59.51 59.83 59.89 60.45 59.74 59.80 59.09 59.29 59.31 59.38 58.70 57.49 57.23 57.21 58.09

GFSSGP_sfc_wetblb_108.txt.gz
Wetbulb
60.80 58.95 59.80 56.79 48.49 47.33 45.67 45.64 48.23 47.84 48.40 51.02 51.91 50.60 50.86 52.81 51.22 51.81 67.20 72.29 72.87 73.54 75.66 74.37 72.38 72.79 73.22 73.46 73.68 74.24 74.86 75.10 74.74 74.37 74.12 74.16 74.21 74.18 74.32 74.41 74.50 74.97 75.24 75.09 74.11 74.35 74.32 74.84 74.50
58.27 57.02 57.31 54.25 45.64 44.60 46.85 47.85 46.47 48.20 49.08 51.62 52.27 51.98 52.19 51.66 56.88 60.33 67.55 72.77 73.20 73.96 75.05 74.78 72.09 72.57 72.81 73.00 73.13 73.99 74.95 75.29 74.98 74.44 74.21 74.33 74.15 74.20 74.11 74.08 74.19 74.79 75.14 75.21 74.20 74.17 74.30 73.96 72.65
57.45 57.08 53.11 50.22 47.35 44.84 46.62 46.41 47.79 48.99 50.70 50.76 51.12 53.54 52.85 53.45 59.81 64.08 70.87 72.91 72.77 73.89 74.55 74.99 71.71 71.91 72.54 72.43 72.73 73.37 74.03 74.24 74.46 74.26 74.45 74.38 74.33 74.25 74.09 73.67 74.05 74.86 75.06 75.04 74.12 74.43 74.38 72.30 71.34
55.58 54.21 52.62 46.49 46.52 48.80 47.14 47.88 49.16 48.91 50.34 51.45 51.82 50.74 54.83 58.55 60.94 64.43 71.31 72.77 72.98 73.69 74.62 72.16 70.92 71.39 72.04 72.42 72.48 72.69 72.94 72.85 73.31 73.76 74.21 74.28 74.23 74.40 73.83 73.41 74.00 74.81 74.91 75.04 74.69 74.74 73.24 71.12 70.74
56.03 53.47 47.34 46.50 48.11 50.21 49.43 49.46 49.31 48.53 49.26 50.36 51.49 50.45 53.29 57.04 62.36 67.68 72.26 72.76 72.25 73.47 75.01 74.73 70.14 71.01 71.75 72.29 72.49 72.25 72.07 72.01 72.78 73.48 73.62 73.90 74.07 74.01 73.38 73.10 73.71 74.24 74.19 74.46 74.28 73.57 71.72 70.55 70.29
50.80 52.35 45.51 45.30 48.20 50.22 49.95 50.81 50.06 49.69 50.96 50.96 50.80 51.61 54.12 58.48 62.41 66.84 72.17 73.02 73.37 73.63 74.77 75.17 71.86 71.19 71.25 71.74 71.68 71.23 71.01 71.40 71.92 72.46 72.98 73.68 73.39 73.08 72.89 72.89 73.02 72.86 73.02 73.14 72.98 72.11 70.88 70.58 70.39
49.36 48.46 46.28 46.98 47.33 48.35 49.75 51.55 49.78 50.16 50.44 50.68 53.62 50.73 55.11 57.06 60.80 67.18 71.04 73.24 73.60 74.62 74.75 75.44 74.96 73.19 70.49 70.21 70.10 69.89 70.35 70.73 71.02 71.38 71.88 72.33 72.09 71.77 72.43 72.68 72.62 72.68 72.22 71.69 71.54 71.22 70.48 70.33 70.10
50.60 49.05 45.70 46.32 45.47 46.65 50.70 50.51 51.53 51.26 51.12 54.50 54.84 51.10 52.43 57.08 59.17 65.58 69.48 72.26 72.65 73.86 74.58 74.77 74.66 73.80 74.68 74.22 69.48 69.31 69.55 69.73 70.25 70.60 70.54 70.50 70.97 71.46 71.56 71.54 71.71 71.75 71.54 71.16 70.97 70.44 69.84 69.90 69.46
50.97 45.49 44.36 45.74 45.85 47.42 50.44 49.31 52.56 53.79 52.25 53.12 53.96 54.00 55.96 57.36 58.18 60.04 63.70 69.09 71.38 71.70 72.85 73.30 72.15 72.35 73.07 74.39 73.14 70.22 69.98 69.82 69.42 70.55 70.01 69.91 73.44 74.00 73.43 71.27 70.47 70.42 70.08 70.23 69.86 69.60 69.08 68.81 68.57
47.15 44.66 45.67 48.73 48.68 47.75 48.64 49.09 49.91 49.53 50.18 50.71 51.97 54.87 56.00 56.41 56.79 56.91 58.56 62.58 69.48 70.75 71.25 71.73 71.07 71.61 71.81 71.50 74.26 73.84 73.86 73.24 73.08 72.98 73.25 73.15 73.53 73.89 72.68 71.21 69.42 69.60 68.90 68.82 68.95 68.63 68.21 68.66 71.59
46.96 43.76 48.24 46.76 47.88 48.41 47.83 47.49 49.56 48.19 47.03 49.94 50.19 51.93 53.75 54.83 55.73 56.24 57.47 58.54 66.72 70.50 71.37 71.59 71.15 71.35 71.45 70.72 73.01 72.43 72.75 73.09 73.70 74.01 73.89 73.50 73.29 73.73 73.11 73.27 72.81 73.14 69.94 72.26 70.72 71.04 71.51 71.28 71.49
42.56 45.73 46.20 47.15 47.54 47.43 46.81 48.45 46.49 47.45 48.27 50.92 51.28 52.58 53.08 53.72 54.44 54.80 55.39 56.28 61.29 69.55 70.41 71.42 71.81 71.96 71.53 70.85 72.34 72.93 72.51 72.19 70.89 72.42 74.03 73.41 72.86 72.84 72.79 72.38 72.71 72.31 72.55 71.70 71.91 71.14 71.41 71.05 71.24
43.27 44.24 45.47 46.62 46.34 46.47 46.96 45.60 45.85 46.56 49.38 51.40 51.88 51.87 52.35 53.06 53.58 54.71 55.23 56.07 56.82 59.49 66.31 70.79 71.28 71.28 71.02 69.89 71.72 71.78 71.52 71.19 71.23 72.73 73.39 73.17 71.61 71.83 72.60 72.06 72.10 72.07 71.58 71.26 71.48 70.89 70.78 70.51 70.64
44.73 45.08 45.56 46.89 47.00 47.27 45.34 46.46 47.53 47.85 50.02 49.76 50.33 50.77 51.48 51.55 52.45 53.66 54.73 55.43 56.32 56.91 58.33 65.36 70.47 71.16 70.89 70.30 70.91 70.82 71.27 71.30 71.52 71.70 72.15 73.20 72.49 71.54 70.50 71.68 71.15 71.90 71.82 71.49 71.16 70.68 70.26 69.96 70.08
45.92 42.43 44.78 45.67 46.23 45.63 47.33 44.13 45.03 48.71 49.89 48.98 48.89 49.67 50.22 51.66 52.53 52.46 53.88 54.83 55.79 56.10 56.74 58.51 65.35 71.61 71.00 70.49 70.53 70.59 70.58 70.73 70.50 71.09 72.30 72.40 72.40 71.99 70.49 69.85 69.78 70.87 71.77 71.58 71.04 70.71 70.17 69.54 68.82
42.23 43.48 39.73 44.91 45.72 46.42 46.13 41.03 46.94 49.13 48.09 47.72 48.55 49.58 50.11 51.08 51.61 52.84 53.60 54.15 55.84 56.94 57.01 57.91 58.13 61.74 67.37 70.32 70.81 70.76 70.62 70.60 70.46 70.50 71.15 72.04 71.70 71.85 70.11 68.91 68.88 69.70 70.90 70.84 69.87 69.19 68.10 68.66 67.86
42.32 38.52 40.63 41.92 45.95 45.24 44.58 42.40 45.78 48.31 47.83 47.04 47.92 48.99 49.83 50.68 51.61 52.62 56.57 58.28 59.27 60.02 60.77 60.80 59.86 58.79 62.79 67.98 69.91 70.86 71.39 70.71 70.56 70.87 70.27 70.25 70.57 70.16 68.91 68.04 68.81 69.02 68.28 68.96 68.72 68.15 68.09 66.94 66.48
39.59 39.19 40.49 39.79 43.75 43.66 42.71 42.42 45.14 46.46 46.18 46.58 47.57 48.76 49.78 49.63 50.10 55.77 57.02 58.31 59.04 59.77 60.42 61.08 61.59 61.44 59.17 63.19 67.95 68.84 69.88 70.47 70.98 70.50 70.00 69.60 69.38 68.89 68.43 68.31 68.86 67.67 67.12 67.81 67.73 66.79 67.06 66.49 65.96
40.80 38.86 38.16 41.31 43.73 40.95 40.44 42.00 44.53 46.87 47.14 47.32 47.82 48.74 48.82 51.25 54.95 56.16 56.88 57.46 57.88 58.54 58.56 58.96 59.73 61.14 61.54 58.11 62.85 65.67 66.24 67.73 68.72 70.19 70.24 69.49 69.27 68.29 67.70 67.61 67.64 66.79 66.14 66.41 66.73 66.77 65.23 65.13 65.66
39.08 37.70 38.06 40.98 42.76 41.48 41.69 41.83 44.84 46.44 46.86 47.53 47.88 47.85 51.13 52.49 53.26 54.06 54.87 55.74 55.68 55.93 56.55 56.73 57.53 58.84 60.06 60.97 59.78 64.67 66.47 67.10 67.58 68.86 69.46 68.78 68.08 68.08 67.36 67.68 66.74 66.59 66.44 66.15 65.79 64.95 63.25 64.20 65.35
39.01 37.64 38.07 37.93 41.29 42.73 41.42 39.88 42.38 44.33 45.79 46.95 49.98 52.00 51.40 51.03 51.18 51.91 52.01 52.96 54.07 54.05 54.26 54.27 55.43 56.25 57.53 59.48 61.00 61.47 65.93 67.12 66.45 66.66 67.48 67.68 68.33 67.67 67.10 67.18 67.14 66.65 66.92 65.69 65.72 64.53 63.73 61.40 62.74
36.05 41.16 39.61 38.15 37.30 34.31 40.76 33.57 39.99 42.73 43.56 46.93 49.12 50.25 50.43 49.80 49.98 50.07 50.13 50.72 51.34 52.08 53.13 53.52 53.80 54.27 55.20 57.39 58.70 60.32 61.25 63.58 65.70 66.17 66.72 66.25 67.10 68.25 67.61 67.36 67.46 67.61 66.72 65.95 66.23 65.04 65.59 64.54 61.00
37.91 40.95 39.61 39.38 37.93 37.62 37.71 34.79 38.93 42.27 41.09 44.71 48.40 49.05 48.53 48.40 48.33 48.16 48.49 49.09 50.18 50.99 50.92 51.38 51.54 52.08 53.15 53.87 54.22 56.07 59.54 64.41 66.11 66.21 65.96 65.51 65.79 66.78 67.42 67.94 67.60 66.95 66.39 66.11 66.02 65.18 65.75 66.11 64.33
41.74 39.60 39.41 39.44 37.74 30.99 36.27 35.75 36.83 39.53 41.02 45.39 47.70 46.69 46.95 47.40 47.92 47.84 48.39 48.49 48.61 49.16 48.93 48.86 48.42 48.99 50.48 50.19 51.29 52.82 55.37 60.67 64.82 65.70 65.29 64.52 65.17 65.00 66.01 66.92 67.31 67.53 66.00 65.11 65.50 66.67 66.82 65.40 65.55
39.57 37.07 30.92 29.31 29.27 28.98 36.71 34.99 38.70 42.35 44.89 46.05 44.63 45.77 46.49 46.90 46.28 45.77 44.87 45.26 45.97 46.12 46.16 45.39 44.30 44.21 46.32 45.98 47.73 50.48 51.87 58.31 61.48 65.51 65.73 64.88 64.69 63.91 64.71 65.47 65.87 65.78 65.83 66.83 66.73 67.13 66.42 66.00 65.19
37.51 37.52 30.94 23.87 26.95 31.49 36.03 31.48 38.60 45.07 45.03 44.57 43.41 43.89 43.41 44.10 45.31 44.63 43.90 44.17 43.93 44.04 43.66 42.10 39.76 40.09 41.99 42.77 45.09 47.79 49.70 53.75 61.94 64.38 63.55 65.16 65.17 63.92 64.78 64.86 65.62 65.67 66.33 65.77 66.33 66.06 65.84 65.72 65.50
36.04 32.86 37.47 31.69 33.46 29.56 33.56 37.16 42.10 42.65 42.15 43.22 42.58 42.61 41.78 41.77 43.21 42.92 42.86 42.65 41.82 41.55 41.40 37.72 37.54 38.17 39.89 41.38 43.77 46.14 48.92 52.93 62.47 66.19 64.30 64.32 66.37 64.97 64.60 64.67 64.31 65.04 64.82 64.04 65.06 64.92 64.89 64.34 64.60
35.86 37.38 30.06 32.21 22.59 22.89 30.39 32.55 35.55 37.88 39.12 40.34 38.77 39.54 41.15 41.86 41.75 41.78 41.83 41.19 39.53 39.09 38.39 37.03 37.00 37.03 38.38 40.85 42.97 45.80 47.71 53.53 64.10 66.01 64.57 64.03 66.49 65.70 65.01 64.66 63.64 63.62 63.45 63.14 63.96 64.38 64.29 62.95 63.85
32.43 31.17 31.98 33.09 31.83 25.35 25.00 30.68 40.67 37.57 37.90 37.69 39.31 39.87 40.06 40.41 40.49 40.48 40.53 40.50 39.20 38.71 36.97 35.68 35.00 35.23 36.97 39.70 42.01 44.69 51.02 62.27 64.19 64.31 64.77 64.48 65.29 64.68 64.23 63.68 62.37 62.48 62.45 62.32 62.44 62.53 62.99 62.60 62.76
34.33 31.97 32.32 26.96 25.77 29.65 29.05 30.14 41.87 40.83 39.75 39.45 39.01 38.74 39.83 40.05 39.83 39.69 39.50 38.82 37.30 36.84 35.92 33.30 33.21 33.01 35.62 38.49 41.57 44.20 48.92 54.50 60.80 62.06 63.56 63.90 62.91 62.92 61.93 62.12 61.35 61.38 61.82 62.11 62.11 61.98 62.12 61.71 61.49

GFSSGP_sfc_wetblb_111.txt.gz
Wetbulb
62.63 60.70 60.37 57.48 50.17 50.07 47.76 49.54 50.98 49.76 50.21 53.02 53.12 52.17 52.21 53.78 52.53 52.05 67.80 73.77 73.78 73.14 76.45 74.21 72.36 73.21 73.72 74.21 74.33 74.34 74.47 74.39 74.50 74.47 74.46 74.43 74.56 74.52 74.56 74.59 74.46 74.94 75.57 75.59 74.79 74.84 74.79 74.51 75.03
62.01 58.87 58.47 55.19 47.74 46.49 48.38 51.71 48.98 50.83 51.98 52.25 52.85 53.05 52.91 52.62 57.19 60.70 66.09 71.63 74.15 73.65 76.28 74.94 72.18 72.77 73.25 73.49 74.02 74.38 74.85 74.86 74.58 74.50 74.46 74.65 74.58 74.55 74.68 74.46 74.14 74.95 75.35 75.17 74.23 74.25 74.79 74.97 73.82
60.38 59.00 54.96 52.23 49.81 47.08 48.39 50.27 50.51 50.98 51.73 51.83 51.57 54.26 53.68 54.54 59.49 61.90 66.53 71.48 73.80 74.10 75.52 75.46 71.75 72.05 72.85 73.19 73.80 74.14 74.43 74.37 74.13 74.16 74.49 74.81 74.56 74.63 74.67 74.08 74.01 74.92 75.34 74.82 74.22 74.40 74.75 73.15 72.09
57.32 56.17 54.62 49.19 48.40 51.68 51.51 51.49 51.06 50.86 52.30 52.78 52.69 51.14 55.63 59.64 60.09 65.00 70.69 72.44 73.68 74.00 74.92 71.51 70.96 71.48 72.35 72.85 73.31 73.79 73.86 73.61 73.56 73.84 74.21 74.64 74.64 74.51 74.27 73.67 74.12 74.88 75.42 75.27 74.87 74.77 73.50 71.56 71.21
57.97 55.51 49.73 49.16 49.70 52.36 54.03 53.02 52.58 51.07 51.97 52.03 52.78 51.38 53.44 58.84 61.87 66.43 71.00 73.04 72.86 73.73 75.15 74.87 70.38 71.02 71.96 72.73 72.90 72.95 72.90 73.04 73.36 73.56 73.71 73.94 74.18 74.25 73.71 73.27 73.98 74.45 74.59 74.71 74.61 74.15 72.60 70.99 70.67
53.04 54.01 48.23 47.28 49.91 53.06 53.91 53.88 53.16 52.52 53.04 53.26 52.44 52.70 54.22 60.16 60.46 65.85 70.08 73.82 74.07 73.55 75.24 76.08 71.77 71.35 71.48 71.85 71.76 71.51 71.86 72.20 72.68 73.10 73.30 73.78 73.62 73.43 72.99 73.04 73.52 73.75 73.54 73.63 73.45 72.72 71.57 70.80 70.57
51.19 51.27 48.41 49.42 49.52 51.12 53.14 54.83 52.41 52.69 52.95 53.07 54.55 51.96 55.93 57.92 60.64 63.45 68.51 73.64 74.79 74.74 75.20 76.11 74.76 72.77 70.94 70.50 70.29 70.19 70.78 71.20 72.02 72.25 72.40 72.87 72.36 72.12 72.56 72.64 73.14 73.19 72.89 72.83 72.54 71.84 70.84 70.73 70.34
51.89 50.92 48.05 49.57 48.61 49.41 53.54 52.70 53.75 52.92 52.82 56.61 56.02 52.24 53.97 58.53 60.32 61.18 64.50 72.02 74.15 74.97 75.56 75.84 75.56 74.44 73.93 73.40 70.12 69.82 70.02 70.26 70.74 71.41 71.47 71.29 71.49 71.79 71.85 71.92 71.61 72.63 72.54 72.34 71.87 71.26 70.52 70.12 69.72
53.07 46.46 46.10 48.58 49.51 50.66 53.45 51.02 54.59 55.02 53.64 54.61 55.88 55.83 57.44 59.01 59.15 59.47 60.61 67.68 72.67 73.28 74.56 75.72 75.37 74.44 74.96 74.62 72.82 70.59 70.29 70.33 70.20 70.99 70.61 70.39 74.29 74.43 73.59 71.60 70.86 71.44 71.00 70.99 71.03 70.46 69.54 69.16 69.35
49.31 46.80 47.60 51.76 50.94 50.13 51.89 51.58 51.91 51.91 51.95 52.54 53.68 56.24 57.22 57.67 57.56 57.64 58.12 59.76 67.41 72.17 73.23 73.69 72.93 72.68 73.81 74.21 74.70 73.36 72.88 72.37 72.36 72.41 72.81 73.08 73.51 73.62 72.90 71.49 70.14 70.37 69.62 69.63 69.74 69.53 68.72 68.69 71.01
49.80 46.19 50.55 50.81 51.63 50.75 49.65 49.43 51.59 50.01 48.93 51.62 51.60 53.39 55.02 55.37 56.01 56.92 58.01 59.10 60.55 70.08 73.07 73.13 72.54 72.56 72.33 72.77 74.34 73.77 73.71 73.18 73.13 73.28 73.38 73.06 73.15 73.72 72.90 73.12 72.51 73.09 70.11 72.25 70.84 71.00 71.16 70.93 70.75
46.81 49.45 49.33 49.92 50.68 49.81 48.44 50.74 49.54 50.34 50.93 52.81 52.89 53.25 53.29 53.72 54.90 55.65 56.56 57.60 58.67 66.82 71.54 72.81 73.25 73.52 73.34 73.44 73.40 73.38 72.80 72.98 73.24 73.18 74.83 74.21 72.86 73.58 72.64 71.49 72.12 72.89 72.83 71.73 72.11 71.27 71.00 70.81 71.19
47.19 48.32 49.38 49.33 48.60 48.49 49.05 47.31 47.56 48.40 50.86 51.81 51.94 52.31 52.55 53.03 53.93 55.34 56.31 57.39 58.44 58.88 67.24 71.62 73.00 72.67 73.15 73.35 72.70 72.85 72.61 73.18 72.91 73.13 74.08 73.95 72.00 73.24 72.24 72.34 71.75 72.87 72.08 72.00 71.91 71.13 70.79 70.43 70.35
48.81 48.18 48.05 49.28 48.71 49.48 47.48 47.81 48.65 49.71 51.39 51.08 51.34 51.24 52.11 52.70 53.25 54.27 55.55 56.39 57.56 58.16 58.67 62.40 70.26 72.37 72.68 72.18 72.26 72.19 73.07 72.77 72.37 72.42 72.46 74.18 72.54 72.46 71.61 71.90 71.23 70.63 71.92 71.93 71.46 71.00 70.46 69.80 70.28
48.71 45.87 47.92 48.92 49.04 48.16 49.45 45.82 46.61 50.86 51.60 50.42 50.54 51.43 52.32 52.87 52.95 53.81 55.24 55.80 56.62 57.07 57.84 58.42 62.64 68.52 71.41 71.76 71.65 71.56 71.32 71.90 71.19 71.58 73.09 74.34 72.76 73.44 72.32 71.19 71.31 70.80 71.50 73.23 71.87 71.45 70.94 70.25 69.56
44.97 45.84 42.39 48.61 49.88 49.05 48.25 42.62 49.47 51.38 50.66 50.16 50.88 51.44 51.64 52.56 53.19 54.35 55.02 55.19 57.14 59.30 60.06 60.95 60.05 61.14 67.40 70.69 70.35 70.91 71.07 71.02 70.67 71.32 72.12 73.17 72.47 72.81 73.41 70.62 70.97 71.59 71.42 71.14 71.42 70.78 69.70 68.64 68.83
45.04 40.62 43.69 46.83 49.58 47.51 46.84 44.63 49.26 50.56 49.71 49.08 50.34 51.23 51.52 52.34 53.48 54.48 56.37 58.54 59.75 60.37 61.39 61.76 63.16 62.69 61.53 63.77 67.54 70.71 72.18 71.39 71.21 71.77 71.64 73.15 72.97 72.21 72.88 71.04 70.17 70.67 70.27 70.75 70.25 70.07 69.89 68.40 68.59
41.97 43.16 45.16 43.99 47.50 47.56 45.11 45.27 48.29 49.76 48.96 48.93 49.60 50.38 51.05 51.75 52.64 56.42 57.90 59.01 59.49 60.28 60.95 61.18 61.86 62.73 63.66 63.06 62.93 66.76 68.34 70.25 71.62 71.86 71.92 72.80 71.88 72.17 72.59 71.44 70.64 70.44 69.39 69.55 69.94 69.12 69.02 68.63 67.85
44.15 42.99 42.56 44.88 47.38 45.33 44.68 44.51 45.76 48.08 48.87 48.69 48.76 49.76 50.61 51.74 54.57 56.99 58.10 58.83 59.39 60.01 59.89 59.86 59.89 60.88 61.67 61.72 61.38 60.42 65.46 67.73 69.64 70.63 72.37 73.09 72.11 71.66 71.77 71.02 69.79 69.74 67.67 68.83 67.77 68.27 66.62 66.54 68.18
43.37 41.32 41.08 43.89 45.36 44.62 43.59 43.13 46.34 47.94 48.48 49.44 49.43 50.07 50.70 52.02 54.58 55.37 56.00 56.88 57.36 57.30 57.70 57.60 58.23 59.12 59.69 60.28 61.56 62.31 62.48 65.22 67.11 69.50 70.46 71.93 72.60 71.63 70.73 70.67 69.26 69.69 67.50 67.09 66.65 66.43 65.26 65.88 67.26
41.51 40.24 40.54 40.51 43.88 45.25 43.34 41.32 43.33 46.58 48.08 48.94 50.07 50.88 53.34 52.99 52.71 53.26 53.44 54.65 55.46 55.35 55.46 55.61 56.42 57.14 57.80 58.78 59.60 61.28 62.67 62.94 65.25 67.13 67.46 69.82 71.84 71.90 70.41 68.66 69.74 69.88 67.67 66.02 66.51 65.98 64.95 63.61 65.18
38.34 43.85 42.44 41.00 39.69 35.61 43.22 35.09 42.97 44.73 44.82 46.27 49.35 51.89 52.44 51.73 52.24 52.38 52.65 53.17 53.62 54.15 54.94 54.69 55.06 55.11 55.69 56.99 56.94 57.59 57.97 59.47 61.84 66.32 67.12 68.57 70.16 70.32 70.07 69.89 68.22 70.13 68.05 67.15 66.24 66.12 66.24 65.75 61.48
40.05 43.91 41.62 40.99 39.32 38.76 39.07 36.86 40.83 45.04 43.29 45.90 49.52 51.09 50.69 51.01 51.22 51.43 51.79 51.91 52.57 53.27 53.03 53.35 53.00 53.12 53.59 53.70 54.94 54.73 55.36 57.65 61.07 63.72 67.13 68.23 68.89 69.56 67.37 67.81 68.38 69.14 68.57 68.14 67.26 65.71 66.25 65.96 64.38
44.15 41.15 40.02 40.05 38.02 31.75 37.65 37.69 38.69 41.46 43.06 46.21 49.23 49.34 49.58 50.11 50.86 51.11 51.14 51.19 51.33 51.94 51.46 51.37 50.46 50.02 50.82 50.46 50.64 50.18 50.41 52.69 55.96 59.82 62.74 67.40 67.80 68.62 67.07 66.84 66.40 68.18 68.32 66.68 67.68 67.77 66.55 66.73 65.70
40.40 37.21 30.10 28.50 29.03 29.40 39.27 37.39 39.47 44.14 47.98 48.87 48.20 48.54 48.53 49.22 49.54 49.52 49.09 48.92 49.03 48.71 49.09 48.90 47.97 46.54 47.42 47.20 47.46 47.08 47.65 49.77 51.53 55.64 60.71 63.41 66.23 67.17 66.78 65.39 65.90 66.13 66.67 67.05 68.26 67.33 64.64 66.96 65.92
37.92 35.93 29.20 22.43 26.14 30.66 38.44 33.56 38.31 47.08 48.18 48.01 48.14 47.27 47.05 47.25 48.11 47.91 47.66 47.73 47.54 46.87 47.06 46.24 44.85 43.55 44.04 44.32 44.26 43.98 44.13 46.66 49.62 53.77 58.10 62.46 65.97 67.09 67.92 65.24 65.57 66.24 66.36 67.23 67.65 67.35 65.59 65.56 65.94
37.44 33.88 39.28 32.80 34.69 31.13 35.32 38.91 44.27 44.78 44.74 45.15 44.40 44.75 45.42 45.90 46.63 46.61 46.88 46.80 46.19 45.59 45.07 43.74 41.88 41.05 41.55 41.52 41.67 41.47 43.09 44.71 46.99 50.52 55.83 60.66 65.67 66.82 67.71 66.04 64.82 65.20 65.50 65.64 66.58 66.63 67.01 65.83 65.09
37.67 39.06 32.07 33.76 24.21 23.97 31.19 32.67 34.41 39.57 39.87 42.03 41.60 42.48 43.53 44.71 45.34 45.68 45.75 45.35 45.01 44.38 43.84 42.61 40.88 39.44 39.38 39.84 38.70 39.71 41.53 44.09 46.49 48.71 52.11 59.61 65.81 66.72 67.05 66.96 65.00 64.35 64.73 64.69 65.30 65.78 66.05 66.36 65.14
34.54 32.81 33.69 34.10 31.83 25.05 24.47 30.78 42.49 40.19 41.37 41.15 41.82 41.96 42.72 43.53 44.08 44.29 44.30 44.15 43.64 42.18 41.46 39.89 37.44 37.57 36.64 36.51 36.77 38.80 41.84 44.70 47.91 53.61 55.77 62.14 65.15 66.01 65.48 65.21 64.51 63.98 64.35 63.90 64.04 64.51 64.70 63.85 62.99
37.34 34.93 34.86 29.21 26.99 31.34 30.06 29.91 44.04 42.96 42.76 41.66 40.90 41.18 42.23 42.99 43.51 43.48 43.04 42.55 41.01 38.85 38.34 36.54 35.31 34.71 33.96 34.65 35.51 38.19 41.38 43.08 46.49 50.23 59.86 62.74 64.10 65.35 65.35 64.90 63.57 63.24 63.05 62.88 63.19 63.75 64.36 62.97 62.29

GFSSGP_sfc_wetblb_114.txt.gz
Wetbulb
60.75 58.82 58.79 56.94 48.45 48.85 45.86 47.89 52.19 49.59 49.90 52.90 53.20 51.64 50.88 52.36 51.40 52.13 69.48 71.81 73.88 74.45 73.70 72.72 72.57 73.27 73.86 74.26 74.33 74.24 74.19 74.47 74.51 74.53 74.47 74.62 74.53 74.45 74.44 74.37 74.39 75.06 75.67 75.77 74.94 74.72 74.61 74.67 74.47
59.34 60.56 57.45 53.62 46.92 44.22 46.24 51.27 49.26 50.05 51.65 52.81 52.34 52.06 51.54 51.24 57.20 60.45 62.78 69.15 73.20 75.08 73.36 73.27 72.37 72.95 73.60 73.89 74.14 74.25 74.37 74.55 74.54 74.53 74.62 74.65 74.40 74.50 74.49 74.11 73.94 74.54 75.57 75.62 74.84 74.74 74.90 74.80 74.23
59.25 60.30 52.86 50.81 48.02 44.78 46.60 50.51 50.50 50.87 52.12 51.44 51.06 53.93 53.25 54.58 59.92 60.96 67.03 71.54 73.46 74.56 75.10 73.74 71.92 72.34 73.09 73.58 73.90 73.96 74.20 74.02 73.99 74.11 74.65 74.65 74.53 74.70 74.62 73.78 73.75 74.70 75.42 75.42 74.16 74.56 74.80 73.63 72.35
56.78 55.54 53.51 47.74 46.38 50.00 50.93 52.65 51.62 51.03 52.09 52.70 52.34 50.39 55.26 60.16 59.43 64.07 68.45 72.04 73.97 74.68 75.32 70.43 71.08 71.95 72.65 73.39 73.82 73.98 73.86 73.22 73.21 73.59 74.24 74.62 74.43 74.60 74.36 73.65 73.90 74.81 75.17 75.10 74.82 74.77 73.65 71.77 71.21
57.07 54.05 48.11 47.03 47.81 50.94 53.13 54.24 53.01 51.08 51.80 52.63 52.82 50.67 53.07 59.19 61.43 65.51 68.31 72.84 73.24 75.42 74.22 72.21 70.40 71.32 72.34 73.27 73.71 73.53 73.06 72.76 72.93 73.37 73.74 74.02 74.27 74.16 73.69 73.14 73.66 74.31 74.68 74.81 74.59 73.88 72.59 70.77 70.65
51.84 52.83 46.00 45.21 48.24 51.67 53.93 54.79 53.44 52.55 53.10 53.27 52.53 52.18 53.82 60.35 60.08 64.49 68.17 72.58 75.10 75.04 75.31 72.48 71.41 71.45 71.70 72.24 72.34 72.22 72.40 72.64 72.60 72.89 73.25 73.78 73.61 73.27 73.18 72.94 73.34 73.31 73.49 73.67 73.35 72.82 72.20 70.71 70.45
49.28 49.00 46.32 47.33 47.76 49.70 52.51 55.37 52.80 52.45 52.47 52.59 55.28 51.17 56.25 57.95 60.96 62.99 66.97 73.57 76.30 76.12 75.71 74.22 72.64 71.79 71.19 70.57 70.66 70.60 71.34 71.90 72.15 72.16 72.45 72.72 72.33 72.28 72.57 72.56 73.06 72.78 72.87 72.64 72.24 71.59 71.22 70.64 70.11
50.59 48.66 45.21 46.54 46.21 47.44 53.26 53.40 53.68 52.58 51.86 56.71 56.10 51.01 52.82 58.37 61.38 63.43 62.67 71.85 74.48 75.53 76.51 75.06 73.58 72.56 72.09 71.47 69.92 69.96 70.53 70.83 71.30 71.77 71.57 71.26 71.59 71.87 71.90 71.85 72.26 72.51 72.09 72.23 72.07 71.20 70.64 70.14 69.51
52.47 45.06 43.13 45.74 47.64 49.77 53.03 51.48 53.90 55.31 52.87 54.03 55.32 55.12 57.21 59.09 59.44 59.74 61.97 64.50 72.71 73.87 74.95 75.69 73.77 73.11 72.93 72.41 71.13 70.17 70.53 70.48 70.51 71.27 71.10 69.87 72.66 72.11 71.89 71.15 70.86 71.47 70.86 70.73 71.02 70.72 69.77 69.12 69.04
48.74 45.07 45.98 50.47 51.44 50.58 51.19 50.47 51.21 50.83 51.05 52.11 53.39 56.40 58.09 57.66 57.85 57.33 57.07 58.18 67.83 71.40 73.04 74.19 73.85 73.21 73.50 72.42 71.84 71.29 71.13 70.85 71.13 71.72 71.76 72.62 72.51 72.61 71.99 71.03 69.93 70.17 70.05 69.81 70.08 69.68 68.87 68.38 68.84
49.37 45.80 49.58 50.52 51.80 51.77 50.53 49.74 51.68 49.67 48.24 51.07 51.60 53.34 55.32 55.89 55.89 56.69 56.99 57.65 58.82 64.09 71.97 72.81 72.08 71.86 71.82 73.00 72.51 71.30 71.35 70.60 70.83 71.28 71.70 71.50 71.75 72.08 71.24 71.24 70.56 70.79 69.68 70.36 69.42 69.26 69.39 68.79 68.34
46.83 49.69 49.86 50.34 51.12 50.00 48.38 49.84 48.99 49.69 50.90 53.38 53.34 53.54 53.53 53.66 54.30 54.70 55.16 55.94 57.73 59.70 70.86 72.25 71.84 71.77 71.30 71.76 72.67 72.48 71.81 71.40 71.13 71.08 71.84 71.10 70.69 70.49 70.97 70.16 70.56 70.48 70.39 69.86 69.62 69.41 69.18 68.74 68.90
48.73 49.28 50.26 50.75 50.53 50.04 49.90 47.48 47.59 48.46 50.86 52.04 52.30 52.51 52.42 53.00 53.18 54.10 55.05 55.89 57.75 62.23 67.23 70.22 71.05 71.42 71.17 71.39 71.89 72.34 71.53 71.65 71.93 71.81 72.15 71.72 70.55 70.52 70.76 69.85 70.37 70.62 70.28 70.05 69.24 69.22 69.26 68.99 68.97
49.32 49.27 49.38 49.73 48.97 49.39 48.11 47.73 48.91 50.06 51.94 51.26 51.08 50.83 51.55 52.12 52.57 53.51 54.81 55.42 59.13 59.43 60.04 66.49 69.80 70.29 71.87 71.45 71.37 71.23 72.32 72.02 71.41 71.42 72.10 72.13 71.41 69.83 70.26 69.75 69.87 70.31 70.52 70.04 69.24 68.29 67.92 67.84 68.08
49.07 45.33 47.21 48.10 48.91 48.57 50.12 46.29 46.74 50.42 51.71 50.91 51.28 51.82 52.25 53.76 53.39 53.30 54.99 57.32 57.43 57.12 59.64 60.97 60.32 64.13 66.39 70.26 70.15 70.44 71.24 71.07 71.18 71.09 71.30 71.20 71.71 70.40 69.87 69.90 68.90 68.64 70.26 69.49 69.09 68.87 68.88 68.23 67.77
44.96 45.82 41.77 47.25 48.96 49.69 48.62 41.96 48.41 51.33 51.33 50.32 50.75 51.17 51.82 52.41 52.96 53.56 55.64 56.05 57.42 59.49 60.70 62.52 62.95 62.18 62.29 62.30 69.63 70.36 69.72 70.22 69.77 70.34 70.64 70.37 71.34 70.30 70.61 69.10 69.01 69.71 68.31 69.79 69.08 68.07 66.35 66.60 66.79
43.99 39.54 42.25 44.64 49.82 49.55 47.48 43.86 48.68 51.28 50.59 49.36 50.15 50.79 51.39 51.98 53.00 54.71 56.04 58.32 58.78 59.49 60.17 61.07 61.92 62.30 62.99 62.85 61.87 63.64 68.42 69.91 69.30 68.98 69.93 69.80 69.82 70.91 69.97 69.67 69.22 68.95 68.99 67.89 68.78 67.78 67.11 65.99 65.41
39.78 40.72 42.94 43.36 47.52 48.63 46.50 45.15 47.98 49.69 49.78 49.39 49.32 50.25 51.04 51.55 52.19 56.54 57.76 58.78 59.11 59.97 60.52 60.65 60.78 61.78 62.31 62.50 63.09 61.30 60.63 67.43 69.55 69.55 69.12 69.57 69.94 69.97 69.88 69.42 69.18 68.53 67.84 67.54 67.61 66.57 66.82 66.05 65.69
43.59 41.75 40.98 44.09 46.99 45.64 45.30 44.76 46.80 48.76 49.00 48.70 49.61 49.60 49.86 50.88 55.06 57.24 58.01 58.65 58.54 59.11 58.47 58.32 58.91 60.29 59.80 59.65 59.34 59.93 59.15 61.28 65.96 68.52 69.44 69.88 69.76 69.78 69.42 68.86 69.18 68.14 67.30 67.02 67.02 66.77 65.54 65.20 65.82
43.11 41.07 40.92 43.98 45.89 44.93 44.01 43.07 46.02 47.21 47.44 48.28 48.95 49.74 49.73 50.99 54.16 55.30 55.77 56.21 56.16 56.11 56.12 56.12 56.10 56.71 56.98 57.32 57.45 58.44 58.97 60.22 61.34 61.51 64.32 68.69 69.58 69.55 69.60 69.01 68.63 68.48 66.97 66.23 66.56 66.56 64.45 64.98 65.43
41.36 39.91 40.69 40.25 42.90 44.59 42.94 40.77 43.22 46.29 48.39 49.08 50.05 50.69 51.89 52.24 52.98 53.23 53.40 54.10 54.96 54.97 54.53 53.93 54.28 54.43 55.11 55.99 55.67 56.51 57.91 59.04 60.17 60.27 61.09 66.27 67.51 69.75 68.71 68.70 68.27 67.63 67.03 65.66 65.63 66.48 64.39 63.18 64.45
37.90 43.75 42.63 41.21 39.26 34.71 42.74 32.76 41.08 44.17 45.43 47.25 48.30 51.25 51.44 51.26 52.06 52.14 52.15 52.33 52.70 53.02 53.67 53.10 53.03 52.65 53.01 52.96 52.47 52.61 52.84 52.86 56.12 57.67 60.03 61.73 65.20 66.22 68.43 67.83 68.22 67.54 67.31 65.61 65.08 66.19 65.49 64.25 62.16
40.53 44.56 42.22 40.82 36.91 36.96 37.38 34.42 38.32 43.61 42.78 44.39 48.47 50.33 50.42 50.64 51.00 50.42 50.35 50.65 51.62 51.75 51.16 51.42 51.28 50.93 50.75 50.40 50.41 49.63 49.81 50.98 52.50 53.46 54.99 57.45 60.87 64.12 67.46 67.64 67.59 67.29 67.47 66.74 65.13 64.86 65.18 64.50 62.90
44.00 40.71 41.27 40.78 37.06 28.54 35.07 34.47 35.12 39.44 43.20 44.43 48.28 48.90 49.34 49.62 50.11 50.32 50.54 50.54 49.82 49.96 49.48 49.53 48.56 48.13 48.34 47.67 47.65 47.19 47.20 47.29 48.18 49.77 51.22 53.75 57.26 61.06 65.25 66.78 67.00 66.52 66.33 66.25 65.86 65.66 65.03 64.33 64.21
41.12 36.56 28.38 26.75 26.85 27.13 36.96 34.24 36.80 43.22 46.75 46.85 46.78 47.48 47.80 47.91 47.81 47.65 47.10 47.07 47.61 47.38 47.23 46.95 46.26 44.81 45.14 44.88 44.89 45.03 44.79 45.03 44.88 46.22 48.69 50.62 53.37 56.58 61.15 65.10 65.62 65.78 66.21 66.41 66.50 66.12 65.02 64.80 63.78
38.11 36.22 27.94 21.16 23.69 28.12 35.24 31.25 37.03 45.19 46.63 46.98 46.83 46.24 46.36 45.89 46.37 46.05 46.22 46.32 45.98 45.93 45.34 44.74 42.82 41.77 42.10 41.90 41.61 42.28 42.43 42.67 43.61 44.66 46.39 48.60 51.60 54.65 58.57 63.65 64.40 65.02 65.09 65.24 65.85 65.62 65.50 65.22 64.23
37.13 33.57 39.11 30.84 31.81 28.17 32.15 37.11 42.19 44.29 43.37 43.46 43.53 44.06 43.44 44.10 44.36 44.45 45.06 45.20 44.54 43.93 43.06 42.12 40.79 39.64 39.63 39.59 39.60 39.58 40.29 40.78 41.45 42.82 44.66 46.34 48.89 52.20 55.54 59.26 64.05 64.69 64.92 64.61 65.12 65.09 64.81 64.65 63.85
37.83 39.65 31.45 31.64 23.80 22.67 30.52 33.01 31.99 38.81 39.84 41.56 41.23 41.32 42.26 42.86 43.26 43.43 43.72 43.69 43.38 42.43 41.23 40.31 39.59 37.97 37.33 37.44 37.41 37.85 39.02 39.92 41.39 43.44 44.20 45.86 47.48 50.10 53.47 56.68 62.67 64.74 64.72 64.72 64.96 64.61 64.32 63.60 63.87
35.17 33.32 34.31 34.04 30.25 24.50 23.50 29.17 40.78 39.54 40.51 40.01 40.83 41.31 41.26 41.54 41.93 42.10 42.45 42.86 41.78 40.43 39.24 37.84 37.06 36.06 34.75 34.95 35.20 36.13 38.19 39.04 41.30 42.31 43.91 46.53 49.47 50.61 51.98 56.15 61.54 63.81 63.70 64.28 64.22 64.01 63.72 63.26 63.37
38.03 36.24 35.50 28.00 26.46 30.17 28.43 27.96 43.50 42.83 43.00 42.15 40.93 41.43 41.57 41.72 41.02 41.18 41.08 40.80 39.49 37.92 36.90 35.98 35.05 33.83 33.32 33.36 34.38 35.31 36.72 37.23 38.98 40.20 42.50 45.43 48.75 55.74 54.26 57.60 61.94 62.80 63.22 63.23 63.54 63.20 63.27 62.92 62.02

GFSSGP_sfc_wetblb_117.txt.gz
Wetbulb
56.74 54.38 52.35 50.23 41.14 39.12 35.89 41.53 44.13 43.42 44.56 47.31 48.86 48.91 46.57 47.55 50.12 52.18 65.33 70.05 72.61 71.11 72.13 72.52 72.44 73.48 73.91 74.15 73.57 73.54 74.06 74.31 74.36 74.37 74.33 74.30 74.22 74.22 74.09 73.95 73.99 74.70 75.49 75.07 74.64 74.29 74.01 74.27 73.76
56.40 57.01 53.14 46.49 38.23 33.35 37.94 45.79 42.32 44.85 47.84 50.00 50.25 49.33 48.57 51.98 57.69 58.94 62.57 69.47 72.87 71.73 71.24 72.01 72.11 72.92 73.55 73.62 73.60 73.28 74.15 74.39 74.20 74.33 74.43 74.02 74.17 74.07 74.11 73.79 73.74 74.54 75.48 75.27 74.16 74.13 74.52 74.26 73.70
56.34 57.11 46.34 41.68 37.69 35.61 38.21 44.89 44.43 46.91 49.13 48.71 48.30 50.37 51.33 54.42 58.16 59.87 66.30 69.85 72.07 71.63 71.68 72.18 71.62 72.23 73.04 73.38 73.53 73.17 73.42 73.54 73.68 73.86 74.36 74.20 74.17 74.20 74.17 73.38 73.22 74.17 75.53 75.47 74.64 74.44 74.37 73.33 72.42
52.41 48.95 46.16 39.26 38.20 42.72 44.59 48.13 46.56 47.47 48.15 49.23 47.68 47.61 54.23 59.32 58.59 62.32 68.50 70.64 70.40 71.81 72.28 70.60 70.74 71.74 72.70 73.25 73.32 73.21 73.13 72.62 72.87 73.21 73.97 74.09 74.25 74.27 73.76 72.82 73.22 74.44 75.21 75.22 74.72 74.46 73.43 71.89 70.99
52.01 46.12 38.81 37.43 39.89 44.98 48.81 49.83 48.09 47.99 49.74 50.66 49.07 48.72 51.31 57.19 62.25 63.41 68.15 71.82 70.53 71.69 71.07 70.77 70.11 71.14 72.42 73.30 73.30 72.99 72.61 72.11 72.39 72.87 73.28 73.56 73.78 73.90 73.06 72.43 72.91 73.82 74.32 74.30 74.06 73.51 72.17 70.60 70.12
44.76 44.84 36.49 35.21 40.83 46.13 48.44 49.71 50.24 50.28 50.99 50.68 48.74 49.82 51.35 56.92 57.64 59.73 69.05 70.07 71.58 71.54 71.15 70.83 71.36 71.25 71.69 72.41 72.44 72.15 72.03 71.70 71.83 72.33 72.81 73.27 72.99 72.78 72.72 72.42 72.46 73.11 73.35 72.91 73.11 72.46 71.76 70.29 69.88
41.01 39.22 36.57 39.12 42.35 44.54 48.47 51.34 49.59 49.36 49.19 50.27 52.28 48.82 52.22 54.89 56.31 57.08 67.83 69.91 71.12 72.60 70.75 70.43 70.69 71.33 70.81 70.66 70.71 70.69 71.18 71.35 71.44 71.80 71.96 72.37 71.89 71.84 71.99 72.18 72.31 72.72 72.47 72.21 72.31 71.73 71.36 70.40 69.56
43.89 40.73 36.94 38.76 40.71 42.46 49.39 50.45 50.16 49.16 47.82 55.52 52.38 48.68 48.40 53.75 56.57 56.58 59.78 69.35 70.04 71.82 71.77 70.10 69.97 69.77 69.41 69.59 69.77 70.04 70.69 70.80 70.82 71.26 71.18 70.96 71.07 71.47 71.57 71.48 71.76 72.17 72.05 71.85 71.87 71.04 70.59 69.92 69.21
43.96 36.45 35.13 37.58 40.90 44.35 50.04 46.13 49.35 50.36 49.78 51.32 52.40 51.15 54.05 56.24 55.67 54.02 53.65 64.68 69.32 70.31 72.12 71.13 70.02 69.83 69.30 68.98 69.86 70.08 70.73 70.56 70.40 71.03 70.44 69.80 71.28 71.43 71.15 70.69 70.58 71.32 70.47 70.58 70.77 70.41 69.69 68.81 68.54
40.58 36.11 38.40 44.52 46.33 46.84 48.52 45.21 47.27 46.93 47.13 49.08 50.44 53.51 55.05 55.14 52.69 52.27 52.00 52.82 67.69 68.61 70.02 71.30 70.49 69.97 69.91 70.70 69.09 68.60 69.84 69.75 70.18 70.70 70.83 70.79 70.43 70.54 71.26 70.26 69.46 69.98 69.47 69.58 69.72 69.47 68.77 68.24 67.76
42.09 40.16 44.26 46.72 49.04 48.70 45.16 46.35 47.54 46.47 45.32 47.97 48.09 49.88 51.48 51.72 50.24 50.65 51.97 51.82 52.06 66.55 69.84 70.97 71.32 71.04 70.56 70.08 68.99 69.10 68.44 68.17 68.96 69.74 70.13 70.27 70.95 70.65 69.93 69.96 69.76 69.14 69.44 69.27 69.00 68.76 68.42 67.85 67.20
40.93 45.53 46.46 47.06 48.44 47.74 46.85 45.90 45.24 45.59 46.80 49.53 48.80 49.96 49.85 49.36 49.40 49.90 50.87 51.83 51.56 55.51 70.05 70.29 70.40 70.50 70.98 71.52 69.75 68.94 69.00 68.11 68.16 68.62 69.56 69.70 68.26 68.80 69.75 69.40 68.85 68.77 69.05 68.42 68.19 68.28 68.08 67.34 67.47
43.97 45.28 47.03 47.75 47.54 46.63 47.05 44.97 45.79 46.21 47.11 48.50 48.89 49.25 48.65 48.31 47.24 48.28 49.53 51.05 52.09 52.13 68.65 69.44 69.59 69.24 69.75 69.53 70.65 70.93 69.28 69.07 68.97 68.82 69.32 69.47 67.86 68.01 67.91 68.23 68.93 69.04 69.01 68.57 67.70 67.76 67.99 67.58 67.10
46.25 46.30 46.11 47.21 47.07 47.44 46.05 45.92 45.04 47.26 47.57 47.84 48.31 47.47 47.73 47.90 47.69 46.90 48.31 49.40 50.84 53.42 58.53 58.38 66.67 69.32 69.27 67.80 68.83 68.26 69.09 69.55 69.65 69.69 69.64 69.90 69.02 67.73 68.10 67.74 68.08 68.73 68.87 68.74 68.01 67.46 67.46 67.53 66.86
45.99 41.25 43.72 44.10 44.70 44.88 47.09 43.57 44.51 48.44 48.24 48.42 48.22 47.59 48.00 49.42 48.91 48.32 49.05 48.14 51.58 56.12 57.89 58.08 58.31 59.61 60.15 65.60 67.43 68.30 68.28 69.37 69.31 68.61 69.72 70.20 69.82 68.20 67.53 67.42 67.01 68.22 69.29 68.03 68.21 66.66 65.79 65.33 66.37
41.36 41.17 36.50 42.92 45.47 46.91 44.02 39.42 44.74 47.47 46.73 46.52 46.96 47.62 47.54 48.61 49.12 48.71 48.68 52.56 53.92 55.28 56.73 57.90 59.84 59.32 59.61 59.57 60.60 65.95 67.76 67.85 68.12 69.39 69.36 69.45 70.29 69.25 67.60 67.37 67.26 66.37 68.64 68.35 67.81 67.12 65.29 65.16 65.20
37.78 31.49 35.88 39.73 46.06 46.12 43.59 41.72 47.12 47.74 46.95 45.71 45.36 43.90 46.00 46.78 47.88 48.55 52.97 53.59 54.81 55.17 55.47 56.25 57.23 57.46 57.94 58.49 59.59 59.76 60.65 60.79 66.53 67.85 69.06 69.02 68.48 69.43 68.94 67.28 66.89 67.12 66.53 67.69 67.67 66.32 64.87 63.48 63.92
33.10 34.51 35.83 37.08 40.88 43.82 42.06 41.46 44.47 46.24 45.65 45.32 44.68 45.28 45.99 45.50 48.83 54.18 54.45 54.71 54.35 54.09 54.18 54.70 55.91 55.80 56.17 56.66 57.28 58.20 58.17 57.92 60.93 65.89 66.40 67.81 68.64 68.11 68.77 68.48 67.85 66.62 66.20 65.81 66.42 66.22 64.47 64.16 63.93
39.78 38.39 37.25 40.32 43.82 41.74 40.73 41.14 42.59 44.38 44.17 43.28 42.93 43.76 44.89 49.14 52.86 53.68 53.09 52.49 52.32 52.05 52.19 52.37 52.44 52.66 53.29 53.05 52.43 53.56 54.17 56.09 57.86 59.18 61.21 62.47 67.73 68.04 67.63 67.55 66.73 66.91 66.48 66.29 65.10 63.83 64.75 62.76 63.92
40.24 37.57 36.62 39.97 42.72 41.71 40.13 39.18 41.65 43.99 43.46 43.85 43.33 43.12 44.50 49.98 51.24 51.46 51.21 50.25 50.17 50.07 50.23 50.54 50.62 50.77 51.42 51.07 51.58 52.15 52.72 54.41 55.76 58.08 58.57 60.21 60.97 65.24 67.08 67.34 67.05 67.49 66.04 64.39 65.06 63.95 61.40 63.14 64.53
39.51 37.22 37.00 36.89 40.06 40.63 38.68 36.43 38.57 43.24 45.18 45.64 45.82 46.52 46.20 50.43 49.36 49.70 49.57 47.69 48.01 47.85 47.79 48.86 48.86 48.64 49.28 49.36 49.61 49.99 50.83 51.67 52.38 53.36 54.80 56.27 57.51 60.10 64.19 66.83 66.90 66.83 66.53 65.00 64.86 64.31 63.21 62.76 62.36
35.08 41.99 42.10 40.05 36.19 29.83 36.69 27.36 36.90 41.09 42.31 44.35 45.30 47.25 48.01 48.13 48.07 47.47 46.60 46.01 46.11 45.41 46.92 47.15 47.66 47.02 47.83 46.98 46.14 45.39 45.77 46.12 48.19 48.91 50.30 51.35 53.56 55.59 58.14 61.29 65.55 66.28 66.30 65.44 64.82 65.37 64.91 63.95 61.95
38.23 43.51 38.90 38.36 36.15 34.43 34.19 27.94 33.84 39.64 38.86 42.63 45.35 46.26 46.55 46.74 45.82 45.10 45.13 45.04 44.83 44.74 44.44 44.40 44.86 44.93 44.35 43.91 44.07 43.49 43.22 44.50 46.18 47.10 47.11 48.41 50.48 52.38 54.34 57.18 59.82 64.77 65.17 64.93 64.71 63.62 64.75 63.90 62.47
44.37 40.17 36.98 35.03 33.04 26.03 32.93 30.46 31.01 34.32 39.85 43.40 45.36 45.64 45.48 45.21 44.50 44.76 44.91 44.75 43.31 43.25 42.71 42.14 42.08 41.93 42.00 41.70 41.61 41.20 40.37 40.93 41.88 42.70 43.17 44.96 47.59 49.71 51.76 54.77 57.44 61.53 64.81 65.00 64.19 63.74 63.50 64.91 64.51
39.72 32.79 25.12 22.48 22.92 23.53 34.98 31.92 33.14 40.86 42.93 44.22 42.92 42.72 43.65 43.73 42.87 42.85 42.11 41.46 41.39 40.11 39.76 40.81 39.57 39.00 39.35 39.06 39.37 39.81 40.04 40.26 40.39 41.60 42.70 43.21 44.22 46.37 48.99 51.71 54.09 57.98 62.73 64.77 65.26 63.80 63.33 64.02 64.07
37.08 33.41 25.24 21.01 21.35 24.20 34.02 27.80 33.09 41.62 42.51 42.40 43.10 42.88 42.57 41.59 41.91 41.25 40.14 39.72 39.07 38.72 37.54 36.69 36.72 36.72 37.05 36.71 36.50 37.91 38.19 38.85 39.23 39.90 41.07 42.28 43.62 44.87 46.69 48.28 51.09 53.54 56.15 63.19 64.13 64.07 63.82 64.25 64.31
35.60 30.53 36.67 29.37 30.18 25.09 27.31 33.67 37.72 39.88 39.86 40.59 40.23 40.48 40.52 40.53 40.87 40.37 39.76 39.04 37.68 36.87 36.31 35.29 35.10 35.00 35.22 34.56 34.60 34.96 36.14 36.83 37.51 39.31 40.46 41.11 42.80 44.65 45.70 47.05 48.72 51.47 54.42 59.53 62.95 62.71 62.47 64.44 64.59
36.87 37.90 29.34 29.20 22.14 20.59 25.95 28.68 31.88 36.79 37.68 39.23 38.46 38.68 38.99 38.82 38.80 39.45 38.28 37.52 36.74 36.21 35.67 35.40 34.86 33.69 33.56 33.31 33.58 34.59 35.52 36.76 37.85 38.51 39.07 41.07 42.84 44.34 45.27 45.91 47.27 49.46 53.10 57.50 62.11 60.57 62.38 62.75 63.82
32.80 31.31 32.51 33.06 28.16 22.16 20.87 25.74 38.86 38.18 38.73 38.42 38.63 38.83 37.23 36.35 36.78 36.85 37.05 36.75 35.64 35.17 34.37 34.00 34.13 33.42 32.40 32.59 33.36 34.15 35.30 36.53 37.00 37.75 39.08 40.90 42.10 43.66 45.07 47.41 48.91 49.47 50.93 55.00 61.70 61.04 61.34 61.42 62.38
35.75 34.23 33.75 24.26 23.19 25.64 24.18 23.96 41.62 41.31 41.33 40.52 38.51 38.29 36.70 36.67 35.98 35.59 35.00 34.46 33.73 32.90 32.87 32.62 32.30 32.30 32.38 32.58 33.79 34.33 35.26 35.70 35.75 36.41 37.60 39.72 39.90 41.69 44.25 47.99 50.68 50.97 51.13 54.58 61.11 62.10 61.87 61.14 61.82

GFSSGP_sfc_wetblb_120.txt.gz
Wetbulb
57.14 52.81 51.05 48.96 40.43 37.14 34.13 39.31 42.86 42.42 42.87 46.00 47.39 47.40 46.00 47.76 51.39 52.52 64.85 70.91 71.07 70.99 72.20 72.68 72.56 73.35 73.51 73.47 73.46 73.54 73.80 73.99 73.97 74.04 73.78 73.65 73.82 74.03 73.99 74.08 74.45 75.05 75.46 74.99 74.74 74.34 73.92 73.87 73.20
55.56 55.33 50.34 44.05 36.72 32.43 35.40 41.52 42.75 42.91 46.84 48.42 48.89 48.20 47.61 52.12 58.50 60.98 62.76 71.08 70.89 71.20 71.70 72.14 72.38 72.95 73.30 73.04 73.13 73.43 74.13 74.06 74.06 74.06 73.78 73.62 73.74 73.74 73.53 73.41 73.68 74.65 75.23 74.72 74.42 73.97 73.97 73.74 72.78
55.49 55.08 45.29 39.81 34.15 33.77 36.56 41.45 43.77 45.80 47.63 47.19 47.11 49.00 51.56 53.20 57.55 61.18 65.56 71.38 71.30 70.78 71.54 71.83 71.77 72.27 73.02 73.01 72.80 72.99 73.55 73.50 73.48 73.71 73.90 73.78 73.99 73.95 73.79 73.18 73.45 74.77 75.40 74.89 74.11 74.54 74.29 72.94 71.79
51.50 47.05 43.86 37.87 35.56 40.41 40.60 45.50 47.71 45.16 46.92 47.91 45.98 46.97 53.77 57.66 59.70 63.73 69.27 71.24 70.69 70.31 71.27 70.62 70.87 71.73 72.76 73.14 72.81 72.74 72.77 72.40 72.69 73.08 73.51 73.73 73.91 74.05 73.58 72.74 73.36 74.54 75.44 75.33 74.79 74.37 73.08 71.50 70.69
49.23 43.37 37.69 34.39 36.82 41.34 45.71 47.38 46.56 45.66 47.49 48.65 47.41 47.59 52.51 58.91 62.51 67.01 69.40 71.00 69.95 69.70 70.70 70.56 69.89 71.17 72.40 73.14 72.99 72.57 72.21 71.84 72.22 72.71 72.94 73.30 73.46 73.44 72.87 72.33 72.76 73.61 74.67 74.26 74.01 73.20 71.85 70.61 70.09
43.13 42.07 35.17 33.39 37.46 43.04 45.85 47.95 48.25 48.56 48.75 49.60 47.63 48.48 50.67 56.09 57.24 65.59 68.62 70.14 71.05 69.88 70.26 70.53 71.07 71.18 71.49 72.05 72.10 71.45 71.38 71.44 71.68 72.11 72.35 73.10 72.89 72.39 72.01 72.01 72.09 72.93 72.88 72.58 72.44 71.98 70.88 69.97 69.89
40.38 37.78 34.51 35.11 38.61 41.52 45.70 49.30 48.13 47.82 48.19 49.22 51.27 47.79 51.29 53.19 54.64 65.70 67.93 70.10 70.66 70.45 69.76 69.85 70.25 71.02 70.50 70.28 70.24 70.15 70.69 70.79 70.90 71.15 71.35 71.86 71.43 71.16 71.56 71.82 71.82 72.33 72.14 71.70 71.82 71.21 70.71 69.88 69.54
42.21 39.16 33.72 34.84 37.65 39.76 46.51 48.41 47.86 47.36 46.51 53.43 51.08 47.35 47.14 52.84 55.43 59.50 67.68 68.60 70.62 69.81 69.48 69.33 69.40 69.96 69.94 70.17 69.52 69.65 69.90 69.85 70.10 70.63 70.55 70.26 70.36 70.94 71.07 70.86 71.28 71.67 71.77 71.57 71.56 70.94 70.65 69.80 68.85
41.66 35.18 32.17 35.78 38.24 41.62 47.41 44.38 47.47 48.97 47.13 48.87 50.99 49.76 53.09 55.33 54.64 52.49 61.08 67.14 68.83 70.29 68.99 68.59 68.68 69.00 69.09 69.15 70.30 70.17 70.57 70.03 69.63 70.26 69.92 69.36 70.89 70.91 70.79 70.18 70.18 70.65 70.11 70.40 70.58 69.98 69.42 68.54 68.11
38.76 33.32 36.19 41.76 43.03 43.74 46.51 42.95 44.80 44.70 45.38 47.37 48.04 51.85 52.57 52.21 50.86 50.17 49.64 53.25 67.02 68.29 69.76 69.00 68.37 68.21 68.25 69.71 69.13 69.34 70.35 70.31 70.44 70.74 70.42 71.18 69.86 70.26 70.88 69.98 68.95 69.44 69.04 69.33 69.42 68.99 68.32 67.96 67.53
38.54 36.38 40.62 43.91 46.07 46.08 45.56 45.43 46.78 44.58 43.22 46.48 46.87 48.20 50.26 50.32 49.10 49.10 49.70 49.61 57.60 67.04 68.70 70.44 68.93 68.21 67.94 68.24 67.98 67.62 68.55 68.73 69.43 70.04 70.71 70.21 70.26 69.59 69.92 69.65 69.56 69.20 69.18 69.18 69.09 68.64 68.57 67.55 66.90
38.07 42.97 43.17 44.32 45.86 44.50 43.79 45.71 45.22 44.13 46.08 48.48 48.40 48.24 47.89 48.43 48.27 48.43 48.37 48.93 49.61 49.01 60.18 70.25 69.83 69.58 68.68 68.68 67.62 67.98 67.62 67.53 67.93 69.13 69.61 69.76 69.59 69.04 68.93 69.11 68.68 68.50 69.02 68.07 68.46 68.27 68.14 67.39 67.15
41.74 43.14 44.89 45.77 45.77 45.05 46.07 43.53 43.59 44.83 47.75 46.97 47.04 47.74 47.19 47.19 47.28 48.24 48.79 48.60 48.63 55.38 62.35 66.90 68.43 67.87 69.13 69.06 68.46 67.76 67.67 67.78 67.31 67.53 69.04 69.67 69.25 68.88 69.29 68.79 68.55 68.20 68.43 68.25 67.64 67.60 67.58 67.33 66.92
44.48 44.11 43.64 44.48 44.43 45.05 44.46 44.33 43.66 46.08 47.74 47.57 47.14 46.46 47.01 46.62 46.43 46.40 47.60 47.72 53.07 54.51 56.61 61.02 61.05 62.68 67.24 67.53 68.01 68.46 68.32 67.49 67.69 68.00 68.41 69.47 69.01 68.71 68.14 68.45 68.31 68.14 68.37 68.48 67.92 67.35 67.01 67.04 66.99
44.64 40.20 42.13 41.92 42.77 42.59 45.75 41.47 42.99 46.86 47.25 46.88 47.38 47.56 47.21 48.16 47.20 46.65 46.87 52.51 54.72 55.59 57.22 58.24 58.60 58.64 58.94 62.60 63.88 65.35 67.06 68.30 67.94 68.83 68.64 68.77 68.95 67.76 68.31 67.80 67.48 68.31 68.48 67.89 67.62 66.97 66.88 66.59 66.32
40.07 38.74 33.04 41.48 43.35 44.61 42.20 38.15 44.25 46.85 45.77 45.89 46.60 46.29 46.24 46.54 47.49 45.61 52.45 53.08 52.62 54.26 55.44 56.26 57.76 56.29 56.39 56.98 58.68 59.70 61.58 64.03 64.40 66.27 68.10 69.14 69.24 68.90 67.43 67.21 67.42 67.55 68.13 67.84 67.35 66.48 65.72 65.83 65.44
35.96 30.34 32.97 37.03 43.95 42.20 40.27 39.62 42.68 45.92 45.10 45.02 43.73 44.14 44.52 44.81 47.23 50.99 52.09 52.12 52.56 52.64 53.08 53.07 52.92 52.90 53.53 54.20 55.53 56.36 57.11 57.72 59.13 61.89 65.36 67.75 65.39 67.52 67.65 66.93 67.00 65.92 67.25 67.60 67.26 66.77 66.08 64.74 64.07
30.69 31.48 31.16 32.75 38.31 41.10 38.97 39.61 43.75 43.55 43.59 43.74 43.10 43.18 44.35 44.93 50.29 52.24 51.82 51.09 50.23 50.42 51.07 51.11 51.16 51.16 51.33 51.47 51.84 52.49 53.38 54.33 56.75 58.21 61.38 63.22 65.72 65.23 67.38 67.82 67.71 65.60 65.38 66.37 66.71 66.41 65.83 64.70 64.15
36.94 35.37 34.53 37.34 40.82 39.10 38.51 38.64 41.07 42.27 40.58 40.77 42.20 41.69 43.59 49.74 51.68 50.57 50.33 49.40 49.46 49.15 49.06 49.03 48.75 48.93 48.85 48.67 48.21 48.96 48.63 50.58 52.48 55.23 56.85 57.69 60.15 61.84 62.81 66.64 66.95 66.66 65.56 65.50 65.72 65.92 63.34 62.69 63.13
37.02 35.32 35.19 39.14 41.90 40.22 37.45 35.77 38.27 40.20 40.93 41.56 42.67 42.99 47.18 49.87 48.44 48.72 47.92 47.18 46.86 46.97 47.32 47.29 47.09 46.52 46.46 46.94 46.82 47.22 46.93 49.75 50.73 52.10 51.07 54.02 52.59 54.38 57.42 58.77 62.31 66.10 66.19 65.68 64.21 64.75 62.44 64.09 63.32
37.29 35.54 35.89 35.96 39.31 37.98 36.01 35.34 36.54 42.31 43.50 44.89 45.76 45.19 49.12 48.29 46.53 45.82 45.13 44.43 44.59 44.30 44.61 44.85 44.52 44.51 44.09 44.44 44.81 44.54 45.79 46.32 46.82 46.38 47.52 48.83 49.99 51.81 53.73 55.88 58.88 61.15 65.03 65.01 65.01 64.32 63.40 61.90 62.03
33.77 39.25 39.11 37.47 33.10 27.86 36.17 27.45 35.39 39.75 40.20 41.98 43.90 45.04 45.52 45.40 44.80 43.97 42.77 42.07 42.47 42.18 42.88 42.97 43.00 42.15 42.65 42.41 41.49 40.74 40.90 40.81 42.82 43.82 45.24 45.77 47.35 47.83 50.46 52.41 54.16 56.35 58.84 63.14 64.12 64.49 63.83 63.46 61.06
37.40 42.07 39.90 36.95 32.33 29.37 33.09 27.81 32.93 37.90 37.21 40.36 41.93 42.64 42.25 42.70 42.17 41.99 42.23 41.24 40.90 41.08 40.09 40.60 41.04 40.21 40.24 39.69 39.90 39.07 38.12 39.18 40.56 41.78 41.71 42.59 44.57 46.44 48.14 49.98 51.80 53.57 55.55 58.85 63.10 62.72 63.01 62.89 61.15
43.18 39.34 36.02 33.48 30.64 24.20 31.21 29.33 28.70 34.23 38.46 39.96 41.49 41.55 41.98 41.33 41.92 41.94 42.62 40.86 39.23 39.29 38.68 38.43 37.93 37.65 37.97 37.56 37.58 37.05 36.62 37.05 37.37 38.05 39.01 41.05 42.42 43.59 45.39 47.25 48.86 51.34 53.55 56.68 60.89 63.31 62.41 61.11 60.73
38.79 33.58 27.10 22.61 21.74 22.02 32.92 28.95 31.02 38.02 38.97 39.34 38.19 38.86 40.65 41.15 40.25 39.80 38.80 38.34 38.06 36.85 35.17 36.58 35.56 34.97 35.49 35.26 34.76 34.88 35.38 35.77 36.46 38.27 38.95 39.73 40.31 41.40 42.70 44.23 45.22 46.69 49.31 53.52 55.34 60.00 62.81 62.01 61.52
35.99 34.99 27.22 20.35 20.98 22.16 31.80 24.64 31.44 39.06 39.39 40.87 41.12 40.16 40.40 39.62 39.54 39.22 38.08 37.22 36.52 35.50 34.49 34.13 33.84 33.47 33.57 33.39 33.19 33.79 34.19 34.86 35.77 37.75 38.52 39.33 39.90 40.45 41.73 42.44 44.26 45.34 46.55 48.56 51.28 54.08 61.38 62.48 61.93
34.26 28.99 35.15 29.58 28.20 24.28 25.74 31.31 37.33 40.20 38.09 37.97 38.16 38.71 38.64 39.43 38.97 37.52 36.76 35.54 35.01 34.06 33.95 33.39 33.09 32.87 32.79 32.79 32.89 33.05 33.83 34.50 35.26 36.44 38.11 38.79 39.70 40.99 42.42 43.88 44.33 45.27 45.45 46.87 49.69 52.08 54.64 62.11 61.89
36.22 37.08 27.01 28.64 22.21 20.19 24.27 25.42 28.49 35.89 34.67 38.04 36.93 36.77 37.31 38.10 37.50 36.45 35.60 34.80 34.29 33.68 32.59 32.37 32.64 32.54 32.38 32.79 33.05 33.51 33.98 35.04 35.88 36.07 36.05 37.86 38.93 40.25 41.39 42.10 43.24 44.38 46.16 46.66 47.70 50.04 54.26 60.08 61.29
30.70 29.12 30.03 32.18 29.34 21.59 20.12 22.51 36.49 37.10 38.03 37.84 37.21 36.90 35.10 34.55 34.03 33.77 33.38 33.31 32.65 31.82 31.42 31.26 31.61 31.83 31.70 32.35 32.85 33.14 33.68 34.93 35.71 35.82 36.45 37.15 38.11 38.83 39.34 40.32 41.50 43.04 44.83 47.42 48.73 49.76 51.71 55.71 60.29
33.74 31.30 32.42 25.98 23.54 25.31 22.58 22.87 40.26 39.06 40.16 39.39 34.68 34.16 33.26 32.97 32.12 31.81 31.54 30.98 30.44 30.10 30.46 30.26 30.85 30.92 32.41 33.05 33.32 32.86 33.68 34.00 33.64 33.85 34.54 35.62 35.77 37.66 37.90 39.21 40.63 43.11 44.81 48.00 49.26 49.69 51.17 53.71 59.11

GFSSGP_sfc_wetblb_123.txt.gz
Wetbulb
56.93 52.31 49.86 47.85 40.36 36.32 33.44 37.70 40.43 42.16 43.18 44.76 45.87 45.82 45.40 48.32 50.81 45.96 64.13 69.95 70.40 70.55 72.33 72.39 72.41 73.19 73.37 73.36 73.11 73.25 73.46 73.82 73.93 73.80 73.92 74.17 74.34 74.40 74.36 74.35 74.71 74.97 75.32 74.99 74.41 74.13 73.89 73.46 72.61
55.66 53.78 48.74 42.31 36.13 32.04 35.31 39.56 40.32 41.54 45.17 47.06 47.20 47.10 49.24 53.46 58.27 60.71 63.08 70.17 70.67 70.96 71.71 72.30 72.16 72.67 73.00 72.92 72.96 73.16 73.93 73.86 73.72 73.63 73.52 73.94 73.96 74.05 74.23 74.18 74.18 74.68 75.19 74.69 74.06 73.78 73.49 73.45 72.31
53.14 52.71 44.40 38.34 32.54 32.98 35.11 40.20 43.78 47.99 46.80 45.12 45.42 47.77 51.89 52.49 58.32 61.37 64.46 70.52 70.64 70.44 71.52 71.86 71.92 72.11 72.63 72.43 72.71 72.88 73.23 73.22 73.36 73.21 73.53 73.63 73.87 73.96 73.89 73.41 73.73 74.80 75.03 74.44 73.86 73.66 73.98 72.56 71.44
50.68 46.42 42.78 37.39 34.00 38.47 39.73 44.47 45.75 45.09 46.25 46.10 44.46 46.91 53.37 58.08 58.97 64.52 67.83 70.77 69.56 69.89 70.79 70.59 70.96 71.79 72.51 72.41 72.45 72.58 72.61 72.23 72.43 72.79 73.14 73.38 73.58 73.73 73.18 72.64 73.50 74.64 74.68 74.56 74.34 74.65 72.94 71.37 70.54
46.81 42.44 36.70 33.48 34.64 39.17 43.05 45.96 46.08 44.49 46.72 48.28 46.71 46.32 51.77 58.01 63.41 68.15 68.33 70.54 68.87 68.96 69.79 70.59 69.84 71.11 72.34 72.62 72.43 72.26 72.05 71.74 71.94 72.49 72.57 73.05 73.53 73.50 72.73 72.38 73.26 74.15 74.61 74.47 74.08 73.25 71.86 70.93 70.16
42.46 40.76 34.52 32.97 35.51 40.83 44.56 45.95 46.62 46.61 47.58 49.16 47.97 47.96 49.74 55.17 58.00 65.38 68.72 68.92 69.59 68.68 69.64 70.31 70.95 71.00 71.46 72.08 71.74 71.09 71.07 71.40 71.54 71.78 72.10 72.60 72.64 72.41 72.29 72.23 72.31 72.94 73.38 72.80 72.39 71.64 71.09 70.38 69.86
40.05 37.48 33.83 33.27 36.75 39.24 43.88 47.20 45.35 45.01 45.80 47.58 49.62 46.79 49.77 52.25 54.36 65.46 67.74 69.23 69.30 69.32 68.96 69.18 70.06 71.11 70.60 70.20 70.25 69.97 70.15 70.62 70.78 70.98 71.31 71.55 71.16 70.92 71.48 71.63 71.77 72.36 72.11 71.70 71.48 71.09 70.12 69.65 69.39
40.59 38.22 33.45 33.75 36.01 37.35 44.43 46.81 46.28 45.78 44.94 50.45 49.18 46.35 45.86 51.77 54.07 60.60 66.55 67.67 67.30 68.28 68.31 68.06 68.29 69.26 69.48 69.95 69.26 69.46 69.59 69.75 69.99 70.51 70.20 70.06 70.23 70.61 70.64 70.57 70.97 71.57 71.55 71.28 71.30 70.69 70.07 69.43 68.60
40.43 34.36 31.50 34.53 36.56 40.08 45.41 43.31 46.24 47.89 45.33 47.15 48.21 47.88 51.06 53.54 53.18 56.31 62.47 65.58 66.62 68.40 67.52 67.43 67.52 67.97 68.35 68.69 69.87 69.91 70.29 69.86 69.37 70.04 69.61 68.69 70.13 70.11 70.08 69.77 69.80 70.47 70.06 70.23 70.59 70.06 69.27 68.53 67.88
37.52 31.99 34.87 39.73 41.03 41.86 43.63 41.04 44.15 44.21 44.83 45.87 46.46 49.67 51.41 50.85 49.54 49.20 53.25 63.09 65.07 67.00 67.36 67.18 67.00 67.25 67.38 69.55 68.94 68.78 69.66 70.05 69.59 69.46 69.23 70.09 69.37 69.12 70.34 69.50 68.69 69.31 69.03 69.27 69.34 69.05 68.31 67.93 66.79
36.47 34.65 38.34 41.95 44.16 43.96 41.89 42.32 44.24 43.10 42.45 45.17 45.90 47.13 48.46 48.74 48.24 48.26 48.84 50.39 56.30 65.98 68.04 67.95 66.98 66.68 66.93 67.77 67.58 68.03 69.73 69.72 69.95 70.62 70.40 70.29 69.71 69.60 69.89 69.05 68.80 69.03 68.87 69.44 68.98 68.47 68.53 67.58 66.41
36.12 40.73 41.45 42.41 44.15 42.81 42.17 43.54 43.11 43.40 45.96 47.65 47.31 47.93 46.64 47.20 47.17 47.24 47.67 48.59 46.98 49.20 53.30 65.53 67.81 67.13 66.43 67.20 66.99 66.95 67.79 67.97 68.57 69.20 69.70 69.26 68.75 68.68 69.09 69.21 68.53 67.85 68.67 69.23 68.67 68.83 69.05 67.83 66.77
39.68 40.97 43.16 44.19 43.90 42.88 43.92 42.08 43.21 44.14 47.64 46.64 46.40 46.34 45.84 46.12 45.75 46.49 47.87 46.67 53.68 56.91 62.65 66.96 68.71 67.09 66.91 66.59 66.93 66.39 67.31 67.72 67.68 68.08 69.11 69.28 68.58 68.26 68.89 68.97 68.47 67.72 67.43 68.15 68.44 68.69 68.22 67.86 66.84
42.18 42.11 42.11 43.28 43.67 43.67 43.04 42.10 41.37 45.07 46.48 46.08 46.61 46.09 46.28 45.79 46.12 44.37 45.90 50.23 53.33 56.03 57.80 59.67 61.11 65.86 68.10 66.86 67.00 66.79 67.29 67.29 66.95 66.98 67.61 68.94 68.69 68.15 68.04 68.67 67.65 67.65 67.22 67.61 67.68 68.03 67.72 67.45 66.93
43.58 39.24 40.77 42.06 43.63 41.62 42.56 39.78 41.55 45.12 45.35 44.71 45.12 46.05 46.19 47.06 47.19 45.62 46.37 52.06 54.27 55.38 56.63 56.58 56.42 56.62 57.67 59.25 60.55 61.46 65.42 67.13 66.97 67.40 68.06 67.81 68.42 67.90 67.20 67.59 67.63 67.81 67.72 67.09 67.31 67.06 67.18 66.82 66.41
39.16 37.69 33.43 41.17 43.19 43.38 39.94 34.77 42.67 45.15 45.34 42.92 44.01 44.35 44.99 45.45 46.15 44.30 51.66 51.95 52.16 53.33 53.00 53.12 54.70 53.38 53.16 54.10 55.62 57.31 57.77 58.83 61.54 63.96 65.21 66.35 67.79 68.31 66.73 66.19 66.60 67.50 65.98 66.50 66.61 67.00 66.68 66.21 65.51
34.50 29.19 31.78 36.51 42.62 40.93 38.23 37.04 41.62 44.60 43.59 43.25 42.50 42.35 43.35 43.39 48.20 49.73 50.98 50.63 50.02 49.86 49.60 49.75 50.30 50.09 50.30 50.43 51.66 52.66 53.38 54.18 56.44 58.07 61.01 61.92 63.43 64.41 63.74 62.97 66.04 65.38 65.60 65.84 66.03 66.05 66.17 65.51 65.13
30.53 30.77 28.70 32.32 38.79 40.61 38.51 38.36 41.75 41.99 40.31 40.84 40.04 41.01 41.35 46.55 48.34 49.35 48.75 48.62 48.05 47.60 48.13 48.32 47.80 47.70 48.01 48.15 48.35 49.68 48.64 49.80 52.64 54.75 55.07 57.69 57.95 59.75 62.71 61.80 61.31 62.66 64.56 64.24 64.80 65.26 65.49 65.16 64.87
34.36 32.56 31.42 33.93 39.00 37.28 37.19 37.63 39.77 38.93 39.35 39.47 39.14 40.79 45.53 46.29 47.42 46.86 46.85 46.57 46.34 46.16 45.89 45.74 44.97 44.92 45.55 45.34 44.94 46.32 44.50 46.60 48.05 51.26 51.03 53.95 52.16 53.59 55.37 58.85 59.92 63.03 62.76 62.40 64.78 65.05 64.22 63.72 62.47
34.89 32.43 31.97 35.78 39.53 37.88 36.28 35.81 37.88 38.15 39.90 40.61 41.17 40.79 45.77 45.17 44.43 44.73 43.93 43.32 42.91 43.13 43.33 43.20 43.15 42.57 42.96 43.54 43.37 43.73 43.68 46.27 46.49 46.43 46.91 49.23 48.56 51.14 51.97 53.61 56.67 59.19 59.94 63.30 63.41 64.51 63.52 62.70 62.57
34.42 32.77 33.52 34.04 36.78 36.89 35.10 33.80 35.51 40.06 41.83 42.99 44.38 44.39 46.25 43.85 41.89 41.94 41.67 40.96 40.28 39.46 40.06 40.80 40.25 40.26 40.58 40.97 41.39 41.50 42.63 42.85 43.36 41.92 42.74 44.42 45.83 47.44 48.48 50.60 52.35 53.41 56.54 57.87 60.01 63.43 62.47 61.38 62.16
31.06 37.87 37.23 36.51 32.90 28.92 34.17 27.18 35.69 36.82 38.71 40.23 39.89 39.40 39.62 40.00 40.27 40.12 39.62 39.38 40.08 39.46 39.38 38.49 39.27 38.69 39.08 39.06 38.34 37.74 37.70 37.03 39.27 39.65 41.21 41.60 43.29 44.96 47.12 48.65 49.37 50.72 52.45 54.35 56.88 61.00 62.60 61.23 58.60
35.49 40.29 38.17 37.10 31.76 28.90 30.74 26.23 30.27 37.70 36.86 36.09 37.56 38.48 38.43 39.28 39.60 38.67 38.24 38.19 38.17 38.43 37.36 36.70 36.98 36.77 37.04 36.45 36.02 35.61 35.22 36.59 37.65 38.24 38.34 39.57 41.67 42.82 43.82 45.85 46.45 47.64 49.60 51.57 53.95 55.98 59.63 62.99 60.87
41.38 37.68 35.38 32.73 30.15 25.75 30.39 28.49 26.06 33.77 37.06 36.02 37.35 38.51 39.22 39.13 39.28 38.94 39.40 39.61 38.46 37.47 36.17 36.29 35.47 34.98 34.94 34.29 33.95 33.38 33.08 33.25 34.11 35.16 36.49 38.40 39.98 41.17 41.98 43.17 43.54 44.32 45.83 47.32 50.17 53.26 55.34 60.86 62.74
36.62 32.30 28.17 23.39 21.72 22.06 30.98 26.98 28.98 36.95 37.93 37.01 36.11 36.83 38.63 39.60 38.53 37.57 36.51 36.03 36.30 35.10 34.72 35.00 34.21 33.40 33.51 33.15 33.01 32.96 32.54 32.81 33.51 34.74 35.70 36.27 38.28 39.82 40.44 41.15 41.46 42.39 43.78 45.03 46.09 47.43 49.40 51.94 60.26
34.28 32.96 25.07 20.15 20.59 21.54 29.70 24.16 29.30 38.94 39.45 38.93 39.01 39.30 39.86 39.38 38.89 37.36 36.45 35.72 34.62 34.48 33.92 32.68 32.34 32.67 33.11 33.27 33.17 33.87 34.31 34.14 35.08 35.84 35.52 36.27 37.79 39.09 40.51 41.28 42.47 43.68 44.79 45.60 45.67 45.94 47.58 50.74 53.23
33.08 29.91 34.36 27.81 27.15 23.98 24.94 30.24 36.11 38.52 37.65 38.22 38.52 39.60 39.27 39.52 37.91 36.67 35.89 35.12 33.87 33.37 33.48 32.54 32.06 32.25 32.91 33.11 33.14 33.26 33.69 33.95 34.59 35.69 36.36 36.74 37.75 38.79 40.12 40.42 41.45 42.40 43.52 44.50 45.39 44.73 45.55 48.57 51.45
35.19 36.44 26.82 26.44 20.98 19.77 23.20 24.60 25.13 35.41 35.63 37.37 38.74 38.80 38.56 38.78 36.21 34.66 33.52 33.01 32.81 31.44 32.21 32.50 32.39 32.33 32.57 33.30 33.17 32.98 33.13 33.85 34.62 35.11 34.98 35.44 36.73 37.24 38.21 38.87 39.45 40.35 41.75 43.35 44.77 45.48 46.27 47.17 49.65
29.82 28.60 29.58 30.28 26.45 21.33 19.73 22.74 34.46 35.78 37.65 37.46 38.01 36.91 35.65 32.88 32.19 31.90 31.47 31.56 31.52 31.08 30.23 30.82 31.24 31.53 31.83 32.89 33.56 32.77 33.21 33.30 33.55 33.10 33.98 34.10 34.81 35.34 36.28 37.13 38.08 38.37 39.38 42.07 43.54 44.69 46.09 46.52 48.64
32.07 30.20 30.02 24.29 23.55 25.05 22.38 23.04 36.28 37.94 38.38 39.63 36.61 33.34 31.25 30.70 29.49 29.04 29.38 29.64 29.98 29.11 30.06 30.22 30.64 30.75 31.89 31.53 31.99 32.83 33.21 33.47 33.01 32.90 33.09 33.60 33.37 34.37 34.74 35.55 36.23 37.34 38.95 40.48 42.37 43.64 46.73 48.47 49.21

GFSSGP_sfc_wetblb_126.txt.gz
Wetbulb
55.25 51.26 48.85 46.64 40.49 36.03 32.86 36.35 38.58 41.58 42.58 42.87 44.46 44.35 44.89 48.13 52.72 46.31 62.33 69.24 70.03 70.52 71.78 71.86 72.47 73.16 73.33 73.12 72.86 73.06 73.82 74.08 74.31 74.62 74.56 74.61 74.74 74.49 74.45 74.37 74.61 74.82 75.34 75.37 74.50 74.22 73.65 72.63 72.03
54.12 52.33 47.55 41.42 36.13 31.96 34.35 38.63 39.13 42.24 45.01 46.14 46.16 47.28 50.58 52.49 57.49 60.53 62.23 69.52 69.92 71.03 71.47 71.58 72.31 72.83 73.08 72.86 72.92 72.88 73.92 74.11 74.08 74.15 74.29 74.41 74.46 74.53 74.37 74.18 74.13 74.62 75.11 74.67 74.60 74.09 73.63 73.12 71.59
51.79 50.27 44.01 37.41 31.84 32.70 34.02 38.79 42.87 45.67 46.26 44.12 43.90 49.23 51.10 51.84 57.98 60.95 64.55 69.60 70.41 70.30 71.30 71.55 71.88 72.04 72.70 72.61 72.63 72.83 73.18 73.14 73.28 73.44 74.08 74.27 74.39 74.46 74.35 73.69 73.82 74.66 75.00 74.65 74.04 73.92 73.80 72.11 70.98
50.03 46.07 41.98 37.20 33.67 37.11 37.31 42.53 44.03 44.59 45.43 45.23 43.30 45.73 52.76 57.15 57.23 63.32 68.49 69.54 69.03 69.56 70.80 70.52 70.85 71.59 72.15 72.40 72.45 72.54 72.59 72.16 72.34 72.67 73.57 73.97 74.24 74.44 73.88 73.27 73.89 74.84 74.90 74.82 74.37 74.04 72.92 71.10 70.51
45.04 41.86 36.37 33.17 33.83 38.34 41.89 43.95 44.64 44.25 45.84 47.81 46.25 45.71 50.41 57.38 60.27 67.26 68.69 69.48 67.98 68.67 69.59 70.07 70.00 71.01 71.93 72.40 72.46 72.19 71.95 71.59 71.87 72.20 72.59 73.08 73.64 73.65 73.14 72.87 73.51 74.14 74.28 74.03 73.65 73.28 71.93 70.93 70.15
41.92 40.25 34.42 31.52 34.66 40.37 43.02 43.99 44.58 44.49 45.28 47.09 46.26 46.83 48.66 53.56 56.78 64.16 67.64 68.56 68.88 68.39 69.14 69.89 70.96 71.10 71.30 71.53 71.41 71.03 71.26 71.30 71.43 71.66 72.07 72.67 72.54 72.32 72.37 72.38 72.75 73.18 73.11 72.96 72.77 71.87 71.38 70.61 70.06
39.84 37.19 33.90 32.90 35.12 38.97 42.38 45.91 43.75 43.97 44.06 45.34 47.47 45.98 48.63 51.12 53.63 59.88 65.56 68.19 67.18 67.57 68.45 68.74 69.60 70.77 70.43 69.81 70.00 69.69 70.11 70.67 70.63 70.92 70.97 71.41 71.16 71.11 71.61 71.95 72.39 72.60 72.38 71.88 71.70 71.10 70.62 70.29 69.61
39.81 37.75 32.86 33.16 35.27 37.23 42.98 45.55 44.37 44.56 43.55 49.03 47.72 44.65 45.23 50.41 52.42 58.46 66.45 67.48 65.85 67.24 67.06 67.21 67.80 68.81 69.11 69.33 69.22 69.13 69.44 69.44 69.96 70.25 70.05 69.64 69.93 70.60 70.82 70.75 71.13 72.04 71.98 71.49 71.29 70.33 69.78 69.44 68.73
39.26 34.50 31.71 33.60 35.90 38.73 43.55 41.57 44.50 46.56 44.23 45.44 46.69 46.48 50.06 52.04 52.03 55.33 60.64 64.72 65.89 67.51 66.95 66.76 67.08 67.75 68.00 68.36 69.26 69.63 69.90 69.56 69.22 69.80 69.42 68.27 69.17 69.28 69.75 69.63 69.72 70.53 70.05 70.11 70.40 69.84 68.94 68.29 67.86
36.48 31.85 34.55 38.04 38.81 39.20 42.15 38.56 42.71 43.23 43.49 44.65 44.73 48.30 50.04 50.17 49.02 48.82 49.34 56.35 63.42 65.92 66.63 66.56 66.54 66.83 67.05 69.15 68.52 68.36 69.94 70.42 69.20 68.99 68.77 69.20 69.71 68.09 69.46 68.99 68.43 68.97 68.90 69.24 69.17 69.13 68.36 67.98 67.26
33.83 33.51 36.62 39.78 41.90 40.29 38.15 40.90 42.89 41.87 41.38 43.85 44.97 46.32 46.66 47.85 47.82 47.16 48.02 48.87 54.48 60.52 67.22 67.37 66.29 65.86 66.17 67.14 67.36 69.22 69.71 69.70 70.10 69.67 68.93 69.74 69.69 69.81 69.40 68.16 68.23 67.80 68.45 68.63 68.56 68.38 68.25 67.66 66.62
34.62 39.04 39.12 41.11 42.21 41.19 40.45 39.82 41.07 42.70 45.35 46.71 46.69 46.57 45.95 46.43 46.13 46.28 46.60 47.22 45.92 53.71 63.91 64.15 66.22 65.45 65.65 65.99 66.64 67.48 68.61 68.52 68.59 68.97 69.76 69.68 68.55 68.61 68.64 68.62 69.00 67.86 67.93 69.17 69.74 69.40 69.12 68.43 66.35
38.27 39.28 41.64 42.47 42.62 41.91 42.70 41.04 41.27 42.87 45.88 45.82 45.70 45.88 45.30 45.92 45.33 45.29 45.73 45.46 47.78 49.44 58.38 63.28 64.75 66.53 65.20 65.34 65.11 64.81 65.92 67.17 68.11 67.96 68.74 68.34 67.80 67.32 68.42 68.24 68.73 68.57 68.05 69.05 68.76 68.81 68.04 67.73 67.53
40.44 40.30 40.38 41.66 42.79 42.69 40.99 40.95 41.43 44.62 45.53 45.96 44.87 44.67 45.32 45.33 46.17 44.65 43.29 45.67 52.71 57.27 58.05 58.49 61.19 67.42 68.27 67.37 66.78 65.85 64.99 65.22 65.97 66.15 67.33 68.16 68.45 67.93 68.11 67.93 67.98 67.98 66.71 67.98 68.38 67.76 67.54 67.08 67.06
41.95 37.64 39.35 40.67 40.01 40.04 40.51 38.01 40.16 43.95 44.50 44.01 43.80 43.79 44.17 45.12 47.07 44.87 44.34 50.63 53.68 54.19 54.20 54.38 54.93 56.43 58.76 59.59 60.02 61.07 64.43 64.89 64.93 65.20 64.60 66.48 67.96 67.30 67.66 66.56 67.30 66.71 66.78 66.89 67.21 67.69 67.69 66.97 67.10
37.48 35.67 32.10 39.57 40.51 41.10 40.58 32.65 41.71 44.04 44.19 43.52 43.62 43.06 43.17 47.88 48.01 47.96 48.43 48.42 47.91 48.40 48.45 49.31 50.76 50.34 50.68 52.09 54.04 54.70 56.05 57.59 59.59 61.40 62.46 62.59 63.94 65.46 65.54 65.47 65.37 65.85 67.00 66.73 67.25 66.99 66.18 66.83 65.73
33.13 29.25 30.14 34.82 40.46 39.59 38.67 34.29 40.99 43.53 41.68 41.67 40.64 40.68 42.26 46.29 46.04 46.15 46.42 45.77 45.82 46.05 45.63 45.38 45.71 45.84 47.23 48.28 51.12 50.62 51.80 52.45 54.29 55.19 55.53 56.65 57.02 56.63 60.55 63.99 64.59 65.71 65.08 66.08 66.62 66.46 66.27 65.55 65.57
29.69 29.29 28.71 29.88 36.45 38.71 35.82 36.39 40.03 41.49 39.74 40.76 39.85 39.67 45.07 43.73 43.27 44.15 43.81 44.19 43.47 43.04 43.25 43.09 42.75 42.39 43.96 45.55 46.63 47.54 46.71 49.04 51.54 49.60 51.58 51.17 51.87 52.65 53.75 59.06 61.53 61.26 61.29 62.33 64.05 64.12 64.96 65.57 65.34
34.08 31.75 30.46 32.67 37.28 34.72 35.24 35.61 37.13 38.97 38.40 38.53 39.64 39.06 42.76 41.77 42.41 42.10 41.35 40.86 40.63 40.94 40.45 39.96 40.31 39.93 40.53 41.16 41.21 43.77 42.67 46.01 47.31 46.17 48.49 47.80 47.85 49.72 50.31 51.57 54.48 57.56 59.97 60.18 60.63 60.90 60.85 62.38 64.20
33.82 30.79 30.17 33.99 37.80 36.49 34.60 34.84 37.33 37.90 38.12 39.58 40.98 42.00 40.95 39.96 39.41 39.85 39.56 39.11 38.22 37.68 38.27 38.86 38.38 38.47 38.20 38.71 39.37 40.37 41.33 43.69 44.74 42.88 43.93 44.71 45.05 47.03 47.07 48.45 50.80 53.15 54.61 57.00 60.94 59.79 59.11 59.80 61.87
33.23 31.30 31.40 31.91 35.48 35.23 33.97 31.75 33.45 38.12 39.35 39.52 39.04 38.95 38.52 37.67 37.06 37.50 37.54 36.52 36.78 36.60 36.26 37.20 37.10 36.74 36.92 36.91 37.30 37.71 40.00 40.29 41.02 39.39 40.23 41.30 43.15 44.44 46.40 47.23 48.33 49.48 51.42 52.85 55.49 57.11 60.32 58.64 61.44
29.32 36.20 35.57 34.04 32.02 27.25 32.78 25.15 31.31 35.75 35.31 36.28 36.36 36.40 36.65 37.51 38.56 38.40 37.72 37.10 36.07 35.11 36.66 36.22 37.08 36.02 36.17 35.85 34.54 33.76 34.15 34.09 36.85 37.36 38.34 39.25 41.48 43.08 44.40 45.06 46.02 46.36 48.58 49.79 51.94 55.61 57.07 58.90 57.98
33.66 38.99 36.56 35.34 31.49 27.17 28.87 25.09 27.91 36.75 32.57 33.71 34.95 36.05 37.08 38.22 38.09 37.74 38.01 38.09 37.75 37.06 36.13 35.62 35.33 35.46 34.94 34.78 34.03 32.82 32.28 33.19 34.87 35.63 35.90 37.57 39.61 41.11 42.17 43.61 43.77 43.80 45.09 46.14 47.52 49.17 51.68 55.59 56.42
39.89 36.66 34.45 31.07 29.48 24.94 29.85 27.93 24.75 31.29 34.10 34.02 35.93 37.36 38.14 38.83 38.60 38.32 38.60 38.18 36.78 36.62 35.54 35.06 34.29 34.27 34.65 34.29 34.19 33.74 32.98 33.18 33.48 34.85 35.69 37.03 38.04 39.01 40.46 41.65 41.44 42.00 42.34 43.29 44.82 46.27 47.15 49.74 53.61
36.39 31.54 24.87 21.61 21.45 23.15 29.14 26.08 29.79 35.45 37.26 35.95 35.95 37.15 39.09 39.51 39.43 38.85 37.91 37.11 36.41 35.12 34.36 33.92 33.29 33.04 33.99 33.96 34.04 33.94 33.93 33.77 33.67 34.30 34.99 35.24 36.32 37.31 38.89 40.28 40.78 41.50 42.68 43.73 44.86 45.09 45.10 46.10 47.51
32.57 31.80 25.80 20.23 20.06 21.14 28.29 23.66 27.10 38.03 38.65 39.00 39.18 39.43 38.85 37.67 39.10 37.96 36.43 35.05 33.51 33.03 33.16 32.68 32.33 32.29 33.06 33.43 33.34 34.09 34.14 33.93 34.22 34.33 34.33 35.52 36.25 37.21 38.64 39.98 41.06 41.04 42.49 43.33 44.31 44.88 45.59 45.89 46.43
32.53 29.58 33.25 27.20 26.65 24.20 24.84 27.80 35.05 38.45 37.60 37.79 38.29 39.13 38.86 39.07 37.72 35.15 34.35 33.10 31.60 30.90 31.18 30.79 31.16 31.40 31.88 32.79 33.11 34.02 33.98 33.83 33.43 33.69 34.67 35.24 35.89 36.62 37.55 37.54 38.49 40.00 40.54 41.36 42.51 43.36 44.73 45.45 45.64
34.02 35.51 26.31 25.73 20.75 19.39 22.45 23.52 25.09 33.11 35.23 37.60 37.44 37.86 39.67 39.40 35.42 32.67 31.77 31.50 31.61 30.75 31.11 31.98 32.01 31.72 32.14 32.82 32.48 33.55 33.73 34.01 33.70 33.88 33.14 33.68 34.19 34.92 35.38 35.84 37.30 38.03 39.23 39.92 40.69 41.67 43.76 45.19 45.65
29.98 29.36 29.54 29.98 26.74 21.27 19.02 22.89 31.76 34.61 36.28 36.46 37.41 38.92 38.41 34.67 29.69 28.97 29.20 29.49 29.84 30.06 30.98 30.86 31.36 31.26 31.60 31.79 31.30 32.16 32.69 32.79 33.80 33.18 32.48 32.85 33.53 33.83 34.43 35.23 35.77 36.82 37.33 38.77 39.69 41.33 42.60 43.47 45.40
32.65 32.37 32.85 26.81 23.45 25.65 22.81 24.08 35.26 36.23 37.78 38.95 38.16 32.37 31.13 28.81 27.62 27.68 27.99 28.31 28.42 29.55 30.26 30.15 30.54 30.30 30.80 31.05 31.05 30.91 31.40 31.86 31.28 31.22 31.46 31.97 31.36 32.24 32.39 33.64 34.35 34.90 35.13 36.09 37.14 37.93 39.31 41.07 43.36